<?xml version='1.0' encoding='UTF-8'?>
<gpx version="1.1" creator="https://www.komoot.de" xmlns="http://www.topografix.com/GPX/1/1" xmlns:xsi="http://www.w3.org/2001/XMLSchema-instance" xsi:schemaLocation="http://www.topografix.com/GPX/1/1 http://www.topografix.com/GPX/1/1/gpx.xsd">
  <metadata>
    <name>TL2025-1_Bartholomä-Ursberg</name>
    <author>
      <link href="https://www.komoot.de">
        <text>komoot</text>
        <type>text/html</type>
      </link>
    </author>
  </metadata>
  <trk>
    <name>TL2025-1_Bartholomä-Ursberg</name>
    <trkseg>
      <trkpt lat="48.753659" lon="9.987326">
        <ele>640.299173</ele>
        <time>2025-05-18T15:28:05.264Z</time>
      </trkpt>
      <trkpt lat="48.753434" lon="9.987346">
        <ele>640.299173</ele>
        <time>2025-05-18T15:28:08.984Z</time>
      </trkpt>
      <trkpt lat="48.753121" lon="9.987383">
        <ele>640.299173</ele>
        <time>2025-05-18T15:28:14.087Z</time>
      </trkpt>
      <trkpt lat="48.753028" lon="9.987394">
        <ele>640.299173</ele>
        <time>2025-05-18T15:28:15.596Z</time>
      </trkpt>
      <trkpt lat="48.752758" lon="9.987405">
        <ele>640.293002</ele>
        <time>2025-05-18T15:28:19.943Z</time>
      </trkpt>
      <trkpt lat="48.752202" lon="9.987305">
        <ele>639.274909</ele>
        <time>2025-05-18T15:28:29.069Z</time>
      </trkpt>
      <trkpt lat="48.752094" lon="9.987374">
        <ele>639.061814</ele>
        <time>2025-05-18T15:28:31.062Z</time>
      </trkpt>
      <trkpt lat="48.752132" lon="9.987472">
        <ele>638.925511</ele>
        <time>2025-05-18T15:28:32.340Z</time>
      </trkpt>
      <trkpt lat="48.752408" lon="9.988231">
        <ele>637.886340</ele>
        <time>2025-05-18T15:28:43.002Z</time>
      </trkpt>
      <trkpt lat="48.752560" lon="9.988691">
        <ele>637.269474</ele>
        <time>2025-05-18T15:28:49.818Z</time>
      </trkpt>
      <trkpt lat="48.752567" lon="9.988712">
        <ele>637.241263</ele>
        <time>2025-05-18T15:28:50.129Z</time>
      </trkpt>
      <trkpt lat="48.752574" lon="9.988733">
        <ele>637.213052</ele>
        <time>2025-05-18T15:28:50.447Z</time>
      </trkpt>
      <trkpt lat="48.752720" lon="9.989162">
        <ele>637.021019</ele>
        <time>2025-05-18T15:28:56.945Z</time>
      </trkpt>
      <trkpt lat="48.752829" lon="9.989498">
        <ele>637.012404</ele>
        <time>2025-05-18T15:29:01.916Z</time>
      </trkpt>
      <trkpt lat="48.752866" lon="9.989622">
        <ele>637.009273</ele>
        <time>2025-05-18T15:29:03.781Z</time>
      </trkpt>
      <trkpt lat="48.752874" lon="9.989653">
        <ele>637.008508</ele>
        <time>2025-05-18T15:29:04.232Z</time>
      </trkpt>
      <trkpt lat="48.752971" lon="9.989997">
        <ele>636.999901</ele>
        <time>2025-05-18T15:29:09.392Z</time>
      </trkpt>
      <trkpt lat="48.753088" lon="9.990451">
        <ele>636.988688</ele>
        <time>2025-05-18T15:29:16.236Z</time>
      </trkpt>
      <trkpt lat="48.753163" lon="9.990799">
        <ele>636.980266</ele>
        <time>2025-05-18T15:29:21.424Z</time>
      </trkpt>
      <trkpt lat="48.753336" lon="9.991858">
        <ele>636.871127</ele>
        <time>2025-05-18T15:29:37.157Z</time>
      </trkpt>
      <trkpt lat="48.753345" lon="9.991947">
        <ele>636.852727</ele>
        <time>2025-05-18T15:29:38.460Z</time>
      </trkpt>
      <trkpt lat="48.753442" lon="9.992823">
        <ele>636.671210</ele>
        <time>2025-05-18T15:29:51.118Z</time>
      </trkpt>
      <trkpt lat="48.753464" lon="9.993114">
        <ele>636.611355</ele>
        <time>2025-05-18T15:29:55.098Z</time>
      </trkpt>
      <trkpt lat="48.753403" lon="9.993630">
        <ele>636.504230</ele>
        <time>2025-05-18T15:30:01.827Z</time>
      </trkpt>
      <trkpt lat="48.753544" lon="9.993755">
        <ele>636.453609</ele>
        <time>2025-05-18T15:30:05.011Z</time>
      </trkpt>
      <trkpt lat="48.753579" lon="9.993869">
        <ele>636.427912</ele>
        <time>2025-05-18T15:30:06.628Z</time>
      </trkpt>
      <trkpt lat="48.753672" lon="9.994908">
        <ele>635.760345</ele>
        <time>2025-05-18T15:30:19.857Z</time>
      </trkpt>
      <trkpt lat="48.753677" lon="9.995160">
        <ele>635.588878</ele>
        <time>2025-05-18T15:30:23.009Z</time>
      </trkpt>
      <trkpt lat="48.753629" lon="9.995533">
        <ele>635.330408</ele>
        <time>2025-05-18T15:30:27.851Z</time>
      </trkpt>
      <trkpt lat="48.753549" lon="9.995680">
        <ele>635.200770</ele>
        <time>2025-05-18T15:30:30.377Z</time>
      </trkpt>
      <trkpt lat="48.753578" lon="9.995749">
        <ele>635.145117</ele>
        <time>2025-05-18T15:30:31.452Z</time>
      </trkpt>
      <trkpt lat="48.753578" lon="9.995858">
        <ele>635.070984</ele>
        <time>2025-05-18T15:30:32.927Z</time>
      </trkpt>
      <trkpt lat="48.752997" lon="9.998896">
        <ele>634.014105</ele>
        <time>2025-05-18T15:31:17.903Z</time>
      </trkpt>
      <trkpt lat="48.752867" lon="9.999627">
        <ele>633.626783</ele>
        <time>2025-05-18T15:31:28.267Z</time>
      </trkpt>
      <trkpt lat="48.752556" lon="10.001511">
        <ele>632.210054</ele>
        <time>2025-05-18T15:31:53.485Z</time>
      </trkpt>
      <trkpt lat="48.752401" lon="10.002610">
        <ele>631.631852</ele>
        <time>2025-05-18T15:32:08.203Z</time>
      </trkpt>
      <trkpt lat="48.752282" lon="10.003223">
        <ele>631.366628</ele>
        <time>2025-05-18T15:32:16.526Z</time>
      </trkpt>
      <trkpt lat="48.750730" lon="10.009331">
        <ele>629.770801</ele>
        <time>2025-05-18T15:33:45.864Z</time>
      </trkpt>
      <trkpt lat="48.749729" lon="10.011884">
        <ele>627.590753</ele>
        <time>2025-05-18T15:34:22.465Z</time>
      </trkpt>
      <trkpt lat="48.749630" lon="10.012102">
        <ele>627.639619</ele>
        <time>2025-05-18T15:34:25.928Z</time>
      </trkpt>
      <trkpt lat="48.749437" lon="10.012408">
        <ele>627.717791</ele>
        <time>2025-05-18T15:34:31.525Z</time>
      </trkpt>
      <trkpt lat="48.749250" lon="10.012618">
        <ele>627.782937</ele>
        <time>2025-05-18T15:34:36.265Z</time>
      </trkpt>
      <trkpt lat="48.749085" lon="10.012740">
        <ele>627.834331</ele>
        <time>2025-05-18T15:34:40.052Z</time>
      </trkpt>
      <trkpt lat="48.747957" lon="10.013328">
        <ele>629.196883</ele>
        <time>2025-05-18T15:35:06.789Z</time>
      </trkpt>
      <trkpt lat="48.747659" lon="10.013657">
        <ele>630.694846</ele>
        <time>2025-05-18T15:35:19.188Z</time>
      </trkpt>
      <trkpt lat="48.747477" lon="10.013930">
        <ele>631.735149</ele>
        <time>2025-05-18T15:35:27.916Z</time>
      </trkpt>
      <trkpt lat="48.747290" lon="10.014294">
        <ele>632.971657</ele>
        <time>2025-05-18T15:35:38.562Z</time>
      </trkpt>
      <trkpt lat="48.746757" lon="10.015690">
        <ele>638.216176</ele>
        <time>2025-05-18T15:36:18.141Z</time>
      </trkpt>
      <trkpt lat="48.746091" lon="10.017720">
        <ele>647.045614</ele>
        <time>2025-05-18T15:37:13.478Z</time>
      </trkpt>
      <trkpt lat="48.745240" lon="10.020518">
        <ele>655.591898</ele>
        <time>2025-05-18T15:38:24.334Z</time>
      </trkpt>
      <trkpt lat="48.744585" lon="10.022544">
        <ele>657.905660</ele>
        <time>2025-05-18T15:39:14.425Z</time>
      </trkpt>
      <trkpt lat="48.744531" lon="10.022719">
        <ele>657.468027</ele>
        <time>2025-05-18T15:39:18.586Z</time>
      </trkpt>
      <trkpt lat="48.743011" lon="10.027567">
        <ele>643.763415</ele>
        <time>2025-05-18T15:40:57.705Z</time>
      </trkpt>
      <trkpt lat="48.742585" lon="10.028735">
        <ele>641.547412</ele>
        <time>2025-05-18T15:41:23.342Z</time>
      </trkpt>
      <trkpt lat="48.742474" lon="10.028954">
        <ele>641.088828</ele>
        <time>2025-05-18T15:41:28.963Z</time>
      </trkpt>
      <trkpt lat="48.741548" lon="10.029423">
        <ele>640.574940</ele>
        <time>2025-05-18T15:42:02.441Z</time>
      </trkpt>
      <trkpt lat="48.740859" lon="10.029661">
        <ele>642.277779</ele>
        <time>2025-05-18T15:42:26.183Z</time>
      </trkpt>
      <trkpt lat="48.740775" lon="10.029642">
        <ele>642.482437</ele>
        <time>2025-05-18T15:42:29.043Z</time>
      </trkpt>
      <trkpt lat="48.740637" lon="10.029554">
        <ele>642.843188</ele>
        <time>2025-05-18T15:42:34.148Z</time>
      </trkpt>
      <trkpt lat="48.740304" lon="10.029260">
        <ele>643.771733</ele>
        <time>2025-05-18T15:42:47.715Z</time>
      </trkpt>
      <trkpt lat="48.740157" lon="10.029229">
        <ele>644.343498</ele>
        <time>2025-05-18T15:42:53.140Z</time>
      </trkpt>
      <trkpt lat="48.740065" lon="10.029276">
        <ele>644.870505</ele>
        <time>2025-05-18T15:42:56.712Z</time>
      </trkpt>
      <trkpt lat="48.739941" lon="10.029384">
        <ele>645.646781</ele>
        <time>2025-05-18T15:43:02.006Z</time>
      </trkpt>
      <trkpt lat="48.739587" lon="10.029956">
        <ele>648.455032</ele>
        <time>2025-05-18T15:43:21.385Z</time>
      </trkpt>
      <trkpt lat="48.739396" lon="10.030489">
        <ele>650.626694</ele>
        <time>2025-05-18T15:43:36.287Z</time>
      </trkpt>
      <trkpt lat="48.738537" lon="10.030942">
        <ele>654.658144</ele>
        <time>2025-05-18T15:44:08.076Z</time>
      </trkpt>
      <trkpt lat="48.736426" lon="10.032395">
        <ele>659.848082</ele>
        <time>2025-05-18T15:45:25.801Z</time>
      </trkpt>
      <trkpt lat="48.735981" lon="10.032674">
        <ele>660.500649</ele>
        <time>2025-05-18T15:45:42.154Z</time>
      </trkpt>
      <trkpt lat="48.735670" lon="10.032885">
        <ele>660.962371</ele>
        <time>2025-05-18T15:45:53.826Z</time>
      </trkpt>
      <trkpt lat="48.735016" lon="10.033523">
        <ele>660.504271</ele>
        <time>2025-05-18T15:46:20.717Z</time>
      </trkpt>
      <trkpt lat="48.734573" lon="10.034201">
        <ele>659.915632</ele>
        <time>2025-05-18T15:46:41.580Z</time>
      </trkpt>
      <trkpt lat="48.734167" lon="10.034745">
        <ele>659.373820</ele>
        <time>2025-05-18T15:46:58.810Z</time>
      </trkpt>
      <trkpt lat="48.733789" lon="10.035368">
        <ele>658.253652</ele>
        <time>2025-05-18T15:47:16.038Z</time>
      </trkpt>
      <trkpt lat="48.733489" lon="10.037272">
        <ele>655.765441</ele>
        <time>2025-05-18T15:47:56.274Z</time>
      </trkpt>
      <trkpt lat="48.733416" lon="10.037508">
        <ele>655.630678</ele>
        <time>2025-05-18T15:48:02.141Z</time>
      </trkpt>
      <trkpt lat="48.733168" lon="10.038135">
        <ele>655.252698</ele>
        <time>2025-05-18T15:48:18.766Z</time>
      </trkpt>
      <trkpt lat="48.733049" lon="10.038436">
        <ele>655.071266</ele>
        <time>2025-05-18T15:48:26.767Z</time>
      </trkpt>
      <trkpt lat="48.732914" lon="10.038706">
        <ele>654.896099</ele>
        <time>2025-05-18T15:48:34.504Z</time>
      </trkpt>
      <trkpt lat="48.732873" lon="10.038730">
        <ele>654.861649</ele>
        <time>2025-05-18T15:48:36.005Z</time>
      </trkpt>
      <trkpt lat="48.732725" lon="10.038780">
        <ele>654.742794</ele>
        <time>2025-05-18T15:48:39.214Z</time>
      </trkpt>
      <trkpt lat="48.732715" lon="10.038783">
        <ele>654.734804</ele>
        <time>2025-05-18T15:48:39.423Z</time>
      </trkpt>
      <trkpt lat="48.732233" lon="10.039063">
        <ele>654.372234</ele>
        <time>2025-05-18T15:48:50.423Z</time>
      </trkpt>
      <trkpt lat="48.732048" lon="10.038081">
        <ele>654.088342</ele>
        <time>2025-05-18T15:49:04.114Z</time>
      </trkpt>
      <trkpt lat="48.731628" lon="10.037783">
        <ele>653.892908</ele>
        <time>2025-05-18T15:49:20.168Z</time>
      </trkpt>
      <trkpt lat="48.730375" lon="10.036660">
        <ele>653.223069</ele>
        <time>2025-05-18T15:50:10.568Z</time>
      </trkpt>
      <trkpt lat="48.729985" lon="10.037888">
        <ele>652.787286</ele>
        <time>2025-05-18T15:50:41.600Z</time>
      </trkpt>
      <trkpt lat="48.729573" lon="10.039204">
        <ele>652.213148</ele>
        <time>2025-05-18T15:51:01.469Z</time>
      </trkpt>
      <trkpt lat="48.727662" lon="10.050678">
        <ele>648.613948</ele>
        <time>2025-05-18T15:53:46.462Z</time>
      </trkpt>
      <trkpt lat="48.727442" lon="10.051997">
        <ele>648.524598</ele>
        <time>2025-05-18T15:54:06.092Z</time>
      </trkpt>
      <trkpt lat="48.727539" lon="10.052225">
        <ele>648.523179</ele>
        <time>2025-05-18T15:54:10.109Z</time>
      </trkpt>
      <trkpt lat="48.728288" lon="10.053474">
        <ele>648.499608</ele>
        <time>2025-05-18T15:54:34.788Z</time>
      </trkpt>
      <trkpt lat="48.727101" lon="10.055049">
        <ele>648.354633</ele>
        <time>2025-05-18T15:55:06.872Z</time>
      </trkpt>
      <trkpt lat="48.726427" lon="10.055974">
        <ele>650.144693</ele>
        <time>2025-05-18T15:55:27.389Z</time>
      </trkpt>
      <trkpt lat="48.726345" lon="10.056147">
        <ele>650.436685</ele>
        <time>2025-05-18T15:55:30.718Z</time>
      </trkpt>
      <trkpt lat="48.726253" lon="10.056547">
        <ele>651.017324</ele>
        <time>2025-05-18T15:55:37.446Z</time>
      </trkpt>
      <trkpt lat="48.726202" lon="10.056769">
        <ele>651.339538</ele>
        <time>2025-05-18T15:55:41.231Z</time>
      </trkpt>
      <trkpt lat="48.725442" lon="10.059965">
        <ele>659.026785</ele>
        <time>2025-05-18T15:56:37.916Z</time>
      </trkpt>
      <trkpt lat="48.724413" lon="10.064302">
        <ele>665.852225</ele>
        <time>2025-05-18T15:57:50.198Z</time>
      </trkpt>
      <trkpt lat="48.723169" lon="10.069522">
        <ele>665.157293</ele>
        <time>2025-05-18T15:59:05.608Z</time>
      </trkpt>
      <trkpt lat="48.722755" lon="10.071269">
        <ele>662.229003</ele>
        <time>2025-05-18T15:59:26.357Z</time>
      </trkpt>
      <trkpt lat="48.722721" lon="10.071339">
        <ele>662.047408</ele>
        <time>2025-05-18T15:59:27.274Z</time>
      </trkpt>
      <trkpt lat="48.722668" lon="10.071382">
        <ele>661.857047</ele>
        <time>2025-05-18T15:59:28.250Z</time>
      </trkpt>
      <trkpt lat="48.721895" lon="10.071628">
        <ele>659.355848</ele>
        <time>2025-05-18T15:59:40.737Z</time>
      </trkpt>
      <trkpt lat="48.721178" lon="10.071970">
        <ele>657.717989</ele>
        <time>2025-05-18T15:59:52.515Z</time>
      </trkpt>
      <trkpt lat="48.720381" lon="10.072721">
        <ele>655.779118</ele>
        <time>2025-05-18T16:00:09.397Z</time>
      </trkpt>
      <trkpt lat="48.720298" lon="10.072851">
        <ele>655.532534</ele>
        <time>2025-05-18T16:00:11.947Z</time>
      </trkpt>
      <trkpt lat="48.720227" lon="10.072828">
        <ele>655.405991</ele>
        <time>2025-05-18T16:00:13.550Z</time>
      </trkpt>
      <trkpt lat="48.719994" lon="10.072849">
        <ele>655.794679</ele>
        <time>2025-05-18T16:00:18.786Z</time>
      </trkpt>
      <trkpt lat="48.719545" lon="10.072951">
        <ele>656.550725</ele>
        <time>2025-05-18T16:00:29.293Z</time>
      </trkpt>
      <trkpt lat="48.719443" lon="10.072977">
        <ele>656.722965</ele>
        <time>2025-05-18T16:00:31.756Z</time>
      </trkpt>
      <trkpt lat="48.716801" lon="10.076245">
        <ele>663.443602</ele>
        <time>2025-05-18T16:01:54.353Z</time>
      </trkpt>
      <trkpt lat="48.715532" lon="10.077810">
        <ele>665.630043</ele>
        <time>2025-05-18T16:02:49.775Z</time>
      </trkpt>
      <trkpt lat="48.715763" lon="10.078398">
        <ele>665.941562</ele>
        <time>2025-05-18T16:03:05.217Z</time>
      </trkpt>
      <trkpt lat="48.716866" lon="10.080902">
        <ele>665.996608</ele>
        <time>2025-05-18T16:04:13.651Z</time>
      </trkpt>
      <trkpt lat="48.716776" lon="10.081044">
        <ele>665.928978</ele>
        <time>2025-05-18T16:04:16.236Z</time>
      </trkpt>
      <trkpt lat="48.716683" lon="10.081276">
        <ele>665.835739</ele>
        <time>2025-05-18T16:04:19.682Z</time>
      </trkpt>
      <trkpt lat="48.716712" lon="10.081564">
        <ele>665.735675</ele>
        <time>2025-05-18T16:04:23.274Z</time>
      </trkpt>
      <trkpt lat="48.716691" lon="10.081735">
        <ele>665.675933</ele>
        <time>2025-05-18T16:04:25.348Z</time>
      </trkpt>
      <trkpt lat="48.716572" lon="10.082056">
        <ele>665.119818</ele>
        <time>2025-05-18T16:04:29.602Z</time>
      </trkpt>
      <trkpt lat="48.713293" lon="10.089385">
        <ele>645.249873</ele>
        <time>2025-05-18T16:06:02.888Z</time>
      </trkpt>
      <trkpt lat="48.713066" lon="10.089988">
        <ele>644.090276</ele>
        <time>2025-05-18T16:06:10.332Z</time>
      </trkpt>
      <trkpt lat="48.711839" lon="10.093629">
        <ele>640.259125</ele>
        <time>2025-05-18T16:07:01.433Z</time>
      </trkpt>
      <trkpt lat="48.711754" lon="10.093768">
        <ele>640.212978</ele>
        <time>2025-05-18T16:07:04.233Z</time>
      </trkpt>
      <trkpt lat="48.711559" lon="10.093988">
        <ele>640.123267</ele>
        <time>2025-05-18T16:07:09.695Z</time>
      </trkpt>
      <trkpt lat="48.711522" lon="10.094125">
        <ele>640.087221</ele>
        <time>2025-05-18T16:07:11.885Z</time>
      </trkpt>
      <trkpt lat="48.711501" lon="10.094208">
        <ele>640.065575</ele>
        <time>2025-05-18T16:07:13.204Z</time>
      </trkpt>
      <trkpt lat="48.711488" lon="10.094681">
        <ele>639.950297</ele>
        <time>2025-05-18T16:07:20.199Z</time>
      </trkpt>
      <trkpt lat="48.711452" lon="10.094823">
        <ele>639.913255</ele>
        <time>2025-05-18T16:07:22.458Z</time>
      </trkpt>
      <trkpt lat="48.709849" lon="10.100060">
        <ele>634.290985</ele>
        <time>2025-05-18T16:08:32.839Z</time>
      </trkpt>
      <trkpt lat="48.709761" lon="10.100419">
        <ele>633.749620</ele>
        <time>2025-05-18T16:08:36.888Z</time>
      </trkpt>
      <trkpt lat="48.709582" lon="10.101335">
        <ele>632.120900</ele>
        <time>2025-05-18T16:08:46.815Z</time>
      </trkpt>
      <trkpt lat="48.709492" lon="10.102106">
        <ele>630.641558</ele>
        <time>2025-05-18T16:08:54.933Z</time>
      </trkpt>
      <trkpt lat="48.709172" lon="10.106886">
        <ele>624.586243</ele>
        <time>2025-05-18T16:09:50.996Z</time>
      </trkpt>
      <trkpt lat="48.709127" lon="10.107421">
        <ele>624.492290</ele>
        <time>2025-05-18T16:09:58.492Z</time>
      </trkpt>
      <trkpt lat="48.709073" lon="10.107755">
        <ele>624.432384</ele>
        <time>2025-05-18T16:10:03.382Z</time>
      </trkpt>
      <trkpt lat="48.709168" lon="10.107772">
        <ele>624.407131</ele>
        <time>2025-05-18T16:10:05.442Z</time>
      </trkpt>
      <trkpt lat="48.709237" lon="10.107779">
        <ele>624.388875</ele>
        <time>2025-05-18T16:10:06.952Z</time>
      </trkpt>
      <trkpt lat="48.709083" lon="10.108714">
        <ele>624.288286</ele>
        <time>2025-05-18T16:10:21.079Z</time>
      </trkpt>
      <trkpt lat="48.708974" lon="10.109219">
        <ele>624.584823</ele>
        <time>2025-05-18T16:10:28.849Z</time>
      </trkpt>
      <trkpt lat="48.708743" lon="10.110043">
        <ele>625.084484</ele>
        <time>2025-05-18T16:10:41.945Z</time>
      </trkpt>
      <trkpt lat="48.707690" lon="10.113023">
        <ele>626.990963</ele>
        <time>2025-05-18T16:11:32.309Z</time>
      </trkpt>
      <trkpt lat="48.707228" lon="10.114212">
        <ele>627.297213</ele>
        <time>2025-05-18T16:11:51.925Z</time>
      </trkpt>
      <trkpt lat="48.706936" lon="10.114891">
        <ele>627.290200</ele>
        <time>2025-05-18T16:12:03.108Z</time>
      </trkpt>
      <trkpt lat="48.706401" lon="10.115913">
        <ele>627.209178</ele>
        <time>2025-05-18T16:12:20.971Z</time>
      </trkpt>
      <trkpt lat="48.705775" lon="10.116917">
        <ele>626.752703</ele>
        <time>2025-05-18T16:12:39.252Z</time>
      </trkpt>
      <trkpt lat="48.705577" lon="10.117174">
        <ele>626.622144</ele>
        <time>2025-05-18T16:12:44.403Z</time>
      </trkpt>
      <trkpt lat="48.705013" lon="10.117792">
        <ele>626.376276</ele>
        <time>2025-05-18T16:12:58.340Z</time>
      </trkpt>
      <trkpt lat="48.704658" lon="10.118249">
        <ele>626.368007</ele>
        <time>2025-05-18T16:13:07.966Z</time>
      </trkpt>
      <trkpt lat="48.704348" lon="10.118734">
        <ele>626.360097</ele>
        <time>2025-05-18T16:13:17.408Z</time>
      </trkpt>
      <trkpt lat="48.704110" lon="10.119043">
        <ele>626.354533</ele>
        <time>2025-05-18T16:13:24.123Z</time>
      </trkpt>
      <trkpt lat="48.703686" lon="10.119394">
        <ele>626.434945</ele>
        <time>2025-05-18T16:13:34.550Z</time>
      </trkpt>
      <trkpt lat="48.703181" lon="10.119885">
        <ele>626.862309</ele>
        <time>2025-05-18T16:13:47.776Z</time>
      </trkpt>
      <trkpt lat="48.702966" lon="10.120128">
        <ele>627.053350</ele>
        <time>2025-05-18T16:13:53.777Z</time>
      </trkpt>
      <trkpt lat="48.702600" lon="10.120691">
        <ele>627.424822</ele>
        <time>2025-05-18T16:14:05.578Z</time>
      </trkpt>
      <trkpt lat="48.701802" lon="10.122170">
        <ele>626.652449</ele>
        <time>2025-05-18T16:14:33.473Z</time>
      </trkpt>
      <trkpt lat="48.701075" lon="10.123887">
        <ele>623.558969</ele>
        <time>2025-05-18T16:14:55.749Z</time>
      </trkpt>
      <trkpt lat="48.701339" lon="10.124177">
        <ele>622.142078</ele>
        <time>2025-05-18T16:15:00.684Z</time>
      </trkpt>
      <trkpt lat="48.701555" lon="10.124798">
        <ele>620.129006</ele>
        <time>2025-05-18T16:15:07.625Z</time>
      </trkpt>
      <trkpt lat="48.701981" lon="10.126079">
        <ele>616.119348</ele>
        <time>2025-05-18T16:15:21.975Z</time>
      </trkpt>
      <trkpt lat="48.702599" lon="10.127809">
        <ele>610.772080</ele>
        <time>2025-05-18T16:15:42.506Z</time>
      </trkpt>
      <trkpt lat="48.702648" lon="10.128007">
        <ele>610.281002</ele>
        <time>2025-05-18T16:15:44.712Z</time>
      </trkpt>
      <trkpt lat="48.703169" lon="10.130131">
        <ele>605.397358</ele>
        <time>2025-05-18T16:16:08.596Z</time>
      </trkpt>
      <trkpt lat="48.703474" lon="10.131015">
        <ele>603.640768</ele>
        <time>2025-05-18T16:16:20.484Z</time>
      </trkpt>
      <trkpt lat="48.703752" lon="10.131716">
        <ele>602.346455</ele>
        <time>2025-05-18T16:16:30.404Z</time>
      </trkpt>
      <trkpt lat="48.703890" lon="10.132252">
        <ele>601.435907</ele>
        <time>2025-05-18T16:16:37.073Z</time>
      </trkpt>
      <trkpt lat="48.703727" lon="10.132255">
        <ele>601.044992</ele>
        <time>2025-05-18T16:16:42.044Z</time>
      </trkpt>
      <trkpt lat="48.703386" lon="10.132590">
        <ele>599.719740</ele>
        <time>2025-05-18T16:16:53.912Z</time>
      </trkpt>
      <trkpt lat="48.703115" lon="10.132915">
        <ele>598.046198</ele>
        <time>2025-05-18T16:17:03.518Z</time>
      </trkpt>
      <trkpt lat="48.702585" lon="10.133278">
        <ele>595.229776</ele>
        <time>2025-05-18T16:17:19.071Z</time>
      </trkpt>
      <trkpt lat="48.701901" lon="10.133584">
        <ele>591.776296</ele>
        <time>2025-05-18T16:17:29.780Z</time>
      </trkpt>
      <trkpt lat="48.701622" lon="10.133539">
        <ele>590.533120</ele>
        <time>2025-05-18T16:17:34.082Z</time>
      </trkpt>
      <trkpt lat="48.701065" lon="10.133363">
        <ele>588.025060</ele>
        <time>2025-05-18T16:17:42.951Z</time>
      </trkpt>
      <trkpt lat="48.701059" lon="10.133627">
        <ele>587.256574</ele>
        <time>2025-05-18T16:17:45.690Z</time>
      </trkpt>
      <trkpt lat="48.701185" lon="10.134588">
        <ele>584.406195</ele>
        <time>2025-05-18T16:17:55.807Z</time>
      </trkpt>
      <trkpt lat="48.701261" lon="10.135006">
        <ele>583.067095</ele>
        <time>2025-05-18T16:18:00.177Z</time>
      </trkpt>
      <trkpt lat="48.701477" lon="10.135870">
        <ele>580.048425</ele>
        <time>2025-05-18T16:18:09.310Z</time>
      </trkpt>
      <trkpt lat="48.701642" lon="10.136329">
        <ele>578.340721</ele>
        <time>2025-05-18T16:18:14.465Z</time>
      </trkpt>
      <trkpt lat="48.701946" lon="10.136858">
        <ele>576.048952</ele>
        <time>2025-05-18T16:18:21.431Z</time>
      </trkpt>
      <trkpt lat="48.702718" lon="10.138377">
        <ele>570.746256</ele>
        <time>2025-05-18T16:18:41.006Z</time>
      </trkpt>
      <trkpt lat="48.703000" lon="10.139035">
        <ele>568.667267</ele>
        <time>2025-05-18T16:18:49.305Z</time>
      </trkpt>
      <trkpt lat="48.703298" lon="10.139884">
        <ele>566.155858</ele>
        <time>2025-05-18T16:18:59.548Z</time>
      </trkpt>
      <trkpt lat="48.703700" lon="10.141149">
        <ele>562.524628</ele>
        <time>2025-05-18T16:19:14.219Z</time>
      </trkpt>
      <trkpt lat="48.703915" lon="10.141939">
        <ele>560.275298</ele>
        <time>2025-05-18T16:19:22.877Z</time>
      </trkpt>
      <trkpt lat="48.704029" lon="10.143012">
        <ele>557.080371</ele>
        <time>2025-05-18T16:19:33.883Z</time>
      </trkpt>
      <trkpt lat="48.704097" lon="10.145269">
        <ele>550.264451</ele>
        <time>2025-05-18T16:19:56.953Z</time>
      </trkpt>
      <trkpt lat="48.704097" lon="10.146402">
        <ele>546.664225</ele>
        <time>2025-05-18T16:20:08.369Z</time>
      </trkpt>
      <trkpt lat="48.703972" lon="10.148043">
        <ele>540.727180</ele>
        <time>2025-05-18T16:20:24.657Z</time>
      </trkpt>
      <trkpt lat="48.703938" lon="10.148444">
        <ele>539.090956</ele>
        <time>2025-05-18T16:20:28.560Z</time>
      </trkpt>
      <trkpt lat="48.703546" lon="10.149684">
        <ele>533.526486</ele>
        <time>2025-05-18T16:20:41.646Z</time>
      </trkpt>
      <trkpt lat="48.703439" lon="10.149937">
        <ele>532.373277</ele>
        <time>2025-05-18T16:20:44.508Z</time>
      </trkpt>
      <trkpt lat="48.703267" lon="10.150434">
        <ele>530.344704</ele>
        <time>2025-05-18T16:20:49.889Z</time>
      </trkpt>
      <trkpt lat="48.703023" lon="10.150981">
        <ele>527.958116</ele>
        <time>2025-05-18T16:20:56.266Z</time>
      </trkpt>
      <trkpt lat="48.702536" lon="10.151805">
        <ele>523.959698</ele>
        <time>2025-05-18T16:21:07.233Z</time>
      </trkpt>
      <trkpt lat="48.702224" lon="10.152270">
        <ele>522.070697</ele>
        <time>2025-05-18T16:21:14.172Z</time>
      </trkpt>
      <trkpt lat="48.702081" lon="10.152483">
        <ele>521.348118</ele>
        <time>2025-05-18T16:21:17.415Z</time>
      </trkpt>
      <trkpt lat="48.701665" lon="10.153252">
        <ele>518.983441</ele>
        <time>2025-05-18T16:21:28.061Z</time>
      </trkpt>
      <trkpt lat="48.701476" lon="10.153659">
        <ele>517.799924</ele>
        <time>2025-05-18T16:21:33.410Z</time>
      </trkpt>
      <trkpt lat="48.701330" lon="10.154048">
        <ele>516.735670</ele>
        <time>2025-05-18T16:21:38.195Z</time>
      </trkpt>
      <trkpt lat="48.701089" lon="10.154761">
        <ele>514.489618</ele>
        <time>2025-05-18T16:21:46.553Z</time>
      </trkpt>
      <trkpt lat="48.700898" lon="10.155490">
        <ele>512.257895</ele>
        <time>2025-05-18T16:21:54.447Z</time>
      </trkpt>
      <trkpt lat="48.700829" lon="10.155764">
        <ele>511.423445</ele>
        <time>2025-05-18T16:21:57.363Z</time>
      </trkpt>
      <trkpt lat="48.700711" lon="10.156280">
        <ele>509.869604</ele>
        <time>2025-05-18T16:22:02.864Z</time>
      </trkpt>
      <trkpt lat="48.700488" lon="10.157165">
        <ele>507.306944</ele>
        <time>2025-05-18T16:22:12.579Z</time>
      </trkpt>
      <trkpt lat="48.700254" lon="10.158129">
        <ele>504.621279</ele>
        <time>2025-05-18T16:22:23.217Z</time>
      </trkpt>
      <trkpt lat="48.700049" lon="10.159026">
        <ele>502.139229</ele>
        <time>2025-05-18T16:22:33.234Z</time>
      </trkpt>
      <trkpt lat="48.700044" lon="10.159580">
        <ele>501.015839</ele>
        <time>2025-05-18T16:22:38.990Z</time>
      </trkpt>
      <trkpt lat="48.700081" lon="10.159863">
        <ele>500.507920</ele>
        <time>2025-05-18T16:22:42.026Z</time>
      </trkpt>
      <trkpt lat="48.700262" lon="10.159858">
        <ele>500.025022</ele>
        <time>2025-05-18T16:22:44.952Z</time>
      </trkpt>
      <trkpt lat="48.700367" lon="10.160009">
        <ele>499.638859</ele>
        <time>2025-05-18T16:22:47.336Z</time>
      </trkpt>
      <trkpt lat="48.700411" lon="10.160135">
        <ele>499.387894</ele>
        <time>2025-05-18T16:22:48.900Z</time>
      </trkpt>
      <trkpt lat="48.700414" lon="10.160516">
        <ele>498.717079</ele>
        <time>2025-05-18T16:22:53.146Z</time>
      </trkpt>
      <trkpt lat="48.700426" lon="10.160633">
        <ele>498.508623</ele>
        <time>2025-05-18T16:22:54.500Z</time>
      </trkpt>
      <trkpt lat="48.700458" lon="10.160716">
        <ele>498.339393</ele>
        <time>2025-05-18T16:22:55.591Z</time>
      </trkpt>
      <trkpt lat="48.700227" lon="10.160719">
        <ele>497.723177</ele>
        <time>2025-05-18T16:22:59.631Z</time>
      </trkpt>
      <trkpt lat="48.698759" lon="10.160561">
        <ele>495.569342</ele>
        <time>2025-05-18T16:23:26.735Z</time>
      </trkpt>
      <trkpt lat="48.698615" lon="10.160531">
        <ele>495.403875</ele>
        <time>2025-05-18T16:23:29.588Z</time>
      </trkpt>
      <trkpt lat="48.698300" lon="10.160460">
        <ele>495.041344</ele>
        <time>2025-05-18T16:23:35.944Z</time>
      </trkpt>
      <trkpt lat="48.697986" lon="10.160392">
        <ele>494.803685</ele>
        <time>2025-05-18T16:23:42.456Z</time>
      </trkpt>
      <trkpt lat="48.697071" lon="10.160160">
        <ele>494.558826</ele>
        <time>2025-05-18T16:24:01.906Z</time>
      </trkpt>
      <trkpt lat="48.696802" lon="10.160151">
        <ele>494.487810</ele>
        <time>2025-05-18T16:24:07.664Z</time>
      </trkpt>
      <trkpt lat="48.696134" lon="10.159871">
        <ele>494.257525</ele>
        <time>2025-05-18T16:24:21.684Z</time>
      </trkpt>
      <trkpt lat="48.695668" lon="10.159670">
        <ele>494.030915</ele>
        <time>2025-05-18T16:24:30.923Z</time>
      </trkpt>
      <trkpt lat="48.695042" lon="10.159355">
        <ele>493.722406</ele>
        <time>2025-05-18T16:24:43.881Z</time>
      </trkpt>
      <trkpt lat="48.694969" lon="10.159319">
        <ele>493.686500</ele>
        <time>2025-05-18T16:24:45.459Z</time>
      </trkpt>
      <trkpt lat="48.694924" lon="10.159294">
        <ele>493.664083</ele>
        <time>2025-05-18T16:24:46.469Z</time>
      </trkpt>
      <trkpt lat="48.694899" lon="10.159278">
        <ele>493.651390</ele>
        <time>2025-05-18T16:24:47.028Z</time>
      </trkpt>
      <trkpt lat="48.694443" lon="10.159016">
        <ele>493.565938</ele>
        <time>2025-05-18T16:24:57.767Z</time>
      </trkpt>
      <trkpt lat="48.694127" lon="10.158920">
        <ele>493.626649</ele>
        <time>2025-05-18T16:25:04.922Z</time>
      </trkpt>
      <trkpt lat="48.693947" lon="10.158954">
        <ele>493.660819</ele>
        <time>2025-05-18T16:25:08.951Z</time>
      </trkpt>
      <trkpt lat="48.693911" lon="10.158756">
        <ele>493.686355</ele>
        <time>2025-05-18T16:25:11.955Z</time>
      </trkpt>
      <trkpt lat="48.693833" lon="10.158637">
        <ele>493.707208</ele>
        <time>2025-05-18T16:25:14.418Z</time>
      </trkpt>
      <trkpt lat="48.693720" lon="10.158573">
        <ele>493.729933</ele>
        <time>2025-05-18T16:25:17.091Z</time>
      </trkpt>
      <trkpt lat="48.693455" lon="10.158416">
        <ele>493.783533</ele>
        <time>2025-05-18T16:25:23.356Z</time>
      </trkpt>
      <trkpt lat="48.691719" lon="10.157373">
        <ele>492.731058</ele>
        <time>2025-05-18T16:26:00.096Z</time>
      </trkpt>
      <trkpt lat="48.691290" lon="10.157148">
        <ele>492.413664</ele>
        <time>2025-05-18T16:26:08.781Z</time>
      </trkpt>
      <trkpt lat="48.690385" lon="10.156614">
        <ele>492.045439</ele>
        <time>2025-05-18T16:26:28.125Z</time>
      </trkpt>
      <trkpt lat="48.689083" lon="10.155901">
        <ele>491.933906</ele>
        <time>2025-05-18T16:26:57.896Z</time>
      </trkpt>
      <trkpt lat="48.688323" lon="10.155567">
        <ele>492.134180</ele>
        <time>2025-05-18T16:27:15.087Z</time>
      </trkpt>
      <trkpt lat="48.687903" lon="10.155428">
        <ele>492.225735</ele>
        <time>2025-05-18T16:27:24.289Z</time>
      </trkpt>
      <trkpt lat="48.687741" lon="10.155374">
        <ele>492.230288</ele>
        <time>2025-05-18T16:27:27.821Z</time>
      </trkpt>
      <trkpt lat="48.687600" lon="10.155325">
        <ele>492.234258</ele>
        <time>2025-05-18T16:27:30.876Z</time>
      </trkpt>
      <trkpt lat="48.687469" lon="10.155274">
        <ele>492.237970</ele>
        <time>2025-05-18T16:27:33.720Z</time>
      </trkpt>
      <trkpt lat="48.687405" lon="10.155254">
        <ele>492.239764</ele>
        <time>2025-05-18T16:27:35.065Z</time>
      </trkpt>
      <trkpt lat="48.686397" lon="10.154984">
        <ele>492.267858</ele>
        <time>2025-05-18T16:27:56.481Z</time>
      </trkpt>
      <trkpt lat="48.685291" lon="10.154884">
        <ele>492.264862</ele>
        <time>2025-05-18T16:28:20.264Z</time>
      </trkpt>
      <trkpt lat="48.684733" lon="10.154925">
        <ele>492.259923</ele>
        <time>2025-05-18T16:28:32.051Z</time>
      </trkpt>
      <trkpt lat="48.684685" lon="10.154935">
        <ele>492.259495</ele>
        <time>2025-05-18T16:28:33.054Z</time>
      </trkpt>
      <trkpt lat="48.684597" lon="10.154953">
        <ele>492.258709</ele>
        <time>2025-05-18T16:28:34.859Z</time>
      </trkpt>
      <trkpt lat="48.684189" lon="10.155009">
        <ele>492.166670</ele>
        <time>2025-05-18T16:28:43.106Z</time>
      </trkpt>
      <trkpt lat="48.683927" lon="10.155067">
        <ele>492.061412</ele>
        <time>2025-05-18T16:28:48.447Z</time>
      </trkpt>
      <trkpt lat="48.683661" lon="10.155141">
        <ele>491.953901</ele>
        <time>2025-05-18T16:28:53.944Z</time>
      </trkpt>
      <trkpt lat="48.683168" lon="10.155345">
        <ele>491.750739</ele>
        <time>2025-05-18T16:29:04.277Z</time>
      </trkpt>
      <trkpt lat="48.682779" lon="10.155568">
        <ele>491.585396</ele>
        <time>2025-05-18T16:29:12.663Z</time>
      </trkpt>
      <trkpt lat="48.682423" lon="10.155921">
        <ele>491.523741</ele>
        <time>2025-05-18T16:29:21.459Z</time>
      </trkpt>
      <trkpt lat="48.682382" lon="10.155970">
        <ele>491.520713</ele>
        <time>2025-05-18T16:29:22.572Z</time>
      </trkpt>
      <trkpt lat="48.682240" lon="10.156142">
        <ele>491.510173</ele>
        <time>2025-05-18T16:29:26.454Z</time>
      </trkpt>
      <trkpt lat="48.681809" lon="10.156620">
        <ele>491.479207</ele>
        <time>2025-05-18T16:29:37.888Z</time>
      </trkpt>
      <trkpt lat="48.681617" lon="10.156750">
        <ele>491.467016</ele>
        <time>2025-05-18T16:29:42.332Z</time>
      </trkpt>
      <trkpt lat="48.681567" lon="10.156783">
        <ele>491.463855</ele>
        <time>2025-05-18T16:29:43.473Z</time>
      </trkpt>
      <trkpt lat="48.681056" lon="10.156968">
        <ele>491.420963</ele>
        <time>2025-05-18T16:29:54.343Z</time>
      </trkpt>
      <trkpt lat="48.680615" lon="10.157130">
        <ele>491.320807</ele>
        <time>2025-05-18T16:30:03.930Z</time>
      </trkpt>
      <trkpt lat="48.680163" lon="10.157310">
        <ele>491.217655</ele>
        <time>2025-05-18T16:30:13.771Z</time>
      </trkpt>
      <trkpt lat="48.679645" lon="10.157503">
        <ele>491.099918</ele>
        <time>2025-05-18T16:30:24.859Z</time>
      </trkpt>
      <trkpt lat="48.679106" lon="10.157696">
        <ele>490.806819</ele>
        <time>2025-05-18T16:30:35.756Z</time>
      </trkpt>
      <trkpt lat="48.678829" lon="10.157593">
        <ele>490.573605</ele>
        <time>2025-05-18T16:30:41.425Z</time>
      </trkpt>
      <trkpt lat="48.678755" lon="10.157501">
        <ele>490.495324</ele>
        <time>2025-05-18T16:30:43.334Z</time>
      </trkpt>
      <trkpt lat="48.678740" lon="10.157475">
        <ele>490.476684</ele>
        <time>2025-05-18T16:30:43.776Z</time>
      </trkpt>
      <trkpt lat="48.678708" lon="10.157388">
        <ele>490.422919</ele>
        <time>2025-05-18T16:30:45.054Z</time>
      </trkpt>
      <trkpt lat="48.678258" lon="10.157305">
        <ele>490.052261</ele>
        <time>2025-05-18T16:30:54.094Z</time>
      </trkpt>
      <trkpt lat="48.677884" lon="10.157449">
        <ele>489.736734</ele>
        <time>2025-05-18T16:31:01.512Z</time>
      </trkpt>
      <trkpt lat="48.677710" lon="10.157484">
        <ele>489.593215</ele>
        <time>2025-05-18T16:31:04.743Z</time>
      </trkpt>
      <trkpt lat="48.677521" lon="10.157425">
        <ele>489.549730</ele>
        <time>2025-05-18T16:31:08.389Z</time>
      </trkpt>
      <trkpt lat="48.677487" lon="10.157370">
        <ele>489.543552</ele>
        <time>2025-05-18T16:31:09.354Z</time>
      </trkpt>
      <trkpt lat="48.677420" lon="10.157215">
        <ele>489.528361</ele>
        <time>2025-05-18T16:31:11.742Z</time>
      </trkpt>
      <trkpt lat="48.677369" lon="10.157179">
        <ele>489.521374</ele>
        <time>2025-05-18T16:31:12.860Z</time>
      </trkpt>
      <trkpt lat="48.677323" lon="10.157160">
        <ele>489.515453</ele>
        <time>2025-05-18T16:31:13.797Z</time>
      </trkpt>
      <trkpt lat="48.677265" lon="10.157359">
        <ele>489.497616</ele>
        <time>2025-05-18T16:31:16.649Z</time>
      </trkpt>
      <trkpt lat="48.677103" lon="10.157294">
        <ele>489.476804</ele>
        <time>2025-05-18T16:31:19.984Z</time>
      </trkpt>
      <trkpt lat="48.677065" lon="10.157280">
        <ele>489.471948</ele>
        <time>2025-05-18T16:31:20.746Z</time>
      </trkpt>
      <trkpt lat="48.676907" lon="10.157185">
        <ele>489.450837</ele>
        <time>2025-05-18T16:31:24.166Z</time>
      </trkpt>
      <trkpt lat="48.676373" lon="10.156963">
        <ele>489.382070</ele>
        <time>2025-05-18T16:31:36.091Z</time>
      </trkpt>
      <trkpt lat="48.676430" lon="10.156442">
        <ele>489.429475</ele>
        <time>2025-05-18T16:31:43.881Z</time>
      </trkpt>
      <trkpt lat="48.676481" lon="10.156038">
        <ele>489.774801</ele>
        <time>2025-05-18T16:31:50.093Z</time>
      </trkpt>
      <trkpt lat="48.676512" lon="10.155799">
        <ele>489.979290</ele>
        <time>2025-05-18T16:31:53.839Z</time>
      </trkpt>
      <trkpt lat="48.676539" lon="10.155540">
        <ele>490.199430</ele>
        <time>2025-05-18T16:31:57.886Z</time>
      </trkpt>
      <trkpt lat="48.676571" lon="10.155139">
        <ele>490.538543</ele>
        <time>2025-05-18T16:32:04.086Z</time>
      </trkpt>
      <trkpt lat="48.676590" lon="10.154859">
        <ele>490.774858</ele>
        <time>2025-05-18T16:32:08.427Z</time>
      </trkpt>
      <trkpt lat="48.676636" lon="10.154468">
        <ele>491.108295</ele>
        <time>2025-05-18T16:32:14.517Z</time>
      </trkpt>
      <trkpt lat="48.676645" lon="10.154401">
        <ele>491.165698</ele>
        <time>2025-05-18T16:32:15.553Z</time>
      </trkpt>
      <trkpt lat="48.676657" lon="10.154323">
        <ele>491.232937</ele>
        <time>2025-05-18T16:32:16.764Z</time>
      </trkpt>
      <trkpt lat="48.676690" lon="10.154089">
        <ele>491.433825</ele>
        <time>2025-05-18T16:32:20.318Z</time>
      </trkpt>
      <trkpt lat="48.676698" lon="10.154052">
        <ele>491.466511</ele>
        <time>2025-05-18T16:32:20.872Z</time>
      </trkpt>
      <trkpt lat="48.676712" lon="10.153948">
        <ele>491.555621</ele>
        <time>2025-05-18T16:32:22.366Z</time>
      </trkpt>
      <trkpt lat="48.676734" lon="10.153728">
        <ele>491.632313</ele>
        <time>2025-05-18T16:32:25.479Z</time>
      </trkpt>
      <trkpt lat="48.676758" lon="10.153493">
        <ele>491.629673</ele>
        <time>2025-05-18T16:32:28.774Z</time>
      </trkpt>
      <trkpt lat="48.676773" lon="10.153346">
        <ele>491.628022</ele>
        <time>2025-05-18T16:32:30.917Z</time>
      </trkpt>
      <trkpt lat="48.676782" lon="10.153298">
        <ele>491.627468</ele>
        <time>2025-05-18T16:32:31.607Z</time>
      </trkpt>
      <trkpt lat="48.676889" lon="10.152620">
        <ele>491.619729</ele>
        <time>2025-05-18T16:32:41.225Z</time>
      </trkpt>
      <trkpt lat="48.676362" lon="10.152506">
        <ele>491.610780</ele>
        <time>2025-05-18T16:32:52.254Z</time>
      </trkpt>
      <trkpt lat="48.676290" lon="10.152490">
        <ele>491.609556</ele>
        <time>2025-05-18T16:32:53.840Z</time>
      </trkpt>
      <trkpt lat="48.676118" lon="10.152450">
        <ele>491.606631</ele>
        <time>2025-05-18T16:32:57.415Z</time>
      </trkpt>
      <trkpt lat="48.676035" lon="10.152435">
        <ele>491.605225</ele>
        <time>2025-05-18T16:32:59.141Z</time>
      </trkpt>
      <trkpt lat="48.675786" lon="10.152378">
        <ele>491.585327</ele>
        <time>2025-05-18T16:33:04.293Z</time>
      </trkpt>
      <trkpt lat="48.675659" lon="10.152345">
        <ele>491.569693</ele>
        <time>2025-05-18T16:33:06.837Z</time>
      </trkpt>
      <trkpt lat="48.675423" lon="10.152278">
        <ele>491.540560</ele>
        <time>2025-05-18T16:33:11.664Z</time>
      </trkpt>
      <trkpt lat="48.675379" lon="10.152265">
        <ele>491.535120</ele>
        <time>2025-05-18T16:33:12.629Z</time>
      </trkpt>
      <trkpt lat="48.675075" lon="10.152190">
        <ele>491.497749</ele>
        <time>2025-05-18T16:33:19.028Z</time>
      </trkpt>
      <trkpt lat="48.674913" lon="10.152145">
        <ele>491.477765</ele>
        <time>2025-05-18T16:33:22.482Z</time>
      </trkpt>
      <trkpt lat="48.674605" lon="10.152044">
        <ele>491.439528</ele>
        <time>2025-05-18T16:33:29.195Z</time>
      </trkpt>
      <trkpt lat="48.674586" lon="10.152028">
        <ele>491.436890</ele>
        <time>2025-05-18T16:33:29.660Z</time>
      </trkpt>
      <trkpt lat="48.674657" lon="10.151485">
        <ele>491.392540</ele>
        <time>2025-05-18T16:33:37.645Z</time>
      </trkpt>
      <trkpt lat="48.674637" lon="10.151296">
        <ele>491.362547</ele>
        <time>2025-05-18T16:33:40.395Z</time>
      </trkpt>
      <trkpt lat="48.674611" lon="10.151257">
        <ele>491.350044</ele>
        <time>2025-05-18T16:33:41.201Z</time>
      </trkpt>
      <trkpt lat="48.674544" lon="10.151225">
        <ele>491.326042</ele>
        <time>2025-05-18T16:33:42.657Z</time>
      </trkpt>
      <trkpt lat="48.674522" lon="10.151214">
        <ele>491.318126</ele>
        <time>2025-05-18T16:33:43.143Z</time>
      </trkpt>
      <trkpt lat="48.674450" lon="10.151191">
        <ele>491.292986</ele>
        <time>2025-05-18T16:33:44.727Z</time>
      </trkpt>
      <trkpt lat="48.673485" lon="10.150990">
        <ele>490.960185</ele>
        <time>2025-05-18T16:34:05.530Z</time>
      </trkpt>
      <trkpt lat="48.673037" lon="10.150896">
        <ele>490.805662</ele>
        <time>2025-05-18T16:34:14.441Z</time>
      </trkpt>
      <trkpt lat="48.672923" lon="10.150868">
        <ele>490.749304</ele>
        <time>2025-05-18T16:34:16.626Z</time>
      </trkpt>
      <trkpt lat="48.672656" lon="10.150806">
        <ele>490.314756</ele>
        <time>2025-05-18T16:34:21.594Z</time>
      </trkpt>
      <trkpt lat="48.671629" lon="10.150565">
        <ele>488.642881</ele>
        <time>2025-05-18T16:34:39.619Z</time>
      </trkpt>
      <trkpt lat="48.671469" lon="10.150527">
        <ele>488.382340</ele>
        <time>2025-05-18T16:34:42.662Z</time>
      </trkpt>
      <trkpt lat="48.671275" lon="10.150473">
        <ele>488.065019</ele>
        <time>2025-05-18T16:34:46.432Z</time>
      </trkpt>
      <trkpt lat="48.671237" lon="10.150463">
        <ele>488.002972</ele>
        <time>2025-05-18T16:34:47.153Z</time>
      </trkpt>
      <trkpt lat="48.671153" lon="10.150441">
        <ele>487.880605</ele>
        <time>2025-05-18T16:34:48.847Z</time>
      </trkpt>
      <trkpt lat="48.670716" lon="10.150325">
        <ele>488.090383</ele>
        <time>2025-05-18T16:34:58.163Z</time>
      </trkpt>
      <trkpt lat="48.670036" lon="10.150178">
        <ele>488.415169</ele>
        <time>2025-05-18T16:35:13.817Z</time>
      </trkpt>
      <trkpt lat="48.669946" lon="10.150152">
        <ele>488.458492</ele>
        <time>2025-05-18T16:35:16.004Z</time>
      </trkpt>
      <trkpt lat="48.669678" lon="10.150085">
        <ele>488.586926</ele>
        <time>2025-05-18T16:35:22.407Z</time>
      </trkpt>
      <trkpt lat="48.669634" lon="10.150073">
        <ele>488.608066</ele>
        <time>2025-05-18T16:35:23.474Z</time>
      </trkpt>
      <trkpt lat="48.669046" lon="10.149920">
        <ele>489.097911</ele>
        <time>2025-05-18T16:35:37.617Z</time>
      </trkpt>
      <trkpt lat="48.667808" lon="10.149596">
        <ele>490.451590</ele>
        <time>2025-05-18T16:36:07.193Z</time>
      </trkpt>
      <trkpt lat="48.667427" lon="10.149645">
        <ele>490.420430</ele>
        <time>2025-05-18T16:36:15.592Z</time>
      </trkpt>
      <trkpt lat="48.667115" lon="10.149840">
        <ele>489.969734</ele>
        <time>2025-05-18T16:36:22.451Z</time>
      </trkpt>
      <trkpt lat="48.666761" lon="10.150322">
        <ele>489.334047</ele>
        <time>2025-05-18T16:36:31.672Z</time>
      </trkpt>
      <trkpt lat="48.666450" lon="10.150842">
        <ele>488.715397</ele>
        <time>2025-05-18T16:36:40.109Z</time>
      </trkpt>
      <trkpt lat="48.665809" lon="10.151877">
        <ele>487.452547</ele>
        <time>2025-05-18T16:36:56.353Z</time>
      </trkpt>
      <trkpt lat="48.665507" lon="10.152258">
        <ele>486.920057</ele>
        <time>2025-05-18T16:37:03.876Z</time>
      </trkpt>
      <trkpt lat="48.665167" lon="10.152642">
        <ele>486.345471</ele>
        <time>2025-05-18T16:37:12.185Z</time>
      </trkpt>
      <trkpt lat="48.664755" lon="10.153040">
        <ele>485.736571</ele>
        <time>2025-05-18T16:37:21.815Z</time>
      </trkpt>
      <trkpt lat="48.664305" lon="10.153414">
        <ele>485.297501</ele>
        <time>2025-05-18T16:37:32.087Z</time>
      </trkpt>
      <trkpt lat="48.663642" lon="10.154012">
        <ele>484.637423</ele>
        <time>2025-05-18T16:37:46.882Z</time>
      </trkpt>
      <trkpt lat="48.663412" lon="10.154220">
        <ele>484.408278</ele>
        <time>2025-05-18T16:37:52.172Z</time>
      </trkpt>
      <trkpt lat="48.663369" lon="10.154259">
        <ele>484.365405</ele>
        <time>2025-05-18T16:37:53.141Z</time>
      </trkpt>
      <trkpt lat="48.663146" lon="10.154467">
        <ele>484.238634</ele>
        <time>2025-05-18T16:37:58.351Z</time>
      </trkpt>
      <trkpt lat="48.663085" lon="10.154524">
        <ele>484.217677</ele>
        <time>2025-05-18T16:37:59.768Z</time>
      </trkpt>
      <trkpt lat="48.663037" lon="10.154571">
        <ele>484.200964</ele>
        <time>2025-05-18T16:38:00.921Z</time>
      </trkpt>
      <trkpt lat="48.662770" lon="10.154832">
        <ele>484.108046</ele>
        <time>2025-05-18T16:38:07.280Z</time>
      </trkpt>
      <trkpt lat="48.662160" lon="10.155399">
        <ele>483.898776</ele>
        <time>2025-05-18T16:38:21.906Z</time>
      </trkpt>
      <trkpt lat="48.661714" lon="10.155814">
        <ele>483.775951</ele>
        <time>2025-05-18T16:38:33.178Z</time>
      </trkpt>
      <trkpt lat="48.661632" lon="10.155882">
        <ele>483.795669</ele>
        <time>2025-05-18T16:38:35.222Z</time>
      </trkpt>
      <trkpt lat="48.661583" lon="10.155916">
        <ele>483.807037</ele>
        <time>2025-05-18T16:38:36.407Z</time>
      </trkpt>
      <trkpt lat="48.661376" lon="10.155562">
        <ele>483.872900</ele>
        <time>2025-05-18T16:38:45.096Z</time>
      </trkpt>
      <trkpt lat="48.660516" lon="10.155913">
        <ele>484.060754</ele>
        <time>2025-05-18T16:39:04.362Z</time>
      </trkpt>
      <trkpt lat="48.659816" lon="10.156198">
        <ele>484.043287</ele>
        <time>2025-05-18T16:39:19.691Z</time>
      </trkpt>
      <trkpt lat="48.659284" lon="10.156264">
        <ele>483.885783</ele>
        <time>2025-05-18T16:39:30.494Z</time>
      </trkpt>
      <trkpt lat="48.659248" lon="10.156281">
        <ele>483.874655</ele>
        <time>2025-05-18T16:39:31.295Z</time>
      </trkpt>
      <trkpt lat="48.659182" lon="10.156331">
        <ele>483.852878</ele>
        <time>2025-05-18T16:39:32.787Z</time>
      </trkpt>
      <trkpt lat="48.659149" lon="10.156357">
        <ele>483.841901</ele>
        <time>2025-05-18T16:39:33.551Z</time>
      </trkpt>
      <trkpt lat="48.658737" lon="10.156728">
        <ele>483.700452</ele>
        <time>2025-05-18T16:39:43.423Z</time>
      </trkpt>
      <trkpt lat="48.658619" lon="10.156526">
        <ele>483.647893</ele>
        <time>2025-05-18T16:39:47.082Z</time>
      </trkpt>
      <trkpt lat="48.658556" lon="10.156394">
        <ele>483.616153</ele>
        <time>2025-05-18T16:39:49.248Z</time>
      </trkpt>
      <trkpt lat="48.658549" lon="10.156346">
        <ele>483.610948</ele>
        <time>2025-05-18T16:39:49.936Z</time>
      </trkpt>
      <trkpt lat="48.658373" lon="10.156676">
        <ele>483.596173</ele>
        <time>2025-05-18T16:39:55.541Z</time>
      </trkpt>
      <trkpt lat="48.658287" lon="10.156766">
        <ele>483.590659</ele>
        <time>2025-05-18T16:39:57.606Z</time>
      </trkpt>
      <trkpt lat="48.658112" lon="10.156870">
        <ele>483.580744</ele>
        <time>2025-05-18T16:40:01.337Z</time>
      </trkpt>
      <trkpt lat="48.657982" lon="10.156895">
        <ele>483.573833</ele>
        <time>2025-05-18T16:40:03.981Z</time>
      </trkpt>
      <trkpt lat="48.657829" lon="10.156914">
        <ele>483.565737</ele>
        <time>2025-05-18T16:40:07.117Z</time>
      </trkpt>
      <trkpt lat="48.657529" lon="10.156842">
        <ele>483.549718</ele>
        <time>2025-05-18T16:40:13.349Z</time>
      </trkpt>
      <trkpt lat="48.657477" lon="10.156811">
        <ele>483.546771</ele>
        <time>2025-05-18T16:40:14.523Z</time>
      </trkpt>
      <trkpt lat="48.657402" lon="10.156766">
        <ele>483.542516</ele>
        <time>2025-05-18T16:40:16.183Z</time>
      </trkpt>
      <trkpt lat="48.657342" lon="10.156730">
        <ele>483.539112</ele>
        <time>2025-05-18T16:40:17.537Z</time>
      </trkpt>
      <trkpt lat="48.657232" lon="10.156663">
        <ele>483.532859</ele>
        <time>2025-05-18T16:40:20.002Z</time>
      </trkpt>
      <trkpt lat="48.656808" lon="10.156124">
        <ele>484.128163</ele>
        <time>2025-05-18T16:40:32.221Z</time>
      </trkpt>
      <trkpt lat="48.656771" lon="10.156149">
        <ele>484.225738</ele>
        <time>2025-05-18T16:40:33.185Z</time>
      </trkpt>
      <trkpt lat="48.656638" lon="10.155911">
        <ele>484.721643</ele>
        <time>2025-05-18T16:40:38.032Z</time>
      </trkpt>
      <trkpt lat="48.656219" lon="10.155451">
        <ele>485.968073</ele>
        <time>2025-05-18T16:40:50.490Z</time>
      </trkpt>
      <trkpt lat="48.656380" lon="10.154825">
        <ele>487.036711</ele>
        <time>2025-05-18T16:41:01.367Z</time>
      </trkpt>
      <trkpt lat="48.656080" lon="10.154641">
        <ele>487.816204</ele>
        <time>2025-05-18T16:41:09.406Z</time>
      </trkpt>
      <trkpt lat="48.655685" lon="10.154493">
        <ele>488.269338</ele>
        <time>2025-05-18T16:41:19.330Z</time>
      </trkpt>
      <trkpt lat="48.655562" lon="10.154433">
        <ele>488.407546</ele>
        <time>2025-05-18T16:41:22.384Z</time>
      </trkpt>
      <trkpt lat="48.655464" lon="10.154350">
        <ele>488.527644</ele>
        <time>2025-05-18T16:41:24.980Z</time>
      </trkpt>
      <trkpt lat="48.655356" lon="10.154259">
        <ele>488.659836</ele>
        <time>2025-05-18T16:41:27.791Z</time>
      </trkpt>
      <trkpt lat="48.654983" lon="10.154135">
        <ele>489.068261</ele>
        <time>2025-05-18T16:41:36.168Z</time>
      </trkpt>
      <trkpt lat="48.654412" lon="10.154150">
        <ele>489.679030</ele>
        <time>2025-05-18T16:41:48.236Z</time>
      </trkpt>
      <trkpt lat="48.654358" lon="10.154151">
        <ele>489.736787</ele>
        <time>2025-05-18T16:41:49.350Z</time>
      </trkpt>
      <trkpt lat="48.653938" lon="10.154162">
        <ele>489.533340</ele>
        <time>2025-05-18T16:41:57.314Z</time>
      </trkpt>
      <trkpt lat="48.653679" lon="10.154239">
        <ele>489.370514</ele>
        <time>2025-05-18T16:42:02.073Z</time>
      </trkpt>
      <trkpt lat="48.653179" lon="10.154514">
        <ele>489.042341</ele>
        <time>2025-05-18T16:42:12.647Z</time>
      </trkpt>
      <trkpt lat="48.652890" lon="10.154487">
        <ele>488.863722</ele>
        <time>2025-05-18T16:42:19.254Z</time>
      </trkpt>
      <trkpt lat="48.652620" lon="10.154412">
        <ele>488.694381</ele>
        <time>2025-05-18T16:42:25.136Z</time>
      </trkpt>
      <trkpt lat="48.652524" lon="10.154394">
        <ele>488.602024</ele>
        <time>2025-05-18T16:42:27.026Z</time>
      </trkpt>
      <trkpt lat="48.652447" lon="10.154397">
        <ele>488.498713</ele>
        <time>2025-05-18T16:42:28.418Z</time>
      </trkpt>
      <trkpt lat="48.652284" lon="10.154404">
        <ele>488.280002</ele>
        <time>2025-05-18T16:42:31.404Z</time>
      </trkpt>
      <trkpt lat="48.652025" lon="10.154486">
        <ele>487.925101</ele>
        <time>2025-05-18T16:42:36.131Z</time>
      </trkpt>
      <trkpt lat="48.651843" lon="10.154655">
        <ele>487.638722</ele>
        <time>2025-05-18T16:42:39.790Z</time>
      </trkpt>
      <trkpt lat="48.651735" lon="10.154830">
        <ele>487.426525</ele>
        <time>2025-05-18T16:42:42.664Z</time>
      </trkpt>
      <trkpt lat="48.651725" lon="10.154853">
        <ele>487.402128</ele>
        <time>2025-05-18T16:42:43.001Z</time>
      </trkpt>
      <trkpt lat="48.651549" lon="10.155092">
        <ele>487.084997</ele>
        <time>2025-05-18T16:42:47.322Z</time>
      </trkpt>
      <trkpt lat="48.651522" lon="10.155135">
        <ele>487.032431</ele>
        <time>2025-05-18T16:42:48.046Z</time>
      </trkpt>
      <trkpt lat="48.651324" lon="10.155397">
        <ele>486.679697</ele>
        <time>2025-05-18T16:42:53.120Z</time>
      </trkpt>
      <trkpt lat="48.651048" lon="10.155516">
        <ele>486.294787</ele>
        <time>2025-05-18T16:42:57.812Z</time>
      </trkpt>
      <trkpt lat="48.649687" lon="10.155446">
        <ele>485.732507</ele>
        <time>2025-05-18T16:43:25.882Z</time>
      </trkpt>
      <trkpt lat="48.649131" lon="10.155474">
        <ele>485.475036</ele>
        <time>2025-05-18T16:43:38.178Z</time>
      </trkpt>
      <trkpt lat="48.646762" lon="10.156261">
        <ele>483.403798</ele>
        <time>2025-05-18T16:44:24.721Z</time>
      </trkpt>
      <trkpt lat="48.646605" lon="10.156273">
        <ele>483.272722</ele>
        <time>2025-05-18T16:44:27.830Z</time>
      </trkpt>
      <trkpt lat="48.645842" lon="10.156170">
        <ele>482.633996</ele>
        <time>2025-05-18T16:44:43.272Z</time>
      </trkpt>
      <trkpt lat="48.645724" lon="10.156154">
        <ele>482.535212</ele>
        <time>2025-05-18T16:44:45.641Z</time>
      </trkpt>
      <trkpt lat="48.644846" lon="10.156050">
        <ele>481.712724</ele>
        <time>2025-05-18T16:45:02.759Z</time>
      </trkpt>
      <trkpt lat="48.644313" lon="10.155979">
        <ele>481.210201</ele>
        <time>2025-05-18T16:45:13.428Z</time>
      </trkpt>
      <trkpt lat="48.643513" lon="10.155803">
        <ele>480.522269</ele>
        <time>2025-05-18T16:45:28.297Z</time>
      </trkpt>
      <trkpt lat="48.643482" lon="10.155758">
        <ele>480.489958</ele>
        <time>2025-05-18T16:45:29.145Z</time>
      </trkpt>
      <trkpt lat="48.642657" lon="10.155409">
        <ele>479.845581</ele>
        <time>2025-05-18T16:45:46.690Z</time>
      </trkpt>
      <trkpt lat="48.642616" lon="10.155488">
        <ele>479.795650</ele>
        <time>2025-05-18T16:45:48.061Z</time>
      </trkpt>
      <trkpt lat="48.642606" lon="10.155554">
        <ele>479.761994</ele>
        <time>2025-05-18T16:45:48.882Z</time>
      </trkpt>
      <trkpt lat="48.642110" lon="10.155249">
        <ele>479.332075</ele>
        <time>2025-05-18T16:45:59.220Z</time>
      </trkpt>
      <trkpt lat="48.641926" lon="10.155193">
        <ele>479.151296</ele>
        <time>2025-05-18T16:46:02.939Z</time>
      </trkpt>
      <trkpt lat="48.641914" lon="10.155390">
        <ele>479.025384</ele>
        <time>2025-05-18T16:46:05.548Z</time>
      </trkpt>
      <trkpt lat="48.641956" lon="10.155676">
        <ele>478.838918</ele>
        <time>2025-05-18T16:46:09.482Z</time>
      </trkpt>
      <trkpt lat="48.642050" lon="10.155951">
        <ele>478.641861</ele>
        <time>2025-05-18T16:46:13.746Z</time>
      </trkpt>
      <trkpt lat="48.642121" lon="10.156155">
        <ele>478.495116</ele>
        <time>2025-05-18T16:46:16.776Z</time>
      </trkpt>
      <trkpt lat="48.642106" lon="10.156450">
        <ele>478.306809</ele>
        <time>2025-05-18T16:46:20.484Z</time>
      </trkpt>
      <trkpt lat="48.642093" lon="10.156691">
        <ele>478.152914</ele>
        <time>2025-05-18T16:46:25.611Z</time>
      </trkpt>
      <trkpt lat="48.642056" lon="10.156783">
        <ele>478.084368</ele>
        <time>2025-05-18T16:46:27.882Z</time>
      </trkpt>
      <trkpt lat="48.641899" lon="10.156927">
        <ele>477.907540</ele>
        <time>2025-05-18T16:46:33.745Z</time>
      </trkpt>
      <trkpt lat="48.641838" lon="10.157020">
        <ele>477.824139</ele>
        <time>2025-05-18T16:46:36.603Z</time>
      </trkpt>
      <trkpt lat="48.641790" lon="10.157183">
        <ele>477.714833</ele>
        <time>2025-05-18T16:46:40.421Z</time>
      </trkpt>
      <trkpt lat="48.641772" lon="10.157281">
        <ele>477.671058</ele>
        <time>2025-05-18T16:46:42.628Z</time>
      </trkpt>
      <trkpt lat="48.641750" lon="10.157394">
        <ele>477.620359</ele>
        <time>2025-05-18T16:46:45.168Z</time>
      </trkpt>
      <trkpt lat="48.641725" lon="10.157669">
        <ele>477.500893</ele>
        <time>2025-05-18T16:46:51.265Z</time>
      </trkpt>
      <trkpt lat="48.641675" lon="10.157759">
        <ele>477.450289</ele>
        <time>2025-05-18T16:46:52.764Z</time>
      </trkpt>
      <trkpt lat="48.641603" lon="10.158134">
        <ele>477.282226</ele>
        <time>2025-05-18T16:46:57.822Z</time>
      </trkpt>
      <trkpt lat="48.641633" lon="10.159022">
        <ele>476.899559</ele>
        <time>2025-05-18T16:47:09.563Z</time>
      </trkpt>
      <trkpt lat="48.641836" lon="10.162214">
        <ele>476.620163</ele>
        <time>2025-05-18T16:47:54.490Z</time>
      </trkpt>
      <trkpt lat="48.641839" lon="10.162385">
        <ele>476.625003</ele>
        <time>2025-05-18T16:47:56.901Z</time>
      </trkpt>
      <trkpt lat="48.641807" lon="10.162554">
        <ele>476.625995</ele>
        <time>2025-05-18T16:47:59.390Z</time>
      </trkpt>
      <trkpt lat="48.641730" lon="10.162616">
        <ele>476.608348</ele>
        <time>2025-05-18T16:48:01.247Z</time>
      </trkpt>
      <trkpt lat="48.640685" lon="10.162564">
        <ele>476.396809</ele>
        <time>2025-05-18T16:48:23.138Z</time>
      </trkpt>
      <trkpt lat="48.640618" lon="10.162558">
        <ele>476.383229</ele>
        <time>2025-05-18T16:48:24.530Z</time>
      </trkpt>
      <trkpt lat="48.638805" lon="10.162420">
        <ele>475.749893</ele>
        <time>2025-05-18T16:49:01.113Z</time>
      </trkpt>
      <trkpt lat="48.637088" lon="10.162152">
        <ele>475.275448</ele>
        <time>2025-05-18T16:49:36.795Z</time>
      </trkpt>
      <trkpt lat="48.635885" lon="10.162006">
        <ele>475.032535</ele>
        <time>2025-05-18T16:50:01.768Z</time>
      </trkpt>
      <trkpt lat="48.634824" lon="10.161818">
        <ele>474.821974</ele>
        <time>2025-05-18T16:50:23.977Z</time>
      </trkpt>
      <trkpt lat="48.634198" lon="10.161655">
        <ele>474.737145</ele>
        <time>2025-05-18T16:50:36.948Z</time>
      </trkpt>
      <trkpt lat="48.633812" lon="10.161445">
        <ele>474.691284</ele>
        <time>2025-05-18T16:50:45.472Z</time>
      </trkpt>
      <trkpt lat="48.633648" lon="10.161252">
        <ele>474.668056</ele>
        <time>2025-05-18T16:50:49.797Z</time>
      </trkpt>
      <trkpt lat="48.633634" lon="10.161285">
        <ele>474.665158</ele>
        <time>2025-05-18T16:50:50.332Z</time>
      </trkpt>
      <trkpt lat="48.633601" lon="10.161363">
        <ele>474.658315</ele>
        <time>2025-05-18T16:50:51.602Z</time>
      </trkpt>
      <trkpt lat="48.633545" lon="10.161408">
        <ele>474.651226</ele>
        <time>2025-05-18T16:50:52.946Z</time>
      </trkpt>
      <trkpt lat="48.633524" lon="10.161424">
        <ele>474.648598</ele>
        <time>2025-05-18T16:50:53.451Z</time>
      </trkpt>
      <trkpt lat="48.633460" lon="10.161437">
        <ele>474.641378</ele>
        <time>2025-05-18T16:50:54.797Z</time>
      </trkpt>
      <trkpt lat="48.633323" lon="10.161462">
        <ele>474.625950</ele>
        <time>2025-05-18T16:50:57.728Z</time>
      </trkpt>
      <trkpt lat="48.633234" lon="10.161479">
        <ele>474.615921</ele>
        <time>2025-05-18T16:50:59.660Z</time>
      </trkpt>
      <trkpt lat="48.632978" lon="10.161521">
        <ele>474.592048</ele>
        <time>2025-05-18T16:51:05.088Z</time>
      </trkpt>
      <trkpt lat="48.632932" lon="10.161529">
        <ele>474.600747</ele>
        <time>2025-05-18T16:51:06.064Z</time>
      </trkpt>
      <trkpt lat="48.632715" lon="10.161566">
        <ele>474.641772</ele>
        <time>2025-05-18T16:51:10.636Z</time>
      </trkpt>
      <trkpt lat="48.632606" lon="10.161584">
        <ele>474.662372</ele>
        <time>2025-05-18T16:51:12.953Z</time>
      </trkpt>
      <trkpt lat="48.632546" lon="10.161598">
        <ele>474.673777</ele>
        <time>2025-05-18T16:51:14.249Z</time>
      </trkpt>
      <trkpt lat="48.632265" lon="10.161657">
        <ele>474.727074</ele>
        <time>2025-05-18T16:51:20.469Z</time>
      </trkpt>
      <trkpt lat="48.632250" lon="10.161665">
        <ele>474.730062</ele>
        <time>2025-05-18T16:51:20.818Z</time>
      </trkpt>
      <trkpt lat="48.631726" lon="10.161803">
        <ele>474.829985</ele>
        <time>2025-05-18T16:51:32.166Z</time>
      </trkpt>
      <trkpt lat="48.631673" lon="10.161812">
        <ele>474.840004</ele>
        <time>2025-05-18T16:51:33.299Z</time>
      </trkpt>
      <trkpt lat="48.631543" lon="10.161836">
        <ele>474.864609</ele>
        <time>2025-05-18T16:51:36.103Z</time>
      </trkpt>
      <trkpt lat="48.631337" lon="10.161864">
        <ele>474.903465</ele>
        <time>2025-05-18T16:51:40.556Z</time>
      </trkpt>
      <trkpt lat="48.631150" lon="10.161878">
        <ele>474.955018</ele>
        <time>2025-05-18T16:51:44.571Z</time>
      </trkpt>
      <trkpt lat="48.631102" lon="10.161882">
        <ele>474.976621</ele>
        <time>2025-05-18T16:51:45.574Z</time>
      </trkpt>
      <trkpt lat="48.630859" lon="10.161904">
        <ele>475.086017</ele>
        <time>2025-05-18T16:51:50.852Z</time>
      </trkpt>
      <trkpt lat="48.630819" lon="10.162256">
        <ele>475.192096</ele>
        <time>2025-05-18T16:51:55.989Z</time>
      </trkpt>
      <trkpt lat="48.630809" lon="10.162606">
        <ele>475.296144</ele>
        <time>2025-05-18T16:52:01.107Z</time>
      </trkpt>
      <trkpt lat="48.630808" lon="10.162655">
        <ele>475.310704</ele>
        <time>2025-05-18T16:52:01.830Z</time>
      </trkpt>
      <trkpt lat="48.630783" lon="10.163684">
        <ele>475.616527</ele>
        <time>2025-05-18T16:52:16.820Z</time>
      </trkpt>
      <trkpt lat="48.630749" lon="10.164098">
        <ele>475.738046</ele>
        <time>2025-05-18T16:52:22.878Z</time>
      </trkpt>
      <trkpt lat="48.630691" lon="10.164294">
        <ele>475.772966</ele>
        <time>2025-05-18T16:52:25.989Z</time>
      </trkpt>
      <trkpt lat="48.630551" lon="10.164554">
        <ele>475.827500</ele>
        <time>2025-05-18T16:52:30.838Z</time>
      </trkpt>
      <trkpt lat="48.630401" lon="10.164707">
        <ele>475.872008</ele>
        <time>2025-05-18T16:52:34.772Z</time>
      </trkpt>
      <trkpt lat="48.630308" lon="10.164758">
        <ele>475.896346</ele>
        <time>2025-05-18T16:52:36.925Z</time>
      </trkpt>
      <trkpt lat="48.630117" lon="10.164784">
        <ele>475.943529</ele>
        <time>2025-05-18T16:52:41.067Z</time>
      </trkpt>
      <trkpt lat="48.629353" lon="10.165014">
        <ele>476.135186</ele>
        <time>2025-05-18T16:52:57.784Z</time>
      </trkpt>
      <trkpt lat="48.628599" lon="10.165374">
        <ele>475.984515</ele>
        <time>2025-05-18T16:53:14.159Z</time>
      </trkpt>
      <trkpt lat="48.627545" lon="10.166166">
        <ele>475.616589</ele>
        <time>2025-05-18T16:53:37.957Z</time>
      </trkpt>
      <trkpt lat="48.627393" lon="10.166306">
        <ele>475.654700</ele>
        <time>2025-05-18T16:53:41.574Z</time>
      </trkpt>
      <trkpt lat="48.627223" lon="10.166532">
        <ele>475.705854</ele>
        <time>2025-05-18T16:53:46.260Z</time>
      </trkpt>
      <trkpt lat="48.627075" lon="10.166661">
        <ele>475.744463</ele>
        <time>2025-05-18T16:53:49.793Z</time>
      </trkpt>
      <trkpt lat="48.626947" lon="10.166461">
        <ele>475.786056</ele>
        <time>2025-05-18T16:53:53.633Z</time>
      </trkpt>
      <trkpt lat="48.626844" lon="10.166290">
        <ele>475.820622</ele>
        <time>2025-05-18T16:53:56.811Z</time>
      </trkpt>
      <trkpt lat="48.626362" lon="10.166822">
        <ele>475.955486</ele>
        <time>2025-05-18T16:54:09.549Z</time>
      </trkpt>
      <trkpt lat="48.625930" lon="10.167284">
        <ele>476.222587</ele>
        <time>2025-05-18T16:54:21.624Z</time>
      </trkpt>
      <trkpt lat="48.625828" lon="10.167384">
        <ele>476.326334</ele>
        <time>2025-05-18T16:54:24.438Z</time>
      </trkpt>
      <trkpt lat="48.625752" lon="10.167458">
        <ele>476.403480</ele>
        <time>2025-05-18T16:54:26.534Z</time>
      </trkpt>
      <trkpt lat="48.625116" lon="10.168075">
        <ele>477.048377</ele>
        <time>2025-05-18T16:54:43.821Z</time>
      </trkpt>
      <trkpt lat="48.625073" lon="10.168028">
        <ele>477.093658</ele>
        <time>2025-05-18T16:54:45.007Z</time>
      </trkpt>
      <trkpt lat="48.625020" lon="10.168046">
        <ele>477.140023</ele>
        <time>2025-05-18T16:54:46.221Z</time>
      </trkpt>
      <trkpt lat="48.624997" lon="10.168100">
        <ele>477.176268</ele>
        <time>2025-05-18T16:54:47.148Z</time>
      </trkpt>
      <trkpt lat="48.625001" lon="10.168165">
        <ele>477.213099</ele>
        <time>2025-05-18T16:54:48.060Z</time>
      </trkpt>
      <trkpt lat="48.624930" lon="10.168234">
        <ele>477.285130</ele>
        <time>2025-05-18T16:54:49.923Z</time>
      </trkpt>
      <trkpt lat="48.624766" lon="10.168384">
        <ele>477.448710</ele>
        <time>2025-05-18T16:54:54.027Z</time>
      </trkpt>
      <trkpt lat="48.624414" lon="10.168823">
        <ele>476.772561</ele>
        <time>2025-05-18T16:55:03.526Z</time>
      </trkpt>
      <trkpt lat="48.624307" lon="10.169036">
        <ele>476.350905</ele>
        <time>2025-05-18T16:55:07.111Z</time>
      </trkpt>
      <trkpt lat="48.624140" lon="10.169498">
        <ele>475.520980</ele>
        <time>2025-05-18T16:55:13.285Z</time>
      </trkpt>
      <trkpt lat="48.624066" lon="10.169821">
        <ele>474.982187</ele>
        <time>2025-05-18T16:55:16.857Z</time>
      </trkpt>
      <trkpt lat="48.623669" lon="10.169750">
        <ele>474.028976</ele>
        <time>2025-05-18T16:55:22.958Z</time>
      </trkpt>
      <trkpt lat="48.623646" lon="10.169749">
        <ele>473.974111</ele>
        <time>2025-05-18T16:55:23.323Z</time>
      </trkpt>
      <trkpt lat="48.623502" lon="10.169752">
        <ele>473.630720</ele>
        <time>2025-05-18T16:55:25.586Z</time>
      </trkpt>
      <trkpt lat="48.623097" lon="10.169895">
        <ele>472.661367</ele>
        <time>2025-05-18T16:55:32.351Z</time>
      </trkpt>
      <trkpt lat="48.623038" lon="10.169914">
        <ele>472.522628</ele>
        <time>2025-05-18T16:55:33.359Z</time>
      </trkpt>
      <trkpt lat="48.622862" lon="10.169968">
        <ele>472.109593</ele>
        <time>2025-05-18T16:55:36.333Z</time>
      </trkpt>
      <trkpt lat="48.622796" lon="10.169992">
        <ele>471.953471</ele>
        <time>2025-05-18T16:55:37.452Z</time>
      </trkpt>
      <trkpt lat="48.622616" lon="10.170050">
        <ele>471.530190</ele>
        <time>2025-05-18T16:55:40.434Z</time>
      </trkpt>
      <trkpt lat="48.622358" lon="10.170135">
        <ele>470.922890</ele>
        <time>2025-05-18T16:55:44.663Z</time>
      </trkpt>
      <trkpt lat="48.621955" lon="10.170267">
        <ele>469.974527</ele>
        <time>2025-05-18T16:55:51.852Z</time>
      </trkpt>
      <trkpt lat="48.621927" lon="10.170276">
        <ele>469.908690</ele>
        <time>2025-05-18T16:55:52.403Z</time>
      </trkpt>
      <trkpt lat="48.621687" lon="10.170354">
        <ele>469.344103</ele>
        <time>2025-05-18T16:55:57.586Z</time>
      </trkpt>
      <trkpt lat="48.621598" lon="10.170385">
        <ele>469.134050</ele>
        <time>2025-05-18T16:55:59.619Z</time>
      </trkpt>
      <trkpt lat="48.621459" lon="10.170426">
        <ele>469.163754</ele>
        <time>2025-05-18T16:56:02.722Z</time>
      </trkpt>
      <trkpt lat="48.621424" lon="10.170437">
        <ele>469.171920</ele>
        <time>2025-05-18T16:56:03.495Z</time>
      </trkpt>
      <trkpt lat="48.621254" lon="10.170488">
        <ele>469.211510</ele>
        <time>2025-05-18T16:56:07.135Z</time>
      </trkpt>
      <trkpt lat="48.621020" lon="10.170559">
        <ele>469.266028</ele>
        <time>2025-05-18T16:56:12.111Z</time>
      </trkpt>
      <trkpt lat="48.620995" lon="10.170566">
        <ele>469.271835</ele>
        <time>2025-05-18T16:56:12.645Z</time>
      </trkpt>
      <trkpt lat="48.620802" lon="10.170625">
        <ele>469.316814</ele>
        <time>2025-05-18T16:56:16.874Z</time>
      </trkpt>
      <trkpt lat="48.620686" lon="10.170660">
        <ele>469.343834</ele>
        <time>2025-05-18T16:56:19.417Z</time>
      </trkpt>
      <trkpt lat="48.620593" lon="10.170696">
        <ele>469.365763</ele>
        <time>2025-05-18T16:56:21.507Z</time>
      </trkpt>
      <trkpt lat="48.620553" lon="10.170713">
        <ele>469.375254</ele>
        <time>2025-05-18T16:56:22.388Z</time>
      </trkpt>
      <trkpt lat="48.620500" lon="10.170736">
        <ele>469.387849</ele>
        <time>2025-05-18T16:56:23.573Z</time>
      </trkpt>
      <trkpt lat="48.620358" lon="10.170846">
        <ele>469.424292</ele>
        <time>2025-05-18T16:56:27.024Z</time>
      </trkpt>
      <trkpt lat="48.620235" lon="10.170883">
        <ele>469.452939</ele>
        <time>2025-05-18T16:56:29.748Z</time>
      </trkpt>
      <trkpt lat="48.620124" lon="10.170924">
        <ele>469.479040</ele>
        <time>2025-05-18T16:56:32.269Z</time>
      </trkpt>
      <trkpt lat="48.620052" lon="10.170862">
        <ele>469.497965</ele>
        <time>2025-05-18T16:56:34.127Z</time>
      </trkpt>
      <trkpt lat="48.620004" lon="10.170888">
        <ele>469.509612</ele>
        <time>2025-05-18T16:56:35.256Z</time>
      </trkpt>
      <trkpt lat="48.619976" lon="10.170953">
        <ele>469.521327</ele>
        <time>2025-05-18T16:56:36.374Z</time>
      </trkpt>
      <trkpt lat="48.619908" lon="10.170977">
        <ele>469.537278</ele>
        <time>2025-05-18T16:56:37.950Z</time>
      </trkpt>
      <trkpt lat="48.619736" lon="10.171051">
        <ele>469.566417</ele>
        <time>2025-05-18T16:56:41.929Z</time>
      </trkpt>
      <trkpt lat="48.619563" lon="10.171059">
        <ele>469.592955</ele>
        <time>2025-05-18T16:56:45.776Z</time>
      </trkpt>
      <trkpt lat="48.619376" lon="10.171107">
        <ele>469.622038</ele>
        <time>2025-05-18T16:56:49.969Z</time>
      </trkpt>
      <trkpt lat="48.619248" lon="10.171152">
        <ele>469.642187</ele>
        <time>2025-05-18T16:56:52.897Z</time>
      </trkpt>
      <trkpt lat="48.619111" lon="10.171227">
        <ele>469.664527</ele>
        <time>2025-05-18T16:56:56.121Z</time>
      </trkpt>
      <trkpt lat="48.618945" lon="10.171410">
        <ele>469.696021</ele>
        <time>2025-05-18T16:57:00.697Z</time>
      </trkpt>
      <trkpt lat="48.618787" lon="10.171755">
        <ele>469.738563</ele>
        <time>2025-05-18T16:57:06.688Z</time>
      </trkpt>
      <trkpt lat="48.618470" lon="10.172350">
        <ele>469.816021</ele>
        <time>2025-05-18T16:57:17.002Z</time>
      </trkpt>
      <trkpt lat="48.618401" lon="10.172475">
        <ele>469.715529</ele>
        <time>2025-05-18T16:57:19.113Z</time>
      </trkpt>
      <trkpt lat="48.618241" lon="10.172717">
        <ele>469.464994</ele>
        <time>2025-05-18T16:57:23.332Z</time>
      </trkpt>
      <trkpt lat="48.618133" lon="10.172899">
        <ele>469.285970</ele>
        <time>2025-05-18T16:57:26.214Z</time>
      </trkpt>
      <trkpt lat="48.618054" lon="10.173184">
        <ele>469.059752</ele>
        <time>2025-05-18T16:57:29.814Z</time>
      </trkpt>
      <trkpt lat="48.617826" lon="10.174490">
        <ele>468.070981</ele>
        <time>2025-05-18T16:57:46.102Z</time>
      </trkpt>
      <trkpt lat="48.617774" lon="10.174844">
        <ele>467.836081</ele>
        <time>2025-05-18T16:57:50.878Z</time>
      </trkpt>
      <trkpt lat="48.617765" lon="10.174897">
        <ele>467.853895</ele>
        <time>2025-05-18T16:57:51.612Z</time>
      </trkpt>
      <trkpt lat="48.617727" lon="10.175211">
        <ele>467.957810</ele>
        <time>2025-05-18T16:57:56.068Z</time>
      </trkpt>
      <trkpt lat="48.617721" lon="10.175273">
        <ele>467.978208</ele>
        <time>2025-05-18T16:57:56.971Z</time>
      </trkpt>
      <trkpt lat="48.617701" lon="10.175560">
        <ele>468.072153</ele>
        <time>2025-05-18T16:58:01.205Z</time>
      </trkpt>
      <trkpt lat="48.617680" lon="10.175915">
        <ele>468.188179</ele>
        <time>2025-05-18T16:58:06.526Z</time>
      </trkpt>
      <trkpt lat="48.617646" lon="10.176592">
        <ele>468.409199</ele>
        <time>2025-05-18T16:58:16.603Z</time>
      </trkpt>
      <trkpt lat="48.617642" lon="10.176637">
        <ele>468.423980</ele>
        <time>2025-05-18T16:58:17.266Z</time>
      </trkpt>
      <trkpt lat="48.617621" lon="10.176869">
        <ele>468.500208</ele>
        <time>2025-05-18T16:58:20.705Z</time>
      </trkpt>
      <trkpt lat="48.617604" lon="10.177020">
        <ele>468.550071</ele>
        <time>2025-05-18T16:58:22.961Z</time>
      </trkpt>
      <trkpt lat="48.617601" lon="10.177048">
        <ele>468.559305</ele>
        <time>2025-05-18T16:58:23.377Z</time>
      </trkpt>
      <trkpt lat="48.617587" lon="10.177131">
        <ele>468.587189</ele>
        <time>2025-05-18T16:58:24.646Z</time>
      </trkpt>
      <trkpt lat="48.617616" lon="10.177254">
        <ele>468.629700</ele>
        <time>2025-05-18T16:58:26.558Z</time>
      </trkpt>
      <trkpt lat="48.617531" lon="10.177228">
        <ele>468.672403</ele>
        <time>2025-05-18T16:58:28.486Z</time>
      </trkpt>
      <trkpt lat="48.617323" lon="10.177066">
        <ele>468.797805</ele>
        <time>2025-05-18T16:58:33.700Z</time>
      </trkpt>
      <trkpt lat="48.617080" lon="10.176881">
        <ele>468.949922</ele>
        <time>2025-05-18T16:58:39.699Z</time>
      </trkpt>
      <trkpt lat="48.616949" lon="10.176798">
        <ele>469.029339</ele>
        <time>2025-05-18T16:58:42.788Z</time>
      </trkpt>
      <trkpt lat="48.616573" lon="10.176649">
        <ele>469.246681</ele>
        <time>2025-05-18T16:58:51.177Z</time>
      </trkpt>
      <trkpt lat="48.616377" lon="10.176591">
        <ele>469.358356</ele>
        <time>2025-05-18T16:58:55.378Z</time>
      </trkpt>
      <trkpt lat="48.616201" lon="10.176572">
        <ele>469.457020</ele>
        <time>2025-05-18T16:58:59.225Z</time>
      </trkpt>
      <trkpt lat="48.616016" lon="10.176538">
        <ele>469.561227</ele>
        <time>2025-05-18T16:59:03.392Z</time>
      </trkpt>
      <trkpt lat="48.615617" lon="10.176469">
        <ele>469.806295</ele>
        <time>2025-05-18T16:59:12.417Z</time>
      </trkpt>
      <trkpt lat="48.615325" lon="10.176484">
        <ele>470.019172</ele>
        <time>2025-05-18T16:59:18.945Z</time>
      </trkpt>
      <trkpt lat="48.615194" lon="10.176558">
        <ele>470.121058</ele>
        <time>2025-05-18T16:59:22.057Z</time>
      </trkpt>
      <trkpt lat="48.615050" lon="10.176693">
        <ele>470.244496</ele>
        <time>2025-05-18T16:59:25.841Z</time>
      </trkpt>
      <trkpt lat="48.614918" lon="10.176800">
        <ele>470.353613</ele>
        <time>2025-05-18T16:59:29.198Z</time>
      </trkpt>
      <trkpt lat="48.614243" lon="10.177044">
        <ele>470.859274</ele>
        <time>2025-05-18T16:59:44.623Z</time>
      </trkpt>
      <trkpt lat="48.613480" lon="10.177574">
        <ele>471.256330</ele>
        <time>2025-05-18T17:00:02.886Z</time>
      </trkpt>
      <trkpt lat="48.613220" lon="10.177741">
        <ele>471.362263</ele>
        <time>2025-05-18T17:00:09.146Z</time>
      </trkpt>
      <trkpt lat="48.612696" lon="10.177994">
        <ele>471.568541</ele>
        <time>2025-05-18T17:00:21.139Z</time>
      </trkpt>
      <trkpt lat="48.612359" lon="10.178027">
        <ele>471.695187</ele>
        <time>2025-05-18T17:00:28.263Z</time>
      </trkpt>
      <trkpt lat="48.611836" lon="10.177876">
        <ele>472.197138</ele>
        <time>2025-05-18T17:00:39.559Z</time>
      </trkpt>
      <trkpt lat="48.611561" lon="10.177906">
        <ele>472.463565</ele>
        <time>2025-05-18T17:00:45.638Z</time>
      </trkpt>
      <trkpt lat="48.610787" lon="10.178176">
        <ele>473.231128</ele>
        <time>2025-05-18T17:01:03.777Z</time>
      </trkpt>
      <trkpt lat="48.610331" lon="10.178433">
        <ele>473.638727</ele>
        <time>2025-05-18T17:01:15.075Z</time>
      </trkpt>
      <trkpt lat="48.609887" lon="10.178458">
        <ele>473.964693</ele>
        <time>2025-05-18T17:01:25.415Z</time>
      </trkpt>
      <trkpt lat="48.608807" lon="10.178305">
        <ele>474.760503</ele>
        <time>2025-05-18T17:01:48.577Z</time>
      </trkpt>
      <trkpt lat="48.608637" lon="10.178241">
        <ele>474.659274</ele>
        <time>2025-05-18T17:01:52.131Z</time>
      </trkpt>
      <trkpt lat="48.608337" lon="10.178039">
        <ele>474.468582</ele>
        <time>2025-05-18T17:01:58.844Z</time>
      </trkpt>
      <trkpt lat="48.607937" lon="10.177931">
        <ele>474.232633</ele>
        <time>2025-05-18T17:02:07.172Z</time>
      </trkpt>
      <trkpt lat="48.607551" lon="10.177704">
        <ele>473.992137</ele>
        <time>2025-05-18T17:02:15.313Z</time>
      </trkpt>
      <trkpt lat="48.607094" lon="10.177317">
        <ele>473.632726</ele>
        <time>2025-05-18T17:02:25.862Z</time>
      </trkpt>
      <trkpt lat="48.606518" lon="10.176645">
        <ele>472.386362</ele>
        <time>2025-05-18T17:02:38.983Z</time>
      </trkpt>
      <trkpt lat="48.606293" lon="10.176438">
        <ele>471.935149</ele>
        <time>2025-05-18T17:02:43.500Z</time>
      </trkpt>
      <trkpt lat="48.606142" lon="10.176331">
        <ele>471.649452</ele>
        <time>2025-05-18T17:02:46.347Z</time>
      </trkpt>
      <trkpt lat="48.605961" lon="10.176250">
        <ele>471.326057</ele>
        <time>2025-05-18T17:02:49.591Z</time>
      </trkpt>
      <trkpt lat="48.605835" lon="10.176234">
        <ele>471.109423</ele>
        <time>2025-05-18T17:02:51.805Z</time>
      </trkpt>
      <trkpt lat="48.605659" lon="10.176130">
        <ele>470.785685</ele>
        <time>2025-05-18T17:02:55.159Z</time>
      </trkpt>
      <trkpt lat="48.605578" lon="10.175982">
        <ele>470.597954</ele>
        <time>2025-05-18T17:02:57.448Z</time>
      </trkpt>
      <trkpt lat="48.605387" lon="10.175105">
        <ele>470.021033</ele>
        <time>2025-05-18T17:03:08.967Z</time>
      </trkpt>
      <trkpt lat="48.605302" lon="10.174897">
        <ele>469.868255</ele>
        <time>2025-05-18T17:03:12.145Z</time>
      </trkpt>
      <trkpt lat="48.605101" lon="10.174612">
        <ele>469.607903</ele>
        <time>2025-05-18T17:03:17.637Z</time>
      </trkpt>
      <trkpt lat="48.604904" lon="10.174481">
        <ele>469.404554</ele>
        <time>2025-05-18T17:03:21.948Z</time>
      </trkpt>
      <trkpt lat="48.604613" lon="10.174406">
        <ele>469.125619</ele>
        <time>2025-05-18T17:03:27.883Z</time>
      </trkpt>
      <trkpt lat="48.604333" lon="10.174453">
        <ele>468.912242</ele>
        <time>2025-05-18T17:03:33.632Z</time>
      </trkpt>
      <trkpt lat="48.603794" lon="10.174744">
        <ele>468.748519</ele>
        <time>2025-05-18T17:03:45.192Z</time>
      </trkpt>
      <trkpt lat="48.603374" lon="10.175067">
        <ele>468.613727</ele>
        <time>2025-05-18T17:03:54.663Z</time>
      </trkpt>
      <trkpt lat="48.603084" lon="10.175372">
        <ele>468.512676</ele>
        <time>2025-05-18T17:04:01.933Z</time>
      </trkpt>
      <trkpt lat="48.602671" lon="10.175562">
        <ele>468.448591</ele>
        <time>2025-05-18T17:04:11.216Z</time>
      </trkpt>
      <trkpt lat="48.602449" lon="10.175778">
        <ele>468.515679</ele>
        <time>2025-05-18T17:04:17.016Z</time>
      </trkpt>
      <trkpt lat="48.602357" lon="10.175909">
        <ele>468.547794</ele>
        <time>2025-05-18T17:04:19.722Z</time>
      </trkpt>
      <trkpt lat="48.602079" lon="10.176489">
        <ele>468.668180</ele>
        <time>2025-05-18T17:04:29.658Z</time>
      </trkpt>
      <trkpt lat="48.601825" lon="10.177124">
        <ele>468.792903</ele>
        <time>2025-05-18T17:04:40.335Z</time>
      </trkpt>
      <trkpt lat="48.601683" lon="10.177550">
        <ele>468.873078</ele>
        <time>2025-05-18T17:04:47.373Z</time>
      </trkpt>
      <trkpt lat="48.601644" lon="10.177653">
        <ele>468.925958</ele>
        <time>2025-05-18T17:04:49.121Z</time>
      </trkpt>
      <trkpt lat="48.601401" lon="10.178236">
        <ele>469.291521</ele>
        <time>2025-05-18T17:04:58.956Z</time>
      </trkpt>
      <trkpt lat="48.601300" lon="10.178408">
        <ele>469.413540</ele>
        <time>2025-05-18T17:05:02.114Z</time>
      </trkpt>
      <trkpt lat="48.601197" lon="10.178558">
        <ele>469.528247</ele>
        <time>2025-05-18T17:05:05.052Z</time>
      </trkpt>
      <trkpt lat="48.600920" lon="10.178834">
        <ele>469.794343</ele>
        <time>2025-05-18T17:05:12.088Z</time>
      </trkpt>
      <trkpt lat="48.600781" lon="10.179042">
        <ele>469.951208</ele>
        <time>2025-05-18T17:05:16.410Z</time>
      </trkpt>
      <trkpt lat="48.600661" lon="10.179292">
        <ele>470.115077</ele>
        <time>2025-05-18T17:05:21.010Z</time>
      </trkpt>
      <trkpt lat="48.600482" lon="10.179814">
        <ele>471.263060</ele>
        <time>2025-05-18T17:05:29.896Z</time>
      </trkpt>
      <trkpt lat="48.600385" lon="10.180176">
        <ele>473.097599</ele>
        <time>2025-05-18T17:05:36.129Z</time>
      </trkpt>
      <trkpt lat="48.600235" lon="10.181184">
        <ele>477.950436</ele>
        <time>2025-05-18T17:05:55.520Z</time>
      </trkpt>
      <trkpt lat="48.600162" lon="10.181416">
        <ele>479.157173</ele>
        <time>2025-05-18T17:06:01.495Z</time>
      </trkpt>
      <trkpt lat="48.600072" lon="10.181607">
        <ele>480.258717</ele>
        <time>2025-05-18T17:06:07.212Z</time>
      </trkpt>
      <trkpt lat="48.600031" lon="10.181695">
        <ele>480.764321</ele>
        <time>2025-05-18T17:06:09.917Z</time>
      </trkpt>
      <trkpt lat="48.599939" lon="10.181873">
        <ele>481.825423</ele>
        <time>2025-05-18T17:06:15.704Z</time>
      </trkpt>
      <trkpt lat="48.599720" lon="10.182257">
        <ele>484.844267</ele>
        <time>2025-05-18T17:06:29.273Z</time>
      </trkpt>
      <trkpt lat="48.599726" lon="10.182858">
        <ele>489.285305</ele>
        <time>2025-05-18T17:06:46.217Z</time>
      </trkpt>
      <trkpt lat="48.599652" lon="10.183664">
        <ele>495.297614</ele>
        <time>2025-05-18T17:07:08.550Z</time>
      </trkpt>
      <trkpt lat="48.599655" lon="10.184431">
        <ele>500.964756</ele>
        <time>2025-05-18T17:07:26.881Z</time>
      </trkpt>
      <trkpt lat="48.599583" lon="10.184632">
        <ele>502.653730</ele>
        <time>2025-05-18T17:07:31.990Z</time>
      </trkpt>
      <trkpt lat="48.599503" lon="10.184936">
        <ele>504.452959</ele>
        <time>2025-05-18T17:07:39.340Z</time>
      </trkpt>
      <trkpt lat="48.599488" lon="10.185387">
        <ele>506.692589</ele>
        <time>2025-05-18T17:07:49.247Z</time>
      </trkpt>
      <trkpt lat="48.599537" lon="10.185992">
        <ele>509.715596</ele>
        <time>2025-05-18T17:08:01.660Z</time>
      </trkpt>
      <trkpt lat="48.599604" lon="10.186559">
        <ele>512.572253</ele>
        <time>2025-05-18T17:08:13.366Z</time>
      </trkpt>
      <trkpt lat="48.599646" lon="10.186736">
        <ele>513.504909</ele>
        <time>2025-05-18T17:08:17.091Z</time>
      </trkpt>
      <trkpt lat="48.599336" lon="10.186784">
        <ele>515.841954</ele>
        <time>2025-05-18T17:08:26.275Z</time>
      </trkpt>
      <trkpt lat="48.599313" lon="10.186924">
        <ele>516.557412</ele>
        <time>2025-05-18T17:08:28.981Z</time>
      </trkpt>
      <trkpt lat="48.599292" lon="10.187129">
        <ele>517.158453</ele>
        <time>2025-05-18T17:08:32.931Z</time>
      </trkpt>
      <trkpt lat="48.599293" lon="10.187315">
        <ele>517.645573</ele>
        <time>2025-05-18T17:08:36.417Z</time>
      </trkpt>
      <trkpt lat="48.599291" lon="10.187505">
        <ele>518.143215</ele>
        <time>2025-05-18T17:08:39.869Z</time>
      </trkpt>
      <trkpt lat="48.599292" lon="10.187610">
        <ele>518.418222</ele>
        <time>2025-05-18T17:08:41.667Z</time>
      </trkpt>
      <trkpt lat="48.599287" lon="10.187879">
        <ele>519.122968</ele>
        <time>2025-05-18T17:08:46.279Z</time>
      </trkpt>
      <trkpt lat="48.599274" lon="10.188043">
        <ele>519.555532</ele>
        <time>2025-05-18T17:08:49.018Z</time>
      </trkpt>
      <trkpt lat="48.599262" lon="10.188165">
        <ele>519.878545</ele>
        <time>2025-05-18T17:08:51.071Z</time>
      </trkpt>
      <trkpt lat="48.599125" lon="10.188581">
        <ele>521.095593</ele>
        <time>2025-05-18T17:08:58.829Z</time>
      </trkpt>
      <trkpt lat="48.599085" lon="10.188668">
        <ele>521.373085</ele>
        <time>2025-05-18T17:09:00.591Z</time>
      </trkpt>
      <trkpt lat="48.598855" lon="10.189115">
        <ele>522.856301</ele>
        <time>2025-05-18T17:09:09.619Z</time>
      </trkpt>
      <trkpt lat="48.598704" lon="10.189329">
        <ele>523.675843</ele>
        <time>2025-05-18T17:09:14.507Z</time>
      </trkpt>
      <trkpt lat="48.598319" lon="10.189757">
        <ele>524.211683</ele>
        <time>2025-05-18T17:09:25.556Z</time>
      </trkpt>
      <trkpt lat="48.598222" lon="10.189896">
        <ele>524.334333</ele>
        <time>2025-05-18T17:09:28.635Z</time>
      </trkpt>
      <trkpt lat="48.597791" lon="10.190765">
        <ele>524.993624</ele>
        <time>2025-05-18T17:09:44.874Z</time>
      </trkpt>
      <trkpt lat="48.597526" lon="10.191321">
        <ele>525.409601</ele>
        <time>2025-05-18T17:09:54.288Z</time>
      </trkpt>
      <trkpt lat="48.597254" lon="10.191882">
        <ele>524.844785</ele>
        <time>2025-05-18T17:10:03.333Z</time>
      </trkpt>
      <trkpt lat="48.597094" lon="10.192113">
        <ele>524.518502</ele>
        <time>2025-05-18T17:10:07.562Z</time>
      </trkpt>
      <trkpt lat="48.596873" lon="10.192297">
        <ele>524.146399</ele>
        <time>2025-05-18T17:10:12.280Z</time>
      </trkpt>
      <trkpt lat="48.596566" lon="10.192462">
        <ele>523.665847</ele>
        <time>2025-05-18T17:10:17.990Z</time>
      </trkpt>
      <trkpt lat="48.596003" lon="10.192846">
        <ele>522.731857</ele>
        <time>2025-05-18T17:10:28.703Z</time>
      </trkpt>
      <trkpt lat="48.595547" lon="10.193246">
        <ele>521.560346</ele>
        <time>2025-05-18T17:10:37.925Z</time>
      </trkpt>
      <trkpt lat="48.595297" lon="10.193347">
        <ele>520.985303</ele>
        <time>2025-05-18T17:10:42.453Z</time>
      </trkpt>
      <trkpt lat="48.593831" lon="10.193504">
        <ele>517.277351</ele>
        <time>2025-05-18T17:11:07.716Z</time>
      </trkpt>
      <trkpt lat="48.593753" lon="10.193559">
        <ele>517.008108</ele>
        <time>2025-05-18T17:11:09.164Z</time>
      </trkpt>
      <trkpt lat="48.593711" lon="10.193646">
        <ele>516.785247</ele>
        <time>2025-05-18T17:11:10.347Z</time>
      </trkpt>
      <trkpt lat="48.593593" lon="10.195334">
        <ele>513.273192</ele>
        <time>2025-05-18T17:11:28.493Z</time>
      </trkpt>
      <trkpt lat="48.593513" lon="10.195958">
        <ele>511.248741</ele>
        <time>2025-05-18T17:11:35.008Z</time>
      </trkpt>
      <trkpt lat="48.593595" lon="10.196437">
        <ele>509.629077</ele>
        <time>2025-05-18T17:11:40.755Z</time>
      </trkpt>
      <trkpt lat="48.593717" lon="10.196924">
        <ele>507.924378</ele>
        <time>2025-05-18T17:11:46.748Z</time>
      </trkpt>
      <trkpt lat="48.593779" lon="10.197394">
        <ele>506.355549</ele>
        <time>2025-05-18T17:11:52.120Z</time>
      </trkpt>
      <trkpt lat="48.593827" lon="10.197481">
        <ele>505.984679</ele>
        <time>2025-05-18T17:11:53.229Z</time>
      </trkpt>
      <trkpt lat="48.593916" lon="10.198187">
        <ele>503.284296</ele>
        <time>2025-05-18T17:12:00.161Z</time>
      </trkpt>
      <trkpt lat="48.593921" lon="10.198948">
        <ele>499.444847</ele>
        <time>2025-05-18T17:12:07.380Z</time>
      </trkpt>
      <trkpt lat="48.593951" lon="10.199537">
        <ele>496.464534</ele>
        <time>2025-05-18T17:12:12.862Z</time>
      </trkpt>
      <trkpt lat="48.593908" lon="10.200332">
        <ele>492.440355</ele>
        <time>2025-05-18T17:12:20.170Z</time>
      </trkpt>
      <trkpt lat="48.593848" lon="10.200753">
        <ele>490.251146</ele>
        <time>2025-05-18T17:12:24.152Z</time>
      </trkpt>
      <trkpt lat="48.593830" lon="10.200775">
        <ele>490.064443</ele>
        <time>2025-05-18T17:12:24.482Z</time>
      </trkpt>
      <trkpt lat="48.593573" lon="10.201168">
        <ele>487.115914</ele>
        <time>2025-05-18T17:12:29.602Z</time>
      </trkpt>
      <trkpt lat="48.593489" lon="10.201361">
        <ele>485.883291</ele>
        <time>2025-05-18T17:12:31.738Z</time>
      </trkpt>
      <trkpt lat="48.593343" lon="10.201981">
        <ele>482.372100</ele>
        <time>2025-05-18T17:12:37.823Z</time>
      </trkpt>
      <trkpt lat="48.593313" lon="10.202352">
        <ele>480.378019</ele>
        <time>2025-05-18T17:12:41.298Z</time>
      </trkpt>
      <trkpt lat="48.593201" lon="10.202472">
        <ele>479.270729</ele>
        <time>2025-05-18T17:12:43.235Z</time>
      </trkpt>
      <trkpt lat="48.592581" lon="10.202945">
        <ele>474.025279</ele>
        <time>2025-05-18T17:12:52.983Z</time>
      </trkpt>
      <trkpt lat="48.592457" lon="10.203075">
        <ele>472.990574</ele>
        <time>2025-05-18T17:12:55.096Z</time>
      </trkpt>
      <trkpt lat="48.592328" lon="10.203255">
        <ele>471.786859</ele>
        <time>2025-05-18T17:12:57.581Z</time>
      </trkpt>
      <trkpt lat="48.591940" lon="10.204154">
        <ele>466.918250</ele>
        <time>2025-05-18T17:13:07.716Z</time>
      </trkpt>
      <trkpt lat="48.591913" lon="10.204369">
        <ele>465.925710</ele>
        <time>2025-05-18T17:13:09.827Z</time>
      </trkpt>
      <trkpt lat="48.591914" lon="10.204591">
        <ele>464.918820</ele>
        <time>2025-05-18T17:13:11.980Z</time>
      </trkpt>
      <trkpt lat="48.591960" lon="10.204769">
        <ele>464.052078</ele>
        <time>2025-05-18T17:13:13.848Z</time>
      </trkpt>
      <trkpt lat="48.592015" lon="10.204875">
        <ele>463.672934</ele>
        <time>2025-05-18T17:13:15.168Z</time>
      </trkpt>
      <trkpt lat="48.592075" lon="10.204996">
        <ele>463.573120</ele>
        <time>2025-05-18T17:13:16.660Z</time>
      </trkpt>
      <trkpt lat="48.592092" lon="10.205043">
        <ele>463.537763</ele>
        <time>2025-05-18T17:13:17.199Z</time>
      </trkpt>
      <trkpt lat="48.592165" lon="10.205265">
        <ele>463.374129</ele>
        <time>2025-05-18T17:13:19.704Z</time>
      </trkpt>
      <trkpt lat="48.592308" lon="10.205212">
        <ele>463.227205</ele>
        <time>2025-05-18T17:13:22.009Z</time>
      </trkpt>
      <trkpt lat="48.592443" lon="10.205678">
        <ele>462.891427</ele>
        <time>2025-05-18T17:13:27.615Z</time>
      </trkpt>
      <trkpt lat="48.592459" lon="10.205846">
        <ele>462.779401</ele>
        <time>2025-05-18T17:13:29.720Z</time>
      </trkpt>
      <trkpt lat="48.592440" lon="10.206314">
        <ele>462.469931</ele>
        <time>2025-05-18T17:13:36.039Z</time>
      </trkpt>
      <trkpt lat="48.592443" lon="10.206369">
        <ele>462.433507</ele>
        <time>2025-05-18T17:13:36.894Z</time>
      </trkpt>
      <trkpt lat="48.592462" lon="10.206697">
        <ele>462.216192</ele>
        <time>2025-05-18T17:13:42.049Z</time>
      </trkpt>
      <trkpt lat="48.592487" lon="10.206870">
        <ele>462.099316</ele>
        <time>2025-05-18T17:13:45.003Z</time>
      </trkpt>
      <trkpt lat="48.592536" lon="10.206984">
        <ele>462.009581</ele>
        <time>2025-05-18T17:13:47.295Z</time>
      </trkpt>
      <trkpt lat="48.592627" lon="10.207028">
        <ele>461.925826</ele>
        <time>2025-05-18T17:13:49.740Z</time>
      </trkpt>
      <trkpt lat="48.592731" lon="10.207211">
        <ele>462.320536</ele>
        <time>2025-05-18T17:13:53.844Z</time>
      </trkpt>
      <trkpt lat="48.592819" lon="10.207365">
        <ele>462.653472</ele>
        <time>2025-05-18T17:13:57.348Z</time>
      </trkpt>
      <trkpt lat="48.592623" lon="10.207480">
        <ele>463.173486</ele>
        <time>2025-05-18T17:14:02.847Z</time>
      </trkpt>
      <trkpt lat="48.592419" lon="10.207644">
        <ele>463.744958</ele>
        <time>2025-05-18T17:14:09.146Z</time>
      </trkpt>
      <trkpt lat="48.592188" lon="10.207764">
        <ele>464.349101</ele>
        <time>2025-05-18T17:14:15.683Z</time>
      </trkpt>
      <trkpt lat="48.591942" lon="10.207811">
        <ele>464.962400</ele>
        <time>2025-05-18T17:14:22.164Z</time>
      </trkpt>
      <trkpt lat="48.591144" lon="10.207778">
        <ele>466.036428</ele>
        <time>2025-05-18T17:14:41.100Z</time>
      </trkpt>
      <trkpt lat="48.590374" lon="10.207678">
        <ele>464.931054</ele>
        <time>2025-05-18T17:14:56.600Z</time>
      </trkpt>
      <trkpt lat="48.589908" lon="10.207722">
        <ele>464.263243</ele>
        <time>2025-05-18T17:15:06.040Z</time>
      </trkpt>
      <trkpt lat="48.589388" lon="10.207707">
        <ele>463.353693</ele>
        <time>2025-05-18T17:15:16.535Z</time>
      </trkpt>
      <trkpt lat="48.588489" lon="10.207795">
        <ele>461.287328</ele>
        <time>2025-05-18T17:15:33.928Z</time>
      </trkpt>
      <trkpt lat="48.588082" lon="10.207895">
        <ele>460.341539</ele>
        <time>2025-05-18T17:15:41.630Z</time>
      </trkpt>
      <trkpt lat="48.586958" lon="10.208285">
        <ele>458.492616</ele>
        <time>2025-05-18T17:16:04.439Z</time>
      </trkpt>
      <trkpt lat="48.585904" lon="10.208980">
        <ele>457.031081</ele>
        <time>2025-05-18T17:16:30.077Z</time>
      </trkpt>
      <trkpt lat="48.585466" lon="10.209454">
        <ele>456.577803</ele>
        <time>2025-05-18T17:16:42.437Z</time>
      </trkpt>
      <trkpt lat="48.585123" lon="10.209961">
        <ele>456.174126</ele>
        <time>2025-05-18T17:16:52.891Z</time>
      </trkpt>
      <trkpt lat="48.584751" lon="10.210639">
        <ele>455.675113</ele>
        <time>2025-05-18T17:17:05.538Z</time>
      </trkpt>
      <trkpt lat="48.584624" lon="10.210809">
        <ele>455.422274</ele>
        <time>2025-05-18T17:17:09.077Z</time>
      </trkpt>
      <trkpt lat="48.584573" lon="10.210985">
        <ele>455.232821</ele>
        <time>2025-05-18T17:17:11.389Z</time>
      </trkpt>
      <trkpt lat="48.584155" lon="10.211813">
        <ele>454.205845</ele>
        <time>2025-05-18T17:17:23.719Z</time>
      </trkpt>
      <trkpt lat="48.584138" lon="10.212052">
        <ele>453.968834</ele>
        <time>2025-05-18T17:17:26.526Z</time>
      </trkpt>
      <trkpt lat="48.583986" lon="10.212013">
        <ele>453.739037</ele>
        <time>2025-05-18T17:17:29.310Z</time>
      </trkpt>
      <trkpt lat="48.583320" lon="10.211674">
        <ele>452.880205</ele>
        <time>2025-05-18T17:17:42.652Z</time>
      </trkpt>
      <trkpt lat="48.583179" lon="10.211566">
        <ele>452.782364</ele>
        <time>2025-05-18T17:17:45.661Z</time>
      </trkpt>
      <trkpt lat="48.583229" lon="10.211976">
        <ele>452.611648</ele>
        <time>2025-05-18T17:17:51.632Z</time>
      </trkpt>
      <trkpt lat="48.583235" lon="10.212235">
        <ele>452.505528</ele>
        <time>2025-05-18T17:17:55.481Z</time>
      </trkpt>
      <trkpt lat="48.583219" lon="10.212465">
        <ele>452.410829</ele>
        <time>2025-05-18T17:17:58.945Z</time>
      </trkpt>
      <trkpt lat="48.583076" lon="10.213190">
        <ele>452.101041</ele>
        <time>2025-05-18T17:18:10.437Z</time>
      </trkpt>
      <trkpt lat="48.583069" lon="10.213461">
        <ele>451.989987</ele>
        <time>2025-05-18T17:18:14.597Z</time>
      </trkpt>
      <trkpt lat="48.583139" lon="10.214688">
        <ele>451.897044</ele>
        <time>2025-05-18T17:18:33.452Z</time>
      </trkpt>
      <trkpt lat="48.583194" lon="10.214979">
        <ele>451.895914</ele>
        <time>2025-05-18T17:18:38.092Z</time>
      </trkpt>
      <trkpt lat="48.586768" lon="10.223053">
        <ele>452.106846</ele>
        <time>2025-05-18T17:21:08.412Z</time>
      </trkpt>
      <trkpt lat="48.586850" lon="10.223190">
        <ele>452.216947</ele>
        <time>2025-05-18T17:21:11.339Z</time>
      </trkpt>
      <trkpt lat="48.586523" lon="10.223788">
        <ele>452.679302</ele>
        <time>2025-05-18T17:21:23.096Z</time>
      </trkpt>
      <trkpt lat="48.586428" lon="10.224018">
        <ele>452.840888</ele>
        <time>2025-05-18T17:21:27.278Z</time>
      </trkpt>
      <trkpt lat="48.586256" lon="10.224564">
        <ele>453.201273</ele>
        <time>2025-05-18T17:21:36.673Z</time>
      </trkpt>
      <trkpt lat="48.586150" lon="10.224792">
        <ele>453.367344</ele>
        <time>2025-05-18T17:21:40.969Z</time>
      </trkpt>
      <trkpt lat="48.585839" lon="10.225309">
        <ele>453.812426</ele>
        <time>2025-05-18T17:21:51.853Z</time>
      </trkpt>
      <trkpt lat="48.585802" lon="10.225362">
        <ele>453.867163</ele>
        <time>2025-05-18T17:21:53.068Z</time>
      </trkpt>
      <trkpt lat="48.585553" lon="10.225682">
        <ele>454.218116</ele>
        <time>2025-05-18T17:22:00.790Z</time>
      </trkpt>
      <trkpt lat="48.584725" lon="10.226483">
        <ele>455.273741</ele>
        <time>2025-05-18T17:22:23.861Z</time>
      </trkpt>
      <trkpt lat="48.584337" lon="10.226761">
        <ele>455.505158</ele>
        <time>2025-05-18T17:22:33.302Z</time>
      </trkpt>
      <trkpt lat="48.583927" lon="10.226992">
        <ele>455.335623</ele>
        <time>2025-05-18T17:22:43.055Z</time>
      </trkpt>
      <trkpt lat="48.583819" lon="10.227089">
        <ele>455.286948</ele>
        <time>2025-05-18T17:22:45.750Z</time>
      </trkpt>
      <trkpt lat="48.583661" lon="10.227213">
        <ele>455.217970</ele>
        <time>2025-05-18T17:22:49.480Z</time>
      </trkpt>
      <trkpt lat="48.583580" lon="10.227269">
        <ele>455.183459</ele>
        <time>2025-05-18T17:22:51.275Z</time>
      </trkpt>
      <trkpt lat="48.583096" lon="10.227597">
        <ele>454.977944</ele>
        <time>2025-05-18T17:23:01.948Z</time>
      </trkpt>
      <trkpt lat="48.582513" lon="10.228062">
        <ele>454.593866</ele>
        <time>2025-05-18T17:23:15.200Z</time>
      </trkpt>
      <trkpt lat="48.581680" lon="10.228541">
        <ele>453.945478</ele>
        <time>2025-05-18T17:23:33.086Z</time>
      </trkpt>
      <trkpt lat="48.581267" lon="10.228868">
        <ele>453.606291</ele>
        <time>2025-05-18T17:23:41.937Z</time>
      </trkpt>
      <trkpt lat="48.580982" lon="10.229275">
        <ele>453.527907</ele>
        <time>2025-05-18T17:23:49.691Z</time>
      </trkpt>
      <trkpt lat="48.580645" lon="10.229881">
        <ele>453.475899</ele>
        <time>2025-05-18T17:24:00.271Z</time>
      </trkpt>
      <trkpt lat="48.580593" lon="10.230000">
        <ele>453.466530</ele>
        <time>2025-05-18T17:24:02.273Z</time>
      </trkpt>
      <trkpt lat="48.580566" lon="10.230062">
        <ele>453.461654</ele>
        <time>2025-05-18T17:24:03.294Z</time>
      </trkpt>
      <trkpt lat="48.580516" lon="10.230339">
        <ele>453.442792</ele>
        <time>2025-05-18T17:24:07.278Z</time>
      </trkpt>
      <trkpt lat="48.580542" lon="10.230717">
        <ele>453.417825</ele>
        <time>2025-05-18T17:24:12.667Z</time>
      </trkpt>
      <trkpt lat="48.580578" lon="10.230962">
        <ele>453.401338</ele>
        <time>2025-05-18T17:24:16.296Z</time>
      </trkpt>
      <trkpt lat="48.580768" lon="10.231418">
        <ele>453.383435</ele>
        <time>2025-05-18T17:24:24.399Z</time>
      </trkpt>
      <trkpt lat="48.580831" lon="10.231558">
        <ele>453.384432</ele>
        <time>2025-05-18T17:24:26.983Z</time>
      </trkpt>
      <trkpt lat="48.580909" lon="10.231886">
        <ele>453.386483</ele>
        <time>2025-05-18T17:24:32.161Z</time>
      </trkpt>
      <trkpt lat="48.581194" lon="10.232791">
        <ele>453.392381</ele>
        <time>2025-05-18T17:24:45.518Z</time>
      </trkpt>
      <trkpt lat="48.580419" lon="10.233301">
        <ele>454.320773</ele>
        <time>2025-05-18T17:25:02.060Z</time>
      </trkpt>
      <trkpt lat="48.580348" lon="10.232984">
        <ele>455.275285</ele>
        <time>2025-05-18T17:25:07.056Z</time>
      </trkpt>
      <trkpt lat="48.580203" lon="10.233021">
        <ele>455.909233</ele>
        <time>2025-05-18T17:25:10.557Z</time>
      </trkpt>
      <trkpt lat="48.579810" lon="10.233066">
        <ele>457.608334</ele>
        <time>2025-05-18T17:25:20.424Z</time>
      </trkpt>
      <trkpt lat="48.579782" lon="10.233069">
        <ele>457.729346</ele>
        <time>2025-05-18T17:25:21.196Z</time>
      </trkpt>
      <trkpt lat="48.579401" lon="10.233266">
        <ele>459.465302</ele>
        <time>2025-05-18T17:25:32.953Z</time>
      </trkpt>
      <trkpt lat="48.579355" lon="10.233294">
        <ele>459.679087</ele>
        <time>2025-05-18T17:25:34.596Z</time>
      </trkpt>
      <trkpt lat="48.579238" lon="10.233356">
        <ele>460.213580</ele>
        <time>2025-05-18T17:25:38.920Z</time>
      </trkpt>
      <trkpt lat="48.579203" lon="10.233375">
        <ele>460.373903</ele>
        <time>2025-05-18T17:25:40.296Z</time>
      </trkpt>
      <trkpt lat="48.579229" lon="10.233693">
        <ele>461.234336</ele>
        <time>2025-05-18T17:25:48.026Z</time>
      </trkpt>
      <trkpt lat="48.579313" lon="10.234305">
        <ele>462.315062</ele>
        <time>2025-05-18T17:26:01.382Z</time>
      </trkpt>
      <trkpt lat="48.579515" lon="10.235007">
        <ele>463.638709</ele>
        <time>2025-05-18T17:26:14.828Z</time>
      </trkpt>
      <trkpt lat="48.579845" lon="10.235991">
        <ele>465.546219</ele>
        <time>2025-05-18T17:26:30.558Z</time>
      </trkpt>
      <trkpt lat="48.579998" lon="10.236541">
        <ele>465.213615</ele>
        <time>2025-05-18T17:26:36.921Z</time>
      </trkpt>
      <trkpt lat="48.580066" lon="10.237456">
        <ele>463.809798</ele>
        <time>2025-05-18T17:26:46.560Z</time>
      </trkpt>
      <trkpt lat="48.580140" lon="10.238140">
        <ele>462.753097</ele>
        <time>2025-05-18T17:26:54.669Z</time>
      </trkpt>
      <trkpt lat="48.580538" lon="10.240385">
        <ele>462.049938</ele>
        <time>2025-05-18T17:27:30.278Z</time>
      </trkpt>
      <trkpt lat="48.580650" lon="10.240956">
        <ele>462.174294</ele>
        <time>2025-05-18T17:27:39.374Z</time>
      </trkpt>
      <trkpt lat="48.580903" lon="10.242123">
        <ele>460.530360</ele>
        <time>2025-05-18T17:27:55.438Z</time>
      </trkpt>
      <trkpt lat="48.581023" lon="10.242992">
        <ele>458.446632</ele>
        <time>2025-05-18T17:28:04.650Z</time>
      </trkpt>
      <trkpt lat="48.580962" lon="10.244209">
        <ele>455.734022</ele>
        <time>2025-05-18T17:28:16.525Z</time>
      </trkpt>
      <trkpt lat="48.581057" lon="10.244733">
        <ele>455.080879</ele>
        <time>2025-05-18T17:28:21.972Z</time>
      </trkpt>
      <trkpt lat="48.581077" lon="10.244953">
        <ele>454.813924</ele>
        <time>2025-05-18T17:28:24.276Z</time>
      </trkpt>
      <trkpt lat="48.581083" lon="10.245939">
        <ele>453.628572</ele>
        <time>2025-05-18T17:28:35.078Z</time>
      </trkpt>
      <trkpt lat="48.581195" lon="10.247450">
        <ele>453.833588</ele>
        <time>2025-05-18T17:28:59.242Z</time>
      </trkpt>
      <trkpt lat="48.581184" lon="10.247642">
        <ele>454.172997</ele>
        <time>2025-05-18T17:29:02.430Z</time>
      </trkpt>
      <trkpt lat="48.581140" lon="10.247807">
        <ele>454.486309</ele>
        <time>2025-05-18T17:29:05.377Z</time>
      </trkpt>
      <trkpt lat="48.580926" lon="10.247999">
        <ele>455.148804</ele>
        <time>2025-05-18T17:29:11.518Z</time>
      </trkpt>
      <trkpt lat="48.580933" lon="10.248321">
        <ele>455.716209</ele>
        <time>2025-05-18T17:29:16.641Z</time>
      </trkpt>
      <trkpt lat="48.581289" lon="10.249896">
        <ele>457.678007</ele>
        <time>2025-05-18T17:29:42.732Z</time>
      </trkpt>
      <trkpt lat="48.581383" lon="10.250644">
        <ele>457.965267</ele>
        <time>2025-05-18T17:29:53.932Z</time>
      </trkpt>
      <trkpt lat="48.581522" lon="10.251486">
        <ele>458.292686</ele>
        <time>2025-05-18T17:30:06.384Z</time>
      </trkpt>
      <trkpt lat="48.581764" lon="10.252701">
        <ele>456.983230</ele>
        <time>2025-05-18T17:30:21.471Z</time>
      </trkpt>
      <trkpt lat="48.581845" lon="10.253082">
        <ele>456.320847</ele>
        <time>2025-05-18T17:30:25.649Z</time>
      </trkpt>
      <trkpt lat="48.582217" lon="10.254444">
        <ele>453.923619</ele>
        <time>2025-05-18T17:30:41.340Z</time>
      </trkpt>
      <trkpt lat="48.582609" lon="10.256070">
        <ele>453.138909</ele>
        <time>2025-05-18T17:31:03.092Z</time>
      </trkpt>
      <trkpt lat="48.582843" lon="10.257397">
        <ele>453.118253</ele>
        <time>2025-05-18T17:31:23.484Z</time>
      </trkpt>
      <trkpt lat="48.582898" lon="10.257966">
        <ele>453.682294</ele>
        <time>2025-05-18T17:31:32.295Z</time>
      </trkpt>
      <trkpt lat="48.582924" lon="10.258514">
        <ele>454.221190</ele>
        <time>2025-05-18T17:31:40.817Z</time>
      </trkpt>
      <trkpt lat="48.582915" lon="10.259138">
        <ele>454.833396</ele>
        <time>2025-05-18T17:31:50.419Z</time>
      </trkpt>
      <trkpt lat="48.582864" lon="10.259941">
        <ele>455.596390</ele>
        <time>2025-05-18T17:32:02.581Z</time>
      </trkpt>
      <trkpt lat="48.582875" lon="10.260048">
        <ele>455.690654</ele>
        <time>2025-05-18T17:32:04.176Z</time>
      </trkpt>
      <trkpt lat="48.582951" lon="10.260669">
        <ele>456.240421</ele>
        <time>2025-05-18T17:32:13.449Z</time>
      </trkpt>
      <trkpt lat="48.583034" lon="10.261191">
        <ele>456.707775</ele>
        <time>2025-05-18T17:32:21.354Z</time>
      </trkpt>
      <trkpt lat="48.583351" lon="10.262263">
        <ele>457.729960</ele>
        <time>2025-05-18T17:32:39.171Z</time>
      </trkpt>
      <trkpt lat="48.583461" lon="10.262616">
        <ele>458.207756</ele>
        <time>2025-05-18T17:32:45.288Z</time>
      </trkpt>
      <trkpt lat="48.583607" lon="10.263988">
        <ele>459.924715</ele>
        <time>2025-05-18T17:33:07.367Z</time>
      </trkpt>
      <trkpt lat="48.583858" lon="10.264318">
        <ele>460.546014</ele>
        <time>2025-05-18T17:33:15.286Z</time>
      </trkpt>
      <trkpt lat="48.584078" lon="10.264701">
        <ele>460.982787</ele>
        <time>2025-05-18T17:33:22.809Z</time>
      </trkpt>
      <trkpt lat="48.584238" lon="10.265172">
        <ele>459.937515</ele>
        <time>2025-05-18T17:33:29.740Z</time>
      </trkpt>
      <trkpt lat="48.584316" lon="10.265572">
        <ele>459.114252</ele>
        <time>2025-05-18T17:33:34.508Z</time>
      </trkpt>
      <trkpt lat="48.584328" lon="10.266804">
        <ele>456.681810</ele>
        <time>2025-05-18T17:33:47.344Z</time>
      </trkpt>
      <trkpt lat="48.584444" lon="10.267601">
        <ele>454.859141</ele>
        <time>2025-05-18T17:33:55.247Z</time>
      </trkpt>
      <trkpt lat="48.584644" lon="10.268623">
        <ele>452.081635</ele>
        <time>2025-05-18T17:34:06.005Z</time>
      </trkpt>
      <trkpt lat="48.584663" lon="10.268707">
        <ele>451.850282</ele>
        <time>2025-05-18T17:34:06.935Z</time>
      </trkpt>
      <trkpt lat="48.584690" lon="10.268853">
        <ele>451.455208</ele>
        <time>2025-05-18T17:34:08.533Z</time>
      </trkpt>
      <trkpt lat="48.584325" lon="10.269026">
        <ele>449.948246</ele>
        <time>2025-05-18T17:34:14.778Z</time>
      </trkpt>
      <trkpt lat="48.583982" lon="10.269328">
        <ele>448.536797</ele>
        <time>2025-05-18T17:34:21.478Z</time>
      </trkpt>
      <trkpt lat="48.583796" lon="10.269543">
        <ele>448.151520</ele>
        <time>2025-05-18T17:34:25.552Z</time>
      </trkpt>
      <trkpt lat="48.583640" lon="10.269808">
        <ele>447.765391</ele>
        <time>2025-05-18T17:34:29.777Z</time>
      </trkpt>
      <trkpt lat="48.583478" lon="10.270058">
        <ele>447.384458</ele>
        <time>2025-05-18T17:34:33.983Z</time>
      </trkpt>
      <trkpt lat="48.583283" lon="10.270235">
        <ele>447.010194</ele>
        <time>2025-05-18T17:34:38.049Z</time>
      </trkpt>
      <trkpt lat="48.582521" lon="10.270796">
        <ele>445.698119</ele>
        <time>2025-05-18T17:34:53.953Z</time>
      </trkpt>
      <trkpt lat="48.582154" lon="10.271123">
        <ele>445.813345</ele>
        <time>2025-05-18T17:35:02.529Z</time>
      </trkpt>
      <trkpt lat="48.582021" lon="10.271192">
        <ele>445.851378</ele>
        <time>2025-05-18T17:35:05.446Z</time>
      </trkpt>
      <trkpt lat="48.581413" lon="10.271316">
        <ele>446.017318</ele>
        <time>2025-05-18T17:35:18.653Z</time>
      </trkpt>
      <trkpt lat="48.580398" lon="10.271445">
        <ele>447.074533</ele>
        <time>2025-05-18T17:35:41.886Z</time>
      </trkpt>
      <trkpt lat="48.580241" lon="10.271442">
        <ele>447.393960</ele>
        <time>2025-05-18T17:35:45.499Z</time>
      </trkpt>
      <trkpt lat="48.580073" lon="10.271337">
        <ele>447.763804</ele>
        <time>2025-05-18T17:35:49.649Z</time>
      </trkpt>
      <trkpt lat="48.579713" lon="10.270856">
        <ele>448.741298</ele>
        <time>2025-05-18T17:36:00.942Z</time>
      </trkpt>
      <trkpt lat="48.579482" lon="10.270647">
        <ele>449.289001</ele>
        <time>2025-05-18T17:36:07.616Z</time>
      </trkpt>
      <trkpt lat="48.579285" lon="10.270570">
        <ele>449.702961</ele>
        <time>2025-05-18T17:36:12.655Z</time>
      </trkpt>
      <trkpt lat="48.579076" lon="10.270594">
        <ele>450.083856</ele>
        <time>2025-05-18T17:36:17.692Z</time>
      </trkpt>
      <trkpt lat="48.578395" lon="10.270907">
        <ele>451.310167</ele>
        <time>2025-05-18T17:36:34.346Z</time>
      </trkpt>
      <trkpt lat="48.577940" lon="10.271104">
        <ele>452.125595</ele>
        <time>2025-05-18T17:36:45.460Z</time>
      </trkpt>
      <trkpt lat="48.577137" lon="10.271487">
        <ele>452.696595</ele>
        <time>2025-05-18T17:37:03.667Z</time>
      </trkpt>
      <trkpt lat="48.576919" lon="10.271582">
        <ele>452.554663</ele>
        <time>2025-05-18T17:37:08.361Z</time>
      </trkpt>
      <trkpt lat="48.576484" lon="10.271660">
        <ele>452.280627</ele>
        <time>2025-05-18T17:37:17.767Z</time>
      </trkpt>
      <trkpt lat="48.576334" lon="10.271591">
        <ele>452.182540</ele>
        <time>2025-05-18T17:37:20.914Z</time>
      </trkpt>
      <trkpt lat="48.576175" lon="10.271430">
        <ele>452.062814</ele>
        <time>2025-05-18T17:37:24.519Z</time>
      </trkpt>
      <trkpt lat="48.575917" lon="10.271658">
        <ele>451.875850</ele>
        <time>2025-05-18T17:37:29.681Z</time>
      </trkpt>
      <trkpt lat="48.575504" lon="10.271924">
        <ele>451.132121</ele>
        <time>2025-05-18T17:37:37.379Z</time>
      </trkpt>
      <trkpt lat="48.575198" lon="10.272109">
        <ele>450.473068</ele>
        <time>2025-05-18T17:37:42.964Z</time>
      </trkpt>
      <trkpt lat="48.575054" lon="10.272195">
        <ele>450.163443</ele>
        <time>2025-05-18T17:37:45.527Z</time>
      </trkpt>
      <trkpt lat="48.574602" lon="10.272398">
        <ele>449.220508</ele>
        <time>2025-05-18T17:37:53.621Z</time>
      </trkpt>
      <trkpt lat="48.574139" lon="10.272507">
        <ele>448.283473</ele>
        <time>2025-05-18T17:38:02.046Z</time>
      </trkpt>
      <trkpt lat="48.574093" lon="10.272530">
        <ele>448.206469</ele>
        <time>2025-05-18T17:38:02.978Z</time>
      </trkpt>
      <trkpt lat="48.573979" lon="10.272588">
        <ele>448.179749</ele>
        <time>2025-05-18T17:38:05.337Z</time>
      </trkpt>
      <trkpt lat="48.573921" lon="10.272617">
        <ele>448.166178</ele>
        <time>2025-05-18T17:38:06.576Z</time>
      </trkpt>
      <trkpt lat="48.573730" lon="10.272707">
        <ele>448.121735</ele>
        <time>2025-05-18T17:38:10.669Z</time>
      </trkpt>
      <trkpt lat="48.573583" lon="10.272776">
        <ele>448.087542</ele>
        <time>2025-05-18T17:38:13.877Z</time>
      </trkpt>
      <trkpt lat="48.573501" lon="10.272851">
        <ele>448.066251</ele>
        <time>2025-05-18T17:38:15.906Z</time>
      </trkpt>
      <trkpt lat="48.573518" lon="10.273233">
        <ele>448.009977</ele>
        <time>2025-05-18T17:38:21.285Z</time>
      </trkpt>
      <trkpt lat="48.573520" lon="10.273369">
        <ele>447.989983</ele>
        <time>2025-05-18T17:38:23.235Z</time>
      </trkpt>
      <trkpt lat="48.573360" lon="10.273605">
        <ele>447.940319</ele>
        <time>2025-05-18T17:38:28.110Z</time>
      </trkpt>
      <trkpt lat="48.572860" lon="10.274850">
        <ele>447.603027</ele>
        <time>2025-05-18T17:38:48.515Z</time>
      </trkpt>
      <trkpt lat="48.572797" lon="10.275265">
        <ele>447.447692</ele>
        <time>2025-05-18T17:38:54.249Z</time>
      </trkpt>
      <trkpt lat="48.572747" lon="10.275786">
        <ele>447.255631</ele>
        <time>2025-05-18T17:39:01.129Z</time>
      </trkpt>
      <trkpt lat="48.572716" lon="10.276295">
        <ele>447.069152</ele>
        <time>2025-05-18T17:39:07.650Z</time>
      </trkpt>
      <trkpt lat="48.572697" lon="10.276790">
        <ele>446.888261</ele>
        <time>2025-05-18T17:39:13.932Z</time>
      </trkpt>
      <trkpt lat="48.572720" lon="10.277006">
        <ele>446.811765</ele>
        <time>2025-05-18T17:39:16.805Z</time>
      </trkpt>
      <trkpt lat="48.572777" lon="10.277334">
        <ele>446.732456</ele>
        <time>2025-05-18T17:39:21.358Z</time>
      </trkpt>
      <trkpt lat="48.572748" lon="10.277570">
        <ele>446.676320</ele>
        <time>2025-05-18T17:39:24.586Z</time>
      </trkpt>
      <trkpt lat="48.572696" lon="10.277668">
        <ele>446.646941</ele>
        <time>2025-05-18T17:39:26.305Z</time>
      </trkpt>
      <trkpt lat="48.572453" lon="10.277909">
        <ele>446.544212</ele>
        <time>2025-05-18T17:39:32.241Z</time>
      </trkpt>
      <trkpt lat="48.572364" lon="10.277997">
        <ele>446.506620</ele>
        <time>2025-05-18T17:39:34.399Z</time>
      </trkpt>
      <trkpt lat="48.572204" lon="10.278233">
        <ele>446.427599</ele>
        <time>2025-05-18T17:39:39.041Z</time>
      </trkpt>
      <trkpt lat="48.572128" lon="10.278343">
        <ele>446.390405</ele>
        <time>2025-05-18T17:39:41.242Z</time>
      </trkpt>
      <trkpt lat="48.570871" lon="10.280865">
        <ele>445.977482</ele>
        <time>2025-05-18T17:40:24.470Z</time>
      </trkpt>
      <trkpt lat="48.570408" lon="10.281613">
        <ele>445.682994</ele>
        <time>2025-05-18T17:40:38.950Z</time>
      </trkpt>
      <trkpt lat="48.569873" lon="10.282402">
        <ele>445.182078</ele>
        <time>2025-05-18T17:40:54.165Z</time>
      </trkpt>
      <trkpt lat="48.569444" lon="10.282912">
        <ele>444.816320</ele>
        <time>2025-05-18T17:41:04.473Z</time>
      </trkpt>
      <trkpt lat="48.569206" lon="10.283155">
        <ele>444.581534</ele>
        <time>2025-05-18T17:41:09.716Z</time>
      </trkpt>
      <trkpt lat="48.568961" lon="10.283323">
        <ele>444.330332</ele>
        <time>2025-05-18T17:41:14.616Z</time>
      </trkpt>
      <trkpt lat="48.568644" lon="10.283422">
        <ele>444.028097</ele>
        <time>2025-05-18T17:41:20.522Z</time>
      </trkpt>
      <trkpt lat="48.567458" lon="10.283471">
        <ele>443.019376</ele>
        <time>2025-05-18T17:41:44.265Z</time>
      </trkpt>
      <trkpt lat="48.564966" lon="10.283931">
        <ele>442.294688</ele>
        <time>2025-05-18T17:42:36.442Z</time>
      </trkpt>
      <trkpt lat="48.564844" lon="10.284827">
        <ele>442.052749</ele>
        <time>2025-05-18T17:42:57.332Z</time>
      </trkpt>
      <trkpt lat="48.564789" lon="10.285024">
        <ele>441.996199</ele>
        <time>2025-05-18T17:43:02.216Z</time>
      </trkpt>
      <trkpt lat="48.564642" lon="10.285374">
        <ele>441.891586</ele>
        <time>2025-05-18T17:43:11.697Z</time>
      </trkpt>
      <trkpt lat="48.564288" lon="10.286943">
        <ele>441.526179</ele>
        <time>2025-05-18T17:43:49.692Z</time>
      </trkpt>
      <trkpt lat="48.564231" lon="10.287049">
        <ele>441.496072</ele>
        <time>2025-05-18T17:43:52.807Z</time>
      </trkpt>
      <trkpt lat="48.564129" lon="10.287065">
        <ele>441.461913</ele>
        <time>2025-05-18T17:43:56.367Z</time>
      </trkpt>
      <trkpt lat="48.562999" lon="10.286785">
        <ele>441.226137</ele>
        <time>2025-05-18T17:44:36.025Z</time>
      </trkpt>
      <trkpt lat="48.562819" lon="10.286781">
        <ele>441.203003</ele>
        <time>2025-05-18T17:44:42.241Z</time>
      </trkpt>
      <trkpt lat="48.562726" lon="10.286866">
        <ele>441.189036</ele>
        <time>2025-05-18T17:44:46.007Z</time>
      </trkpt>
      <trkpt lat="48.562288" lon="10.287501">
        <ele>441.111033</ele>
        <time>2025-05-18T17:45:07.018Z</time>
      </trkpt>
      <trkpt lat="48.561956" lon="10.288187">
        <ele>441.187534</ele>
        <time>2025-05-18T17:45:26.476Z</time>
      </trkpt>
      <trkpt lat="48.561553" lon="10.289257">
        <ele>441.409216</ele>
        <time>2025-05-18T17:45:54.597Z</time>
      </trkpt>
      <trkpt lat="48.561223" lon="10.289962">
        <ele>441.564703</ele>
        <time>2025-05-18T17:46:07.043Z</time>
      </trkpt>
      <trkpt lat="48.560975" lon="10.290410">
        <ele>441.818639</ele>
        <time>2025-05-18T17:46:15.536Z</time>
      </trkpt>
      <trkpt lat="48.560846" lon="10.290586">
        <ele>441.940750</ele>
        <time>2025-05-18T17:46:19.369Z</time>
      </trkpt>
      <trkpt lat="48.560645" lon="10.290714">
        <ele>442.093996</ele>
        <time>2025-05-18T17:46:24.214Z</time>
      </trkpt>
      <trkpt lat="48.560295" lon="10.290858">
        <ele>442.348848</ele>
        <time>2025-05-18T17:46:32.325Z</time>
      </trkpt>
      <trkpt lat="48.560002" lon="10.290954">
        <ele>442.559485</ele>
        <time>2025-05-18T17:46:39.277Z</time>
      </trkpt>
      <trkpt lat="48.559704" lon="10.291160">
        <ele>442.789722</ele>
        <time>2025-05-18T17:46:46.883Z</time>
      </trkpt>
      <trkpt lat="48.559586" lon="10.291314">
        <ele>442.838783</ele>
        <time>2025-05-18T17:46:50.472Z</time>
      </trkpt>
      <trkpt lat="48.559335" lon="10.291756">
        <ele>442.835446</ele>
        <time>2025-05-18T17:46:59.153Z</time>
      </trkpt>
      <trkpt lat="48.559246" lon="10.291599">
        <ele>442.834262</ele>
        <time>2025-05-18T17:47:02.061Z</time>
      </trkpt>
      <trkpt lat="48.559146" lon="10.291422">
        <ele>442.832929</ele>
        <time>2025-05-18T17:47:05.304Z</time>
      </trkpt>
      <trkpt lat="48.559105" lon="10.291351">
        <ele>442.832389</ele>
        <time>2025-05-18T17:47:06.612Z</time>
      </trkpt>
      <trkpt lat="48.558663" lon="10.291965">
        <ele>442.827191</ele>
        <time>2025-05-18T17:47:19.438Z</time>
      </trkpt>
      <trkpt lat="48.558533" lon="10.292147">
        <ele>442.825657</ele>
        <time>2025-05-18T17:47:23.189Z</time>
      </trkpt>
      <trkpt lat="48.558294" lon="10.292485">
        <ele>442.812464</ele>
        <time>2025-05-18T17:47:30.077Z</time>
      </trkpt>
      <trkpt lat="48.558008" lon="10.292888">
        <ele>442.777933</ele>
        <time>2025-05-18T17:47:38.378Z</time>
      </trkpt>
      <trkpt lat="48.557990" lon="10.292915">
        <ele>442.775693</ele>
        <time>2025-05-18T17:47:38.934Z</time>
      </trkpt>
      <trkpt lat="48.557735" lon="10.293290">
        <ele>442.744272</ele>
        <time>2025-05-18T17:47:46.821Z</time>
      </trkpt>
      <trkpt lat="48.557520" lon="10.293587">
        <ele>442.718550</ele>
        <time>2025-05-18T17:47:53.299Z</time>
      </trkpt>
      <trkpt lat="48.557506" lon="10.293607">
        <ele>442.716848</ele>
        <time>2025-05-18T17:47:53.728Z</time>
      </trkpt>
      <trkpt lat="48.557379" lon="10.293794">
        <ele>442.701190</ele>
        <time>2025-05-18T17:47:57.666Z</time>
      </trkpt>
      <trkpt lat="48.557327" lon="10.293862">
        <ele>442.695117</ele>
        <time>2025-05-18T17:47:59.185Z</time>
      </trkpt>
      <trkpt lat="48.557240" lon="10.293978">
        <ele>442.684872</ele>
        <time>2025-05-18T17:48:01.746Z</time>
      </trkpt>
      <trkpt lat="48.557078" lon="10.294193">
        <ele>442.665833</ele>
        <time>2025-05-18T17:48:06.467Z</time>
      </trkpt>
      <trkpt lat="48.556986" lon="10.294315">
        <ele>442.656552</ele>
        <time>2025-05-18T17:48:09.123Z</time>
      </trkpt>
      <trkpt lat="48.556566" lon="10.294991">
        <ele>442.610554</ele>
        <time>2025-05-18T17:48:22.523Z</time>
      </trkpt>
      <trkpt lat="48.556441" lon="10.295349">
        <ele>442.590474</ele>
        <time>2025-05-18T17:48:28.302Z</time>
      </trkpt>
      <trkpt lat="48.556391" lon="10.295481">
        <ele>442.582928</ele>
        <time>2025-05-18T17:48:30.491Z</time>
      </trkpt>
      <trkpt lat="48.556361" lon="10.295554">
        <ele>442.578666</ele>
        <time>2025-05-18T17:48:31.709Z</time>
      </trkpt>
      <trkpt lat="48.556230" lon="10.295570">
        <ele>442.568815</ele>
        <time>2025-05-18T17:48:34.561Z</time>
      </trkpt>
      <trkpt lat="48.556131" lon="10.295531">
        <ele>442.561146</ele>
        <time>2025-05-18T17:48:36.779Z</time>
      </trkpt>
      <trkpt lat="48.556040" lon="10.295666">
        <ele>442.551587</ele>
        <time>2025-05-18T17:48:39.588Z</time>
      </trkpt>
      <trkpt lat="48.555923" lon="10.295883">
        <ele>442.537701</ele>
        <time>2025-05-18T17:48:43.696Z</time>
      </trkpt>
      <trkpt lat="48.555846" lon="10.296102">
        <ele>442.491211</ele>
        <time>2025-05-18T17:48:47.360Z</time>
      </trkpt>
      <trkpt lat="48.555541" lon="10.297228">
        <ele>442.011238</ele>
        <time>2025-05-18T17:49:04.741Z</time>
      </trkpt>
      <trkpt lat="48.555372" lon="10.297622">
        <ele>441.826018</ele>
        <time>2025-05-18T17:49:11.077Z</time>
      </trkpt>
      <trkpt lat="48.555207" lon="10.297894">
        <ele>441.680462</ele>
        <time>2025-05-18T17:49:16.054Z</time>
      </trkpt>
      <trkpt lat="48.554983" lon="10.298240">
        <ele>441.489524</ele>
        <time>2025-05-18T17:49:22.485Z</time>
      </trkpt>
      <trkpt lat="48.554826" lon="10.298499">
        <ele>441.309269</ele>
        <time>2025-05-18T17:49:27.082Z</time>
      </trkpt>
      <trkpt lat="48.554048" lon="10.299084">
        <ele>440.590002</ele>
        <time>2025-05-18T17:49:43.995Z</time>
      </trkpt>
      <trkpt lat="48.553549" lon="10.299603">
        <ele>440.088588</ele>
        <time>2025-05-18T17:49:56.987Z</time>
      </trkpt>
      <trkpt lat="48.553462" lon="10.299830">
        <ele>439.979302</ele>
        <time>2025-05-18T17:50:00.771Z</time>
      </trkpt>
      <trkpt lat="48.553298" lon="10.299965">
        <ele>440.039950</ele>
        <time>2025-05-18T17:50:04.833Z</time>
      </trkpt>
      <trkpt lat="48.553190" lon="10.300014">
        <ele>440.076569</ele>
        <time>2025-05-18T17:50:07.289Z</time>
      </trkpt>
      <trkpt lat="48.553114" lon="10.299962">
        <ele>440.103661</ele>
        <time>2025-05-18T17:50:09.127Z</time>
      </trkpt>
      <trkpt lat="48.552683" lon="10.299298">
        <ele>440.303560</ele>
        <time>2025-05-18T17:50:22.786Z</time>
      </trkpt>
      <trkpt lat="48.552540" lon="10.299270">
        <ele>440.350385</ele>
        <time>2025-05-18T17:50:26.079Z</time>
      </trkpt>
      <trkpt lat="48.552396" lon="10.299338">
        <ele>440.399378</ele>
        <time>2025-05-18T17:50:29.513Z</time>
      </trkpt>
      <trkpt lat="48.551943" lon="10.299605">
        <ele>440.556167</ele>
        <time>2025-05-18T17:50:40.761Z</time>
      </trkpt>
      <trkpt lat="48.551790" lon="10.299641">
        <ele>440.590892</ele>
        <time>2025-05-18T17:50:44.338Z</time>
      </trkpt>
      <trkpt lat="48.551711" lon="10.299670">
        <ele>440.609124</ele>
        <time>2025-05-18T17:50:46.216Z</time>
      </trkpt>
      <trkpt lat="48.551642" lon="10.299682">
        <ele>440.624700</ele>
        <time>2025-05-18T17:50:47.815Z</time>
      </trkpt>
      <trkpt lat="48.551562" lon="10.299691">
        <ele>440.642690</ele>
        <time>2025-05-18T17:50:49.587Z</time>
      </trkpt>
      <trkpt lat="48.550812" lon="10.299745">
        <ele>440.811076</ele>
        <time>2025-05-18T17:51:06.083Z</time>
      </trkpt>
      <trkpt lat="48.550764" lon="10.299973">
        <ele>440.846593</ele>
        <time>2025-05-18T17:51:09.466Z</time>
      </trkpt>
      <trkpt lat="48.550726" lon="10.300182">
        <ele>440.878768</ele>
        <time>2025-05-18T17:51:12.445Z</time>
      </trkpt>
      <trkpt lat="48.550610" lon="10.300615">
        <ele>440.948111</ele>
        <time>2025-05-18T17:51:18.620Z</time>
      </trkpt>
      <trkpt lat="48.550596" lon="10.300662">
        <ele>440.955762</ele>
        <time>2025-05-18T17:51:19.298Z</time>
      </trkpt>
      <trkpt lat="48.550464" lon="10.301112">
        <ele>440.756273</ele>
        <time>2025-05-18T17:51:25.707Z</time>
      </trkpt>
      <trkpt lat="48.550325" lon="10.301525">
        <ele>440.563915</ele>
        <time>2025-05-18T17:51:31.680Z</time>
      </trkpt>
      <trkpt lat="48.550528" lon="10.301697">
        <ele>440.417937</ele>
        <time>2025-05-18T17:51:36.277Z</time>
      </trkpt>
      <trkpt lat="48.550560" lon="10.301791">
        <ele>440.374052</ele>
        <time>2025-05-18T17:51:37.666Z</time>
      </trkpt>
      <trkpt lat="48.550566" lon="10.301913">
        <ele>440.323261</ele>
        <time>2025-05-18T17:51:39.256Z</time>
      </trkpt>
      <trkpt lat="48.550281" lon="10.302496">
        <ele>440.022365</ele>
        <time>2025-05-18T17:51:48.758Z</time>
      </trkpt>
      <trkpt lat="48.550107" lon="10.303126">
        <ele>439.891010</ele>
        <time>2025-05-18T17:51:57.883Z</time>
      </trkpt>
      <trkpt lat="48.550064" lon="10.303455">
        <ele>439.987016</ele>
        <time>2025-05-18T17:52:02.579Z</time>
      </trkpt>
      <trkpt lat="48.550046" lon="10.304247">
        <ele>440.213888</ele>
        <time>2025-05-18T17:52:13.995Z</time>
      </trkpt>
      <trkpt lat="48.550026" lon="10.304318">
        <ele>440.235978</ele>
        <time>2025-05-18T17:52:15.117Z</time>
      </trkpt>
      <trkpt lat="48.549993" lon="10.304375">
        <ele>440.257657</ele>
        <time>2025-05-18T17:52:16.231Z</time>
      </trkpt>
      <trkpt lat="48.549707" lon="10.304425">
        <ele>440.382171</ele>
        <time>2025-05-18T17:52:22.631Z</time>
      </trkpt>
      <trkpt lat="48.549530" lon="10.304330">
        <ele>440.463408</ele>
        <time>2025-05-18T17:52:26.832Z</time>
      </trkpt>
      <trkpt lat="48.549414" lon="10.304776">
        <ele>440.600594</ele>
        <time>2025-05-18T17:52:33.884Z</time>
      </trkpt>
      <trkpt lat="48.549419" lon="10.304809">
        <ele>440.613132</ele>
        <time>2025-05-18T17:52:34.378Z</time>
      </trkpt>
      <trkpt lat="48.549452" lon="10.305026">
        <ele>440.729279</ele>
        <time>2025-05-18T17:52:37.653Z</time>
      </trkpt>
      <trkpt lat="48.549484" lon="10.305252">
        <ele>440.849840</ele>
        <time>2025-05-18T17:52:41.098Z</time>
      </trkpt>
      <trkpt lat="48.549492" lon="10.305314">
        <ele>440.882791</ele>
        <time>2025-05-18T17:52:42.054Z</time>
      </trkpt>
      <trkpt lat="48.549510" lon="10.305481">
        <ele>440.971054</ele>
        <time>2025-05-18T17:52:44.602Z</time>
      </trkpt>
      <trkpt lat="48.549528" lon="10.305644">
        <ele>441.057258</ele>
        <time>2025-05-18T17:52:47.092Z</time>
      </trkpt>
      <trkpt lat="48.549553" lon="10.305879">
        <ele>441.181419</ele>
        <time>2025-05-18T17:52:50.725Z</time>
      </trkpt>
      <trkpt lat="48.549587" lon="10.306235">
        <ele>441.369049</ele>
        <time>2025-05-18T17:52:56.191Z</time>
      </trkpt>
      <trkpt lat="48.549594" lon="10.306292">
        <ele>441.399291</ele>
        <time>2025-05-18T17:52:57.050Z</time>
      </trkpt>
      <trkpt lat="48.549599" lon="10.306345">
        <ele>441.427218</ele>
        <time>2025-05-18T17:52:57.854Z</time>
      </trkpt>
      <trkpt lat="48.549619" lon="10.306524">
        <ele>441.521914</ele>
        <time>2025-05-18T17:53:00.550Z</time>
      </trkpt>
      <trkpt lat="48.549596" lon="10.306670">
        <ele>441.600202</ele>
        <time>2025-05-18T17:53:02.760Z</time>
      </trkpt>
      <trkpt lat="48.549536" lon="10.306789">
        <ele>441.678234</ele>
        <time>2025-05-18T17:53:04.934Z</time>
      </trkpt>
      <trkpt lat="48.549089" lon="10.306969">
        <ele>442.015807</ele>
        <time>2025-05-18T17:53:14.698Z</time>
      </trkpt>
      <trkpt lat="48.549082" lon="10.307101">
        <ele>441.984596</ele>
        <time>2025-05-18T17:53:16.536Z</time>
      </trkpt>
      <trkpt lat="48.549067" lon="10.307372">
        <ele>441.920501</ele>
        <time>2025-05-18T17:53:20.361Z</time>
      </trkpt>
      <trkpt lat="48.549044" lon="10.307837">
        <ele>441.810599</ele>
        <time>2025-05-18T17:53:26.858Z</time>
      </trkpt>
      <trkpt lat="48.549036" lon="10.308005">
        <ele>441.770901</ele>
        <time>2025-05-18T17:53:29.123Z</time>
      </trkpt>
      <trkpt lat="48.548995" lon="10.308145">
        <ele>441.734819</ele>
        <time>2025-05-18T17:53:31.126Z</time>
      </trkpt>
      <trkpt lat="48.548981" lon="10.308189">
        <ele>441.723313</ele>
        <time>2025-05-18T17:53:31.782Z</time>
      </trkpt>
      <trkpt lat="48.548941" lon="10.308444">
        <ele>441.661547</ele>
        <time>2025-05-18T17:53:35.219Z</time>
      </trkpt>
      <trkpt lat="48.548931" lon="10.308494">
        <ele>441.649237</ele>
        <time>2025-05-18T17:53:35.880Z</time>
      </trkpt>
      <trkpt lat="48.548848" lon="10.308905">
        <ele>441.547960</ele>
        <time>2025-05-18T17:53:41.474Z</time>
      </trkpt>
      <trkpt lat="48.548822" lon="10.309030">
        <ele>441.517078</ele>
        <time>2025-05-18T17:53:43.178Z</time>
      </trkpt>
      <trkpt lat="48.548804" lon="10.309119">
        <ele>441.495145</ele>
        <time>2025-05-18T17:53:44.425Z</time>
      </trkpt>
      <trkpt lat="48.548769" lon="10.309292">
        <ele>441.452508</ele>
        <time>2025-05-18T17:53:46.851Z</time>
      </trkpt>
      <trkpt lat="48.548740" lon="10.309437">
        <ele>441.416807</ele>
        <time>2025-05-18T17:53:48.882Z</time>
      </trkpt>
      <trkpt lat="48.548690" lon="10.309652">
        <ele>441.388608</ele>
        <time>2025-05-18T17:53:52.015Z</time>
      </trkpt>
      <trkpt lat="48.548642" lon="10.309856">
        <ele>441.400420</ele>
        <time>2025-05-18T17:53:54.961Z</time>
      </trkpt>
      <trkpt lat="48.548630" lon="10.309907">
        <ele>441.403373</ele>
        <time>2025-05-18T17:53:55.722Z</time>
      </trkpt>
      <trkpt lat="48.548554" lon="10.310229">
        <ele>441.422024</ele>
        <time>2025-05-18T17:54:00.431Z</time>
      </trkpt>
      <trkpt lat="48.548515" lon="10.310388">
        <ele>441.431275</ele>
        <time>2025-05-18T17:54:02.736Z</time>
      </trkpt>
      <trkpt lat="48.548493" lon="10.310474">
        <ele>441.436306</ele>
        <time>2025-05-18T17:54:03.979Z</time>
      </trkpt>
      <trkpt lat="48.548439" lon="10.310694">
        <ele>441.449107</ele>
        <time>2025-05-18T17:54:07.145Z</time>
      </trkpt>
      <trkpt lat="48.548366" lon="10.310986">
        <ele>441.466137</ele>
        <time>2025-05-18T17:54:11.411Z</time>
      </trkpt>
      <trkpt lat="48.548306" lon="10.311231">
        <ele>441.480389</ele>
        <time>2025-05-18T17:54:15.124Z</time>
      </trkpt>
      <trkpt lat="48.548291" lon="10.311283">
        <ele>441.483484</ele>
        <time>2025-05-18T17:54:15.925Z</time>
      </trkpt>
      <trkpt lat="48.548256" lon="10.311427">
        <ele>441.491853</ele>
        <time>2025-05-18T17:54:18.158Z</time>
      </trkpt>
      <trkpt lat="48.548235" lon="10.311511">
        <ele>441.496752</ele>
        <time>2025-05-18T17:54:19.448Z</time>
      </trkpt>
      <trkpt lat="48.548201" lon="10.311647">
        <ele>441.504684</ele>
        <time>2025-05-18T17:54:21.569Z</time>
      </trkpt>
      <trkpt lat="48.548139" lon="10.311890">
        <ele>441.518892</ele>
        <time>2025-05-18T17:54:25.377Z</time>
      </trkpt>
      <trkpt lat="48.548085" lon="10.312079">
        <ele>441.530124</ele>
        <time>2025-05-18T17:54:28.402Z</time>
      </trkpt>
      <trkpt lat="48.548100" lon="10.312263">
        <ele>441.602576</ele>
        <time>2025-05-18T17:54:31.121Z</time>
      </trkpt>
      <trkpt lat="48.548078" lon="10.312804">
        <ele>441.857335</ele>
        <time>2025-05-18T17:54:39.045Z</time>
      </trkpt>
      <trkpt lat="48.548077" lon="10.312818">
        <ele>441.863953</ele>
        <time>2025-05-18T17:54:39.254Z</time>
      </trkpt>
      <trkpt lat="48.548070" lon="10.312861">
        <ele>441.884766</ele>
        <time>2025-05-18T17:54:39.912Z</time>
      </trkpt>
      <trkpt lat="48.548058" lon="10.312909">
        <ele>441.908882</ele>
        <time>2025-05-18T17:54:40.657Z</time>
      </trkpt>
      <trkpt lat="48.548053" lon="10.312922">
        <ele>441.915949</ele>
        <time>2025-05-18T17:54:40.890Z</time>
      </trkpt>
      <trkpt lat="48.547985" lon="10.313096">
        <ele>442.010920</ele>
        <time>2025-05-18T17:54:43.915Z</time>
      </trkpt>
      <trkpt lat="48.547893" lon="10.313219">
        <ele>442.098150</ele>
        <time>2025-05-18T17:54:46.707Z</time>
      </trkpt>
      <trkpt lat="48.547759" lon="10.313326">
        <ele>442.205766</ele>
        <time>2025-05-18T17:54:50.138Z</time>
      </trkpt>
      <trkpt lat="48.547542" lon="10.313557">
        <ele>442.394251</ele>
        <time>2025-05-18T17:54:56.124Z</time>
      </trkpt>
      <trkpt lat="48.547493" lon="10.313637">
        <ele>442.445478</ele>
        <time>2025-05-18T17:54:57.738Z</time>
      </trkpt>
      <trkpt lat="48.547537" lon="10.314058">
        <ele>442.645809</ele>
        <time>2025-05-18T17:55:04.015Z</time>
      </trkpt>
      <trkpt lat="48.547542" lon="10.314224">
        <ele>442.723914</ele>
        <time>2025-05-18T17:55:06.474Z</time>
      </trkpt>
      <trkpt lat="48.547547" lon="10.314346">
        <ele>442.781366</ele>
        <time>2025-05-18T17:55:08.251Z</time>
      </trkpt>
      <trkpt lat="48.547551" lon="10.314476">
        <ele>442.791051</ele>
        <time>2025-05-18T17:55:10.133Z</time>
      </trkpt>
      <trkpt lat="48.547554" lon="10.314613">
        <ele>442.756268</ele>
        <time>2025-05-18T17:55:12.055Z</time>
      </trkpt>
      <trkpt lat="48.547314" lon="10.315137">
        <ele>442.594579</ele>
        <time>2025-05-18T17:55:20.626Z</time>
      </trkpt>
      <trkpt lat="48.547207" lon="10.315309">
        <ele>442.534687</ele>
        <time>2025-05-18T17:55:23.713Z</time>
      </trkpt>
      <trkpt lat="48.547197" lon="10.315727">
        <ele>442.428548</ele>
        <time>2025-05-18T17:55:29.174Z</time>
      </trkpt>
      <trkpt lat="48.547220" lon="10.316676">
        <ele>442.187574</ele>
        <time>2025-05-18T17:55:41.679Z</time>
      </trkpt>
      <trkpt lat="48.547104" lon="10.316667">
        <ele>442.143051</ele>
        <time>2025-05-18T17:55:44.053Z</time>
      </trkpt>
      <trkpt lat="48.546924" lon="10.316655">
        <ele>442.106049</ele>
        <time>2025-05-18T17:55:47.739Z</time>
      </trkpt>
      <trkpt lat="48.546863" lon="10.316650">
        <ele>442.099072</ele>
        <time>2025-05-18T17:55:48.995Z</time>
      </trkpt>
      <trkpt lat="48.546648" lon="10.316635">
        <ele>442.074490</ele>
        <time>2025-05-18T17:55:53.453Z</time>
      </trkpt>
      <trkpt lat="48.546549" lon="10.316628">
        <ele>442.063171</ele>
        <time>2025-05-18T17:55:55.500Z</time>
      </trkpt>
      <trkpt lat="48.546449" lon="10.316626">
        <ele>442.051748</ele>
        <time>2025-05-18T17:55:57.570Z</time>
      </trkpt>
      <trkpt lat="48.546383" lon="10.316625">
        <ele>442.044210</ele>
        <time>2025-05-18T17:55:58.963Z</time>
      </trkpt>
      <trkpt lat="48.546115" lon="10.316621">
        <ele>442.013599</ele>
        <time>2025-05-18T17:56:04.554Z</time>
      </trkpt>
      <trkpt lat="48.545823" lon="10.316615">
        <ele>441.980246</ele>
        <time>2025-05-18T17:56:10.760Z</time>
      </trkpt>
      <trkpt lat="48.545829" lon="10.316539">
        <ele>441.974458</ele>
        <time>2025-05-18T17:56:11.848Z</time>
      </trkpt>
      <trkpt lat="48.545838" lon="10.316421">
        <ele>441.965477</ele>
        <time>2025-05-18T17:56:13.536Z</time>
      </trkpt>
      <trkpt lat="48.545854" lon="10.316221">
        <ele>441.950245</ele>
        <time>2025-05-18T17:56:16.372Z</time>
      </trkpt>
      <trkpt lat="48.545684" lon="10.316235">
        <ele>441.930800</ele>
        <time>2025-05-18T17:56:19.958Z</time>
      </trkpt>
      <trkpt lat="48.545474" lon="10.316252">
        <ele>441.925573</ele>
        <time>2025-05-18T17:56:24.347Z</time>
      </trkpt>
      <trkpt lat="48.545347" lon="10.316262">
        <ele>441.947698</ele>
        <time>2025-05-18T17:56:27.001Z</time>
      </trkpt>
      <trkpt lat="48.545260" lon="10.316269">
        <ele>441.962855</ele>
        <time>2025-05-18T17:56:28.817Z</time>
      </trkpt>
      <trkpt lat="48.545119" lon="10.316287">
        <ele>441.987473</ele>
        <time>2025-05-18T17:56:31.789Z</time>
      </trkpt>
      <trkpt lat="48.544807" lon="10.316326">
        <ele>442.041938</ele>
        <time>2025-05-18T17:56:38.474Z</time>
      </trkpt>
      <trkpt lat="48.544686" lon="10.316341">
        <ele>442.063060</ele>
        <time>2025-05-18T17:56:41.044Z</time>
      </trkpt>
      <trkpt lat="48.544562" lon="10.316351">
        <ele>442.084663</ele>
        <time>2025-05-18T17:56:43.726Z</time>
      </trkpt>
      <trkpt lat="48.544379" lon="10.316360">
        <ele>442.116517</ele>
        <time>2025-05-18T17:56:47.650Z</time>
      </trkpt>
      <trkpt lat="48.543907" lon="10.316465">
        <ele>442.199519</ele>
        <time>2025-05-18T17:56:58.037Z</time>
      </trkpt>
      <trkpt lat="48.543827" lon="10.316483">
        <ele>442.213590</ele>
        <time>2025-05-18T17:56:59.834Z</time>
      </trkpt>
      <trkpt lat="48.543093" lon="10.316718">
        <ele>442.067363</ele>
        <time>2025-05-18T17:57:15.829Z</time>
      </trkpt>
      <trkpt lat="48.542924" lon="10.316887">
        <ele>442.019199</ele>
        <time>2025-05-18T17:57:19.992Z</time>
      </trkpt>
      <trkpt lat="48.542881" lon="10.317170">
        <ele>441.973518</ele>
        <time>2025-05-18T17:57:23.924Z</time>
      </trkpt>
      <trkpt lat="48.542831" lon="10.317917">
        <ele>441.855396</ele>
        <time>2025-05-18T17:57:33.973Z</time>
      </trkpt>
      <trkpt lat="48.542765" lon="10.318252">
        <ele>441.800408</ele>
        <time>2025-05-18T17:57:38.662Z</time>
      </trkpt>
      <trkpt lat="48.542455" lon="10.319194">
        <ele>441.428831</ele>
        <time>2025-05-18T17:57:52.389Z</time>
      </trkpt>
      <trkpt lat="48.542319" lon="10.319518">
        <ele>441.293014</ele>
        <time>2025-05-18T17:57:57.416Z</time>
      </trkpt>
      <trkpt lat="48.542189" lon="10.319575">
        <ele>441.220628</ele>
        <time>2025-05-18T17:58:00.107Z</time>
      </trkpt>
      <trkpt lat="48.541074" lon="10.319602">
        <ele>440.830464</ele>
        <time>2025-05-18T17:58:22.954Z</time>
      </trkpt>
      <trkpt lat="48.540131" lon="10.319570">
        <ele>440.812848</ele>
        <time>2025-05-18T17:58:42.978Z</time>
      </trkpt>
      <trkpt lat="48.539788" lon="10.319602">
        <ele>440.806430</ele>
        <time>2025-05-18T17:58:50.422Z</time>
      </trkpt>
      <trkpt lat="48.538271" lon="10.319943">
        <ele>440.522381</ele>
        <time>2025-05-18T17:59:22.256Z</time>
      </trkpt>
      <trkpt lat="48.536156" lon="10.320655">
        <ele>439.664122</ele>
        <time>2025-05-18T18:00:06.501Z</time>
      </trkpt>
      <trkpt lat="48.535946" lon="10.321361">
        <ele>439.154597</ele>
        <time>2025-05-18T18:00:16.460Z</time>
      </trkpt>
      <trkpt lat="48.535862" lon="10.321556">
        <ele>438.999921</ele>
        <time>2025-05-18T18:00:19.418Z</time>
      </trkpt>
      <trkpt lat="48.535641" lon="10.321998">
        <ele>438.631664</ele>
        <time>2025-05-18T18:00:26.404Z</time>
      </trkpt>
      <trkpt lat="48.535426" lon="10.322308">
        <ele>438.333179</ele>
        <time>2025-05-18T18:00:32.033Z</time>
      </trkpt>
      <trkpt lat="48.535052" lon="10.322659">
        <ele>437.891023</ele>
        <time>2025-05-18T18:00:40.410Z</time>
      </trkpt>
      <trkpt lat="48.534665" lon="10.322933">
        <ele>437.577062</ele>
        <time>2025-05-18T18:00:48.692Z</time>
      </trkpt>
      <trkpt lat="48.533749" lon="10.323484">
        <ele>436.877812</ele>
        <time>2025-05-18T18:01:08.188Z</time>
      </trkpt>
      <trkpt lat="48.531591" lon="10.324824">
        <ele>435.924724</ele>
        <time>2025-05-18T18:01:55.890Z</time>
      </trkpt>
      <trkpt lat="48.529368" lon="10.326192">
        <ele>435.311501</ele>
        <time>2025-05-18T18:02:45.488Z</time>
      </trkpt>
      <trkpt lat="48.528523" lon="10.326726">
        <ele>435.098265</ele>
        <time>2025-05-18T18:03:04.251Z</time>
      </trkpt>
      <trkpt lat="48.527918" lon="10.327095">
        <ele>435.126252</ele>
        <time>2025-05-18T18:03:17.849Z</time>
      </trkpt>
      <trkpt lat="48.526649" lon="10.327875">
        <ele>435.315548</ele>
        <time>2025-05-18T18:03:47.410Z</time>
      </trkpt>
      <trkpt lat="48.525503" lon="10.328581">
        <ele>435.474929</ele>
        <time>2025-05-18T18:04:14.108Z</time>
      </trkpt>
      <trkpt lat="48.524113" lon="10.329439">
        <ele>435.364838</ele>
        <time>2025-05-18T18:04:45.071Z</time>
      </trkpt>
      <trkpt lat="48.523534" lon="10.329814">
        <ele>435.254127</ele>
        <time>2025-05-18T18:04:58.203Z</time>
      </trkpt>
      <trkpt lat="48.523391" lon="10.330074">
        <ele>435.234109</ele>
        <time>2025-05-18T18:05:02.893Z</time>
      </trkpt>
      <trkpt lat="48.523252" lon="10.330551">
        <ele>435.302125</ele>
        <time>2025-05-18T18:05:10.135Z</time>
      </trkpt>
      <trkpt lat="48.523149" lon="10.331028">
        <ele>435.367607</ele>
        <time>2025-05-18T18:05:17.124Z</time>
      </trkpt>
      <trkpt lat="48.523050" lon="10.331133">
        <ele>435.391448</ele>
        <time>2025-05-18T18:05:19.701Z</time>
      </trkpt>
      <trkpt lat="48.522170" lon="10.330900">
        <ele>435.567508</ele>
        <time>2025-05-18T18:05:39.154Z</time>
      </trkpt>
      <trkpt lat="48.521971" lon="10.331986">
        <ele>435.578428</ele>
        <time>2025-05-18T18:05:59.905Z</time>
      </trkpt>
      <trkpt lat="48.521842" lon="10.332693">
        <ele>435.578489</ele>
        <time>2025-05-18T18:06:13.368Z</time>
      </trkpt>
      <trkpt lat="48.521264" lon="10.333542">
        <ele>435.460989</ele>
        <time>2025-05-18T18:06:35.183Z</time>
      </trkpt>
      <trkpt lat="48.521048" lon="10.333896">
        <ele>435.258174</ele>
        <time>2025-05-18T18:06:43.585Z</time>
      </trkpt>
      <trkpt lat="48.520501" lon="10.334782">
        <ele>434.747798</ele>
        <time>2025-05-18T18:06:59.375Z</time>
      </trkpt>
      <trkpt lat="48.520066" lon="10.335477">
        <ele>434.427795</ele>
        <time>2025-05-18T18:07:12.186Z</time>
      </trkpt>
      <trkpt lat="48.519782" lon="10.335996">
        <ele>434.407182</ele>
        <time>2025-05-18T18:07:21.451Z</time>
      </trkpt>
      <trkpt lat="48.521513" lon="10.338518">
        <ele>434.447905</ele>
        <time>2025-05-18T18:08:12.578Z</time>
      </trkpt>
      <trkpt lat="48.519426" lon="10.341926">
        <ele>434.474767</ele>
        <time>2025-05-18T18:09:17.513Z</time>
      </trkpt>
      <trkpt lat="48.522655" lon="10.346486">
        <ele>434.283475</ele>
        <time>2025-05-18T18:10:50.251Z</time>
      </trkpt>
      <trkpt lat="48.522593" lon="10.346609">
        <ele>434.277714</ele>
        <time>2025-05-18T18:10:52.396Z</time>
      </trkpt>
      <trkpt lat="48.521067" lon="10.349891">
        <ele>434.048219</ele>
        <time>2025-05-18T18:11:47.892Z</time>
      </trkpt>
      <trkpt lat="48.519846" lon="10.352501">
        <ele>434.029739</ele>
        <time>2025-05-18T18:12:32.554Z</time>
      </trkpt>
      <trkpt lat="48.519754" lon="10.352825">
        <ele>434.036880</ele>
        <time>2025-05-18T18:12:37.499Z</time>
      </trkpt>
      <trkpt lat="48.519711" lon="10.353388">
        <ele>434.048359</ele>
        <time>2025-05-18T18:12:45.422Z</time>
      </trkpt>
      <trkpt lat="48.519672" lon="10.356426">
        <ele>433.888315</ele>
        <time>2025-05-18T18:13:27.466Z</time>
      </trkpt>
      <trkpt lat="48.519650" lon="10.358427">
        <ele>433.727646</ele>
        <time>2025-05-18T18:13:55.085Z</time>
      </trkpt>
      <trkpt lat="48.519591" lon="10.362654">
        <ele>433.488338</ele>
        <time>2025-05-18T18:14:53.674Z</time>
      </trkpt>
      <trkpt lat="48.518411" lon="10.362340">
        <ele>433.377328</ele>
        <time>2025-05-18T18:15:18.764Z</time>
      </trkpt>
      <trkpt lat="48.517719" lon="10.362162">
        <ele>433.197489</ele>
        <time>2025-05-18T18:15:33.313Z</time>
      </trkpt>
      <trkpt lat="48.517157" lon="10.361982">
        <ele>433.039196</ele>
        <time>2025-05-18T18:15:45.019Z</time>
      </trkpt>
      <trkpt lat="48.515909" lon="10.361281">
        <ele>432.822362</ele>
        <time>2025-05-18T18:16:12.481Z</time>
      </trkpt>
      <trkpt lat="48.515143" lon="10.360801">
        <ele>432.763125</ele>
        <time>2025-05-18T18:16:29.984Z</time>
      </trkpt>
      <trkpt lat="48.514523" lon="10.360494">
        <ele>432.761580</ele>
        <time>2025-05-18T18:16:43.952Z</time>
      </trkpt>
      <trkpt lat="48.510503" lon="10.359035">
        <ele>433.044145</ele>
        <time>2025-05-18T18:18:11.186Z</time>
      </trkpt>
      <trkpt lat="48.509841" lon="10.358745">
        <ele>433.164803</ele>
        <time>2025-05-18T18:18:26.097Z</time>
      </trkpt>
      <trkpt lat="48.509650" lon="10.358621">
        <ele>433.214695</ele>
        <time>2025-05-18T18:18:30.634Z</time>
      </trkpt>
      <trkpt lat="48.509196" lon="10.358206">
        <ele>433.439599</ele>
        <time>2025-05-18T18:18:42.245Z</time>
      </trkpt>
      <trkpt lat="48.509070" lon="10.358077">
        <ele>433.504113</ele>
        <time>2025-05-18T18:18:45.715Z</time>
      </trkpt>
      <trkpt lat="48.508980" lon="10.357956">
        <ele>433.555184</ele>
        <time>2025-05-18T18:18:48.347Z</time>
      </trkpt>
      <trkpt lat="48.508385" lon="10.356966">
        <ele>433.930429</ele>
        <time>2025-05-18T18:19:07.698Z</time>
      </trkpt>
      <trkpt lat="48.507981" lon="10.356491">
        <ele>434.045059</ele>
        <time>2025-05-18T18:19:18.704Z</time>
      </trkpt>
      <trkpt lat="48.507849" lon="10.356418">
        <ele>434.073127</ele>
        <time>2025-05-18T18:19:21.697Z</time>
      </trkpt>
      <trkpt lat="48.504672" lon="10.354659">
        <ele>434.751275</ele>
        <time>2025-05-18T18:20:34.097Z</time>
      </trkpt>
      <trkpt lat="48.504330" lon="10.354498">
        <ele>434.872296</ele>
        <time>2025-05-18T18:20:41.793Z</time>
      </trkpt>
      <trkpt lat="48.500643" lon="10.353331">
        <ele>436.067025</ele>
        <time>2025-05-18T18:22:03.760Z</time>
      </trkpt>
      <trkpt lat="48.500373" lon="10.353152">
        <ele>436.141470</ele>
        <time>2025-05-18T18:22:10.116Z</time>
      </trkpt>
      <trkpt lat="48.500014" lon="10.352803">
        <ele>436.249272</ele>
        <time>2025-05-18T18:22:19.237Z</time>
      </trkpt>
      <trkpt lat="48.499498" lon="10.352362">
        <ele>436.256673</ele>
        <time>2025-05-18T18:22:31.752Z</time>
      </trkpt>
      <trkpt lat="48.499123" lon="10.352142">
        <ele>436.224661</ele>
        <time>2025-05-18T18:22:40.144Z</time>
      </trkpt>
      <trkpt lat="48.498137" lon="10.352025">
        <ele>436.148075</ele>
        <time>2025-05-18T18:23:00.643Z</time>
      </trkpt>
      <trkpt lat="48.497294" lon="10.352131">
        <ele>436.164425</ele>
        <time>2025-05-18T18:23:18.538Z</time>
      </trkpt>
      <trkpt lat="48.496616" lon="10.352354">
        <ele>436.177837</ele>
        <time>2025-05-18T18:23:33.249Z</time>
      </trkpt>
      <trkpt lat="48.494906" lon="10.352993">
        <ele>436.354414</ele>
        <time>2025-05-18T18:24:10.452Z</time>
      </trkpt>
      <trkpt lat="48.493877" lon="10.353265">
        <ele>436.698054</ele>
        <time>2025-05-18T18:24:33.294Z</time>
      </trkpt>
      <trkpt lat="48.493568" lon="10.353404">
        <ele>436.828951</ele>
        <time>2025-05-18T18:24:40.474Z</time>
      </trkpt>
      <trkpt lat="48.493344" lon="10.353601">
        <ele>436.934203</ele>
        <time>2025-05-18T18:24:46.210Z</time>
      </trkpt>
      <trkpt lat="48.493394" lon="10.354402">
        <ele>437.067896</ele>
        <time>2025-05-18T18:24:57.837Z</time>
      </trkpt>
      <trkpt lat="48.493513" lon="10.357435">
        <ele>435.925920</ele>
        <time>2025-05-18T18:25:37.819Z</time>
      </trkpt>
      <trkpt lat="48.493489" lon="10.357672">
        <ele>435.821587</ele>
        <time>2025-05-18T18:25:40.920Z</time>
      </trkpt>
      <trkpt lat="48.493327" lon="10.358131">
        <ele>435.595281</ele>
        <time>2025-05-18T18:25:47.686Z</time>
      </trkpt>
      <trkpt lat="48.492326" lon="10.360029">
        <ele>434.673300</ele>
        <time>2025-05-18T18:26:19.898Z</time>
      </trkpt>
      <trkpt lat="48.492101" lon="10.360704">
        <ele>434.453508</ele>
        <time>2025-05-18T18:26:30.046Z</time>
      </trkpt>
      <trkpt lat="48.491791" lon="10.361978">
        <ele>434.134852</ele>
        <time>2025-05-18T18:26:48.574Z</time>
      </trkpt>
      <trkpt lat="48.491732" lon="10.362492">
        <ele>434.105404</ele>
        <time>2025-05-18T18:26:55.728Z</time>
      </trkpt>
      <trkpt lat="48.491788" lon="10.363020">
        <ele>434.075218</ele>
        <time>2025-05-18T18:27:03.133Z</time>
      </trkpt>
      <trkpt lat="48.492092" lon="10.364284">
        <ele>434.000732</ele>
        <time>2025-05-18T18:27:21.948Z</time>
      </trkpt>
      <trkpt lat="48.492137" lon="10.364598">
        <ele>434.021383</ele>
        <time>2025-05-18T18:27:26.426Z</time>
      </trkpt>
      <trkpt lat="48.492054" lon="10.364791">
        <ele>434.036172</ele>
        <time>2025-05-18T18:27:29.622Z</time>
      </trkpt>
      <trkpt lat="48.491876" lon="10.364552">
        <ele>434.059283</ele>
        <time>2025-05-18T18:27:34.613Z</time>
      </trkpt>
      <trkpt lat="48.491806" lon="10.364519">
        <ele>434.066396</ele>
        <time>2025-05-18T18:27:36.164Z</time>
      </trkpt>
      <trkpt lat="48.491770" lon="10.364544">
        <ele>434.070240</ele>
        <time>2025-05-18T18:27:36.997Z</time>
      </trkpt>
      <trkpt lat="48.491756" lon="10.364662">
        <ele>434.077946</ele>
        <time>2025-05-18T18:27:38.735Z</time>
      </trkpt>
      <trkpt lat="48.491772" lon="10.364761">
        <ele>434.084496</ele>
        <time>2025-05-18T18:27:40.224Z</time>
      </trkpt>
      <trkpt lat="48.491793" lon="10.364886">
        <ele>434.092786</ele>
        <time>2025-05-18T18:27:42.100Z</time>
      </trkpt>
      <trkpt lat="48.491875" lon="10.365150">
        <ele>434.111527</ele>
        <time>2025-05-18T18:27:46.372Z</time>
      </trkpt>
      <trkpt lat="48.491930" lon="10.365208">
        <ele>434.118035</ele>
        <time>2025-05-18T18:27:47.838Z</time>
      </trkpt>
      <trkpt lat="48.492025" lon="10.365235">
        <ele>434.127412</ele>
        <time>2025-05-18T18:27:49.947Z</time>
      </trkpt>
      <trkpt lat="48.492069" lon="10.365297">
        <ele>434.133251</ele>
        <time>2025-05-18T18:27:51.250Z</time>
      </trkpt>
      <trkpt lat="48.492133" lon="10.365521">
        <ele>434.148931</ele>
        <time>2025-05-18T18:27:55.018Z</time>
      </trkpt>
      <trkpt lat="48.492069" lon="10.365297">
        <ele>434.164611</ele>
        <time>2025-05-18T18:27:58.801Z</time>
      </trkpt>
      <trkpt lat="48.492025" lon="10.365235">
        <ele>434.170451</ele>
        <time>2025-05-18T18:28:00.132Z</time>
      </trkpt>
      <trkpt lat="48.491930" lon="10.365208">
        <ele>434.238643</ele>
        <time>2025-05-18T18:28:02.280Z</time>
      </trkpt>
      <trkpt lat="48.491875" lon="10.365150">
        <ele>434.316136</ele>
        <time>2025-05-18T18:28:03.792Z</time>
      </trkpt>
      <trkpt lat="48.491793" lon="10.364886">
        <ele>434.539284</ele>
        <time>2025-05-18T18:28:08.212Z</time>
      </trkpt>
      <trkpt lat="48.491756" lon="10.364662">
        <ele>434.715972</ele>
        <time>2025-05-18T18:28:11.748Z</time>
      </trkpt>
      <trkpt lat="48.491770" lon="10.364544">
        <ele>434.807722</ele>
        <time>2025-05-18T18:28:13.591Z</time>
      </trkpt>
      <trkpt lat="48.491806" lon="10.364519">
        <ele>434.853489</ele>
        <time>2025-05-18T18:28:14.492Z</time>
      </trkpt>
      <trkpt lat="48.491876" lon="10.364552">
        <ele>434.938184</ele>
        <time>2025-05-18T18:28:16.152Z</time>
      </trkpt>
      <trkpt lat="48.492054" lon="10.364791">
        <ele>435.213355</ele>
        <time>2025-05-18T18:28:21.636Z</time>
      </trkpt>
      <trkpt lat="48.491960" lon="10.364931">
        <ele>435.365888</ele>
        <time>2025-05-18T18:28:24.669Z</time>
      </trkpt>
      <trkpt lat="48.491092" lon="10.365334">
        <ele>436.321545</ele>
        <time>2025-05-18T18:28:46.189Z</time>
      </trkpt>
      <trkpt lat="48.490775" lon="10.365467">
        <ele>436.484433</ele>
        <time>2025-05-18T18:28:53.738Z</time>
      </trkpt>
      <trkpt lat="48.490545" lon="10.365675">
        <ele>436.617182</ele>
        <time>2025-05-18T18:28:59.796Z</time>
      </trkpt>
      <trkpt lat="48.490471" lon="10.365661">
        <ele>436.654104</ele>
        <time>2025-05-18T18:29:01.463Z</time>
      </trkpt>
      <trkpt lat="48.490344" lon="10.365507">
        <ele>436.734763</ele>
        <time>2025-05-18T18:29:05.021Z</time>
      </trkpt>
      <trkpt lat="48.490216" lon="10.365545">
        <ele>436.799346</ele>
        <time>2025-05-18T18:29:07.841Z</time>
      </trkpt>
      <trkpt lat="48.490214" lon="10.365628">
        <ele>436.826596</ele>
        <time>2025-05-18T18:29:08.995Z</time>
      </trkpt>
      <trkpt lat="48.490020" lon="10.365662">
        <ele>436.923284</ele>
        <time>2025-05-18T18:29:13.015Z</time>
      </trkpt>
      <trkpt lat="48.489986" lon="10.365669">
        <ele>436.940272</ele>
        <time>2025-05-18T18:29:13.717Z</time>
      </trkpt>
      <trkpt lat="48.489913" lon="10.365688">
        <ele>436.976945</ele>
        <time>2025-05-18T18:29:15.207Z</time>
      </trkpt>
      <trkpt lat="48.489578" lon="10.365769">
        <ele>437.140726</ele>
        <time>2025-05-18T18:29:22.032Z</time>
      </trkpt>
      <trkpt lat="48.489346" lon="10.365822">
        <ele>437.084675</ele>
        <time>2025-05-18T18:29:26.698Z</time>
      </trkpt>
      <trkpt lat="48.488967" lon="10.365876">
        <ele>436.993738</ele>
        <time>2025-05-18T18:29:34.307Z</time>
      </trkpt>
      <trkpt lat="48.488813" lon="10.365889">
        <ele>436.956894</ele>
        <time>2025-05-18T18:29:37.432Z</time>
      </trkpt>
      <trkpt lat="48.488447" lon="10.365819">
        <ele>436.868766</ele>
        <time>2025-05-18T18:29:44.995Z</time>
      </trkpt>
      <trkpt lat="48.488214" lon="10.365747">
        <ele>436.811952</ele>
        <time>2025-05-18T18:29:49.982Z</time>
      </trkpt>
      <trkpt lat="48.488048" lon="10.365646">
        <ele>436.769196</ele>
        <time>2025-05-18T18:29:53.836Z</time>
      </trkpt>
      <trkpt lat="48.487742" lon="10.365450">
        <ele>436.698183</ele>
        <time>2025-05-18T18:30:01.070Z</time>
      </trkpt>
      <trkpt lat="48.487575" lon="10.365331">
        <ele>436.670424</ele>
        <time>2025-05-18T18:30:05.044Z</time>
      </trkpt>
      <trkpt lat="48.487473" lon="10.365259">
        <ele>436.653498</ele>
        <time>2025-05-18T18:30:07.454Z</time>
      </trkpt>
      <trkpt lat="48.487310" lon="10.365156">
        <ele>436.626936</ele>
        <time>2025-05-18T18:30:11.207Z</time>
      </trkpt>
      <trkpt lat="48.487052" lon="10.364956">
        <ele>436.583338</ele>
        <time>2025-05-18T18:30:17.361Z</time>
      </trkpt>
      <trkpt lat="48.486947" lon="10.364815">
        <ele>436.562210</ele>
        <time>2025-05-18T18:30:20.303Z</time>
      </trkpt>
      <trkpt lat="48.486877" lon="10.364916">
        <ele>436.547652</ele>
        <time>2025-05-18T18:30:22.393Z</time>
      </trkpt>
      <trkpt lat="48.486771" lon="10.365337">
        <ele>436.502787</ele>
        <time>2025-05-18T18:30:28.747Z</time>
      </trkpt>
      <trkpt lat="48.486702" lon="10.365609">
        <ele>436.473773</ele>
        <time>2025-05-18T18:30:32.804Z</time>
      </trkpt>
      <trkpt lat="48.486662" lon="10.365767">
        <ele>436.456924</ele>
        <time>2025-05-18T18:30:35.167Z</time>
      </trkpt>
      <trkpt lat="48.486644" lon="10.365834">
        <ele>436.449722</ele>
        <time>2025-05-18T18:30:36.189Z</time>
      </trkpt>
      <trkpt lat="48.486479" lon="10.366512">
        <ele>436.275502</ele>
        <time>2025-05-18T18:30:46.158Z</time>
      </trkpt>
      <trkpt lat="48.486428" lon="10.366704">
        <ele>436.222131</ele>
        <time>2025-05-18T18:30:48.997Z</time>
      </trkpt>
      <trkpt lat="48.486273" lon="10.366930">
        <ele>436.138218</ele>
        <time>2025-05-18T18:30:53.509Z</time>
      </trkpt>
      <trkpt lat="48.486151" lon="10.367101">
        <ele>436.073392</ele>
        <time>2025-05-18T18:30:57.028Z</time>
      </trkpt>
      <trkpt lat="48.486112" lon="10.367155">
        <ele>436.052785</ele>
        <time>2025-05-18T18:30:58.162Z</time>
      </trkpt>
      <trkpt lat="48.486008" lon="10.367300">
        <ele>435.997659</ele>
        <time>2025-05-18T18:31:01.158Z</time>
      </trkpt>
      <trkpt lat="48.485975" lon="10.367347">
        <ele>435.979992</ele>
        <time>2025-05-18T18:31:02.123Z</time>
      </trkpt>
      <trkpt lat="48.485861" lon="10.367507">
        <ele>435.919379</ele>
        <time>2025-05-18T18:31:05.467Z</time>
      </trkpt>
      <trkpt lat="48.485740" lon="10.367676">
        <ele>435.855189</ele>
        <time>2025-05-18T18:31:09.046Z</time>
      </trkpt>
      <trkpt lat="48.485571" lon="10.367889">
        <ele>435.769463</ele>
        <time>2025-05-18T18:31:13.873Z</time>
      </trkpt>
      <trkpt lat="48.485500" lon="10.367922">
        <ele>435.740875</ele>
        <time>2025-05-18T18:31:15.506Z</time>
      </trkpt>
      <trkpt lat="48.485330" lon="10.367923">
        <ele>435.691086</ele>
        <time>2025-05-18T18:31:19.232Z</time>
      </trkpt>
      <trkpt lat="48.485205" lon="10.367902">
        <ele>435.654251</ele>
        <time>2025-05-18T18:31:21.977Z</time>
      </trkpt>
      <trkpt lat="48.485144" lon="10.367885">
        <ele>435.636083</ele>
        <time>2025-05-18T18:31:23.302Z</time>
      </trkpt>
      <trkpt lat="48.484986" lon="10.367840">
        <ele>435.588992</ele>
        <time>2025-05-18T18:31:26.765Z</time>
      </trkpt>
      <trkpt lat="48.484961" lon="10.367834">
        <ele>435.581578</ele>
        <time>2025-05-18T18:31:27.297Z</time>
      </trkpt>
      <trkpt lat="48.484694" lon="10.367759">
        <ele>435.502037</ele>
        <time>2025-05-18T18:31:33.110Z</time>
      </trkpt>
      <trkpt lat="48.484647" lon="10.367746">
        <ele>435.488042</ele>
        <time>2025-05-18T18:31:34.139Z</time>
      </trkpt>
      <trkpt lat="48.484523" lon="10.367712">
        <ele>435.451131</ele>
        <time>2025-05-18T18:31:36.812Z</time>
      </trkpt>
      <trkpt lat="48.484455" lon="10.367692">
        <ele>435.430840</ele>
        <time>2025-05-18T18:31:38.296Z</time>
      </trkpt>
      <trkpt lat="48.484307" lon="10.367651">
        <ele>435.386770</ele>
        <time>2025-05-18T18:31:41.507Z</time>
      </trkpt>
      <trkpt lat="48.484220" lon="10.367627">
        <ele>435.360868</ele>
        <time>2025-05-18T18:31:43.389Z</time>
      </trkpt>
      <trkpt lat="48.484181" lon="10.367823">
        <ele>435.321142</ele>
        <time>2025-05-18T18:31:46.170Z</time>
      </trkpt>
      <trkpt lat="48.484096" lon="10.368033">
        <ele>435.273376</ele>
        <time>2025-05-18T18:31:49.501Z</time>
      </trkpt>
      <trkpt lat="48.483929" lon="10.368350">
        <ele>435.193474</ele>
        <time>2025-05-18T18:31:58.805Z</time>
      </trkpt>
      <trkpt lat="48.483789" lon="10.368619">
        <ele>435.122856</ele>
        <time>2025-05-18T18:32:03.413Z</time>
      </trkpt>
      <trkpt lat="48.483884" lon="10.370101">
        <ele>434.815428</ele>
        <time>2025-05-18T18:32:23.514Z</time>
      </trkpt>
      <trkpt lat="48.483855" lon="10.370573">
        <ele>434.717553</ele>
        <time>2025-05-18T18:32:29.982Z</time>
      </trkpt>
      <trkpt lat="48.483185" lon="10.370590">
        <ele>434.676729</ele>
        <time>2025-05-18T18:32:43.932Z</time>
      </trkpt>
      <trkpt lat="48.483121" lon="10.370634">
        <ele>434.680016</ele>
        <time>2025-05-18T18:32:45.400Z</time>
      </trkpt>
      <trkpt lat="48.481836" lon="10.370692">
        <ele>434.760169</ele>
        <time>2025-05-18T18:33:12.516Z</time>
      </trkpt>
      <trkpt lat="48.481857" lon="10.371576">
        <ele>435.240440</ele>
        <time>2025-05-18T18:33:25.619Z</time>
      </trkpt>
      <trkpt lat="48.481814" lon="10.371694">
        <ele>435.313551</ele>
        <time>2025-05-18T18:33:27.624Z</time>
      </trkpt>
      <trkpt lat="48.481774" lon="10.371747">
        <ele>435.357157</ele>
        <time>2025-05-18T18:33:28.820Z</time>
      </trkpt>
      <trkpt lat="48.481384" lon="10.372015">
        <ele>435.708185</ele>
        <time>2025-05-18T18:33:38.415Z</time>
      </trkpt>
      <trkpt lat="48.481301" lon="10.372076">
        <ele>435.783808</ele>
        <time>2025-05-18T18:33:40.491Z</time>
      </trkpt>
      <trkpt lat="48.480933" lon="10.372336">
        <ele>436.116655</ele>
        <time>2025-05-18T18:33:49.653Z</time>
      </trkpt>
      <trkpt lat="48.480887" lon="10.372386">
        <ele>436.163094</ele>
        <time>2025-05-18T18:33:50.949Z</time>
      </trkpt>
      <trkpt lat="48.480848" lon="10.372437">
        <ele>436.205370</ele>
        <time>2025-05-18T18:33:52.126Z</time>
      </trkpt>
      <trkpt lat="48.480523" lon="10.372820">
        <ele>436.510261</ele>
        <time>2025-05-18T18:34:01.448Z</time>
      </trkpt>
      <trkpt lat="48.480483" lon="10.372868">
        <ele>436.547964</ele>
        <time>2025-05-18T18:34:02.592Z</time>
      </trkpt>
      <trkpt lat="48.480315" lon="10.373067">
        <ele>436.705528</ele>
        <time>2025-05-18T18:34:07.354Z</time>
      </trkpt>
      <trkpt lat="48.480142" lon="10.373266">
        <ele>436.866009</ele>
        <time>2025-05-18T18:34:12.154Z</time>
      </trkpt>
      <trkpt lat="48.480072" lon="10.373304">
        <ele>436.920886</ele>
        <time>2025-05-18T18:34:13.788Z</time>
      </trkpt>
      <trkpt lat="48.479948" lon="10.373353">
        <ele>437.015442</ele>
        <time>2025-05-18T18:34:16.612Z</time>
      </trkpt>
      <trkpt lat="48.479913" lon="10.373365">
        <ele>437.041918</ele>
        <time>2025-05-18T18:34:17.390Z</time>
      </trkpt>
      <trkpt lat="48.479560" lon="10.373510">
        <ele>437.311792</ele>
        <time>2025-05-18T18:34:25.459Z</time>
      </trkpt>
      <trkpt lat="48.479520" lon="10.373533">
        <ele>437.343369</ele>
        <time>2025-05-18T18:34:26.418Z</time>
      </trkpt>
      <trkpt lat="48.479361" lon="10.373622">
        <ele>437.468471</ele>
        <time>2025-05-18T18:34:30.175Z</time>
      </trkpt>
      <trkpt lat="48.479333" lon="10.373643">
        <ele>437.491537</ele>
        <time>2025-05-18T18:34:30.869Z</time>
      </trkpt>
      <trkpt lat="48.479256" lon="10.373699">
        <ele>437.547144</ele>
        <time>2025-05-18T18:34:32.745Z</time>
      </trkpt>
      <trkpt lat="48.479085" lon="10.373823">
        <ele>437.620476</ele>
        <time>2025-05-18T18:34:36.919Z</time>
      </trkpt>
      <trkpt lat="48.478803" lon="10.374030">
        <ele>437.741691</ele>
        <time>2025-05-18T18:34:43.709Z</time>
      </trkpt>
      <trkpt lat="48.478716" lon="10.374093">
        <ele>437.778991</ele>
        <time>2025-05-18T18:34:45.799Z</time>
      </trkpt>
      <trkpt lat="48.478625" lon="10.374088">
        <ele>437.814187</ele>
        <time>2025-05-18T18:34:47.774Z</time>
      </trkpt>
      <trkpt lat="48.478498" lon="10.373933">
        <ele>437.877327</ele>
        <time>2025-05-18T18:34:51.340Z</time>
      </trkpt>
      <trkpt lat="48.478388" lon="10.374192">
        <ele>437.956139</ele>
        <time>2025-05-18T18:34:55.761Z</time>
      </trkpt>
      <trkpt lat="48.478329" lon="10.374331">
        <ele>437.998429</ele>
        <time>2025-05-18T18:34:58.132Z</time>
      </trkpt>
      <trkpt lat="48.478199" lon="10.374637">
        <ele>438.091551</ele>
        <time>2025-05-18T18:35:03.356Z</time>
      </trkpt>
      <trkpt lat="48.478167" lon="10.374703">
        <ele>438.112502</ele>
        <time>2025-05-18T18:35:04.518Z</time>
      </trkpt>
      <trkpt lat="48.478101" lon="10.374840">
        <ele>438.155894</ele>
        <time>2025-05-18T18:35:06.964Z</time>
      </trkpt>
      <trkpt lat="48.477861" lon="10.374964">
        <ele>438.246549</ele>
        <time>2025-05-18T18:35:12.449Z</time>
      </trkpt>
      <trkpt lat="48.477671" lon="10.375042">
        <ele>438.294229</ele>
        <time>2025-05-18T18:35:16.700Z</time>
      </trkpt>
      <trkpt lat="48.477473" lon="10.375120">
        <ele>438.343782</ele>
        <time>2025-05-18T18:35:21.097Z</time>
      </trkpt>
      <trkpt lat="48.477417" lon="10.375148">
        <ele>438.358068</ele>
        <time>2025-05-18T18:35:22.378Z</time>
      </trkpt>
      <trkpt lat="48.477186" lon="10.375515">
        <ele>438.439304</ele>
        <time>2025-05-18T18:35:29.613Z</time>
      </trkpt>
      <trkpt lat="48.477168" lon="10.375545">
        <ele>438.445800</ele>
        <time>2025-05-18T18:35:30.196Z</time>
      </trkpt>
      <trkpt lat="48.476818" lon="10.376204">
        <ele>438.581347</ele>
        <time>2025-05-18T18:35:42.292Z</time>
      </trkpt>
      <trkpt lat="48.476586" lon="10.376639">
        <ele>438.669287</ele>
        <time>2025-05-18T18:35:50.168Z</time>
      </trkpt>
      <trkpt lat="48.476429" lon="10.376935">
        <ele>438.651200</ele>
        <time>2025-05-18T18:35:55.448Z</time>
      </trkpt>
      <trkpt lat="48.476270" lon="10.377234">
        <ele>438.632912</ele>
        <time>2025-05-18T18:36:00.786Z</time>
      </trkpt>
      <trkpt lat="48.476084" lon="10.377580">
        <ele>438.611658</ele>
        <time>2025-05-18T18:36:06.992Z</time>
      </trkpt>
      <trkpt lat="48.475985" lon="10.377697">
        <ele>438.602606</ele>
        <time>2025-05-18T18:36:09.619Z</time>
      </trkpt>
      <trkpt lat="48.474935" lon="10.378627">
        <ele>438.557499</ele>
        <time>2025-05-18T18:36:35.046Z</time>
      </trkpt>
      <trkpt lat="48.474912" lon="10.378674">
        <ele>438.559406</ele>
        <time>2025-05-18T18:36:35.860Z</time>
      </trkpt>
      <trkpt lat="48.474919" lon="10.378878">
        <ele>438.566076</ele>
        <time>2025-05-18T18:36:38.727Z</time>
      </trkpt>
      <trkpt lat="48.475333" lon="10.381503">
        <ele>438.587448</ele>
        <time>2025-05-18T18:37:16.735Z</time>
      </trkpt>
      <trkpt lat="48.475451" lon="10.382168">
        <ele>438.550811</ele>
        <time>2025-05-18T18:37:26.224Z</time>
      </trkpt>
      <trkpt lat="48.475790" lon="10.383240">
        <ele>438.487601</ele>
        <time>2025-05-18T18:37:42.506Z</time>
      </trkpt>
      <trkpt lat="48.475944" lon="10.383636">
        <ele>438.518189</ele>
        <time>2025-05-18T18:37:48.821Z</time>
      </trkpt>
      <trkpt lat="48.475938" lon="10.383811">
        <ele>438.533019</ele>
        <time>2025-05-18T18:37:51.251Z</time>
      </trkpt>
      <trkpt lat="48.475905" lon="10.383881">
        <ele>438.540288</ele>
        <time>2025-05-18T18:37:52.422Z</time>
      </trkpt>
      <trkpt lat="48.475763" lon="10.384059">
        <ele>438.563858</ele>
        <time>2025-05-18T18:37:56.308Z</time>
      </trkpt>
      <trkpt lat="48.475641" lon="10.384115">
        <ele>438.580138</ele>
        <time>2025-05-18T18:37:59.002Z</time>
      </trkpt>
      <trkpt lat="48.475236" lon="10.382822">
        <ele>438.701165</ele>
        <time>2025-05-18T18:38:19.525Z</time>
      </trkpt>
      <trkpt lat="48.474975" lon="10.381747">
        <ele>438.808959</ele>
        <time>2025-05-18T18:38:35.925Z</time>
      </trkpt>
      <trkpt lat="48.474629" lon="10.379682">
        <ele>439.012282</ele>
        <time>2025-05-18T18:39:05.904Z</time>
      </trkpt>
      <trkpt lat="48.474587" lon="10.379542">
        <ele>439.026849</ele>
        <time>2025-05-18T18:39:08.043Z</time>
      </trkpt>
      <trkpt lat="48.474521" lon="10.379453">
        <ele>439.039509</ele>
        <time>2025-05-18T18:39:09.920Z</time>
      </trkpt>
      <trkpt lat="48.474399" lon="10.379447">
        <ele>439.056964</ele>
        <time>2025-05-18T18:39:12.495Z</time>
      </trkpt>
      <trkpt lat="48.474164" lon="10.379555">
        <ele>439.092094</ele>
        <time>2025-05-18T18:39:17.716Z</time>
      </trkpt>
      <trkpt lat="48.473923" lon="10.379809">
        <ele>439.134135</ele>
        <time>2025-05-18T18:39:24.013Z</time>
      </trkpt>
      <trkpt lat="48.473812" lon="10.379758">
        <ele>439.150728</ele>
        <time>2025-05-18T18:39:26.505Z</time>
      </trkpt>
      <trkpt lat="48.473778" lon="10.379677">
        <ele>439.159817</ele>
        <time>2025-05-18T18:39:27.857Z</time>
      </trkpt>
      <trkpt lat="48.473098" lon="10.380273">
        <ele>439.296944</ele>
        <time>2025-05-18T18:39:44.826Z</time>
      </trkpt>
      <trkpt lat="48.471621" lon="10.381566">
        <ele>439.670897</ele>
        <time>2025-05-18T18:40:21.565Z</time>
      </trkpt>
      <trkpt lat="48.469769" lon="10.383213">
        <ele>439.897645</ele>
        <time>2025-05-18T18:41:07.423Z</time>
      </trkpt>
      <trkpt lat="48.469178" lon="10.381351">
        <ele>439.827261</ele>
        <time>2025-05-18T18:41:39.192Z</time>
      </trkpt>
      <trkpt lat="48.469074" lon="10.381192">
        <ele>439.791719</ele>
        <time>2025-05-18T18:41:42.571Z</time>
      </trkpt>
      <trkpt lat="48.468977" lon="10.381065">
        <ele>439.760891</ele>
        <time>2025-05-18T18:41:45.198Z</time>
      </trkpt>
      <trkpt lat="48.468916" lon="10.380989">
        <ele>439.741901</ele>
        <time>2025-05-18T18:41:46.997Z</time>
      </trkpt>
      <trkpt lat="48.468815" lon="10.380865">
        <ele>439.710645</ele>
        <time>2025-05-18T18:41:49.661Z</time>
      </trkpt>
      <trkpt lat="48.467578" lon="10.379211">
        <ele>439.456013</ele>
        <time>2025-05-18T18:42:27.519Z</time>
      </trkpt>
      <trkpt lat="48.467459" lon="10.379074">
        <ele>439.466136</ele>
        <time>2025-05-18T18:42:31.030Z</time>
      </trkpt>
      <trkpt lat="48.467366" lon="10.379021">
        <ele>439.472859</ele>
        <time>2025-05-18T18:42:33.369Z</time>
      </trkpt>
      <trkpt lat="48.467223" lon="10.379064">
        <ele>439.482718</ele>
        <time>2025-05-18T18:42:36.827Z</time>
      </trkpt>
      <trkpt lat="48.466896" lon="10.379271">
        <ele>439.506698</ele>
        <time>2025-05-18T18:42:45.220Z</time>
      </trkpt>
      <trkpt lat="48.465350" lon="10.379860">
        <ele>439.755859</ele>
        <time>2025-05-18T18:43:23.075Z</time>
      </trkpt>
      <trkpt lat="48.463991" lon="10.380446">
        <ele>440.023637</ele>
        <time>2025-05-18T18:43:56.520Z</time>
      </trkpt>
      <trkpt lat="48.463847" lon="10.380500">
        <ele>440.048268</ele>
        <time>2025-05-18T18:44:00.001Z</time>
      </trkpt>
      <trkpt lat="48.462070" lon="10.380605">
        <ele>440.472064</ele>
        <time>2025-05-18T18:44:41.891Z</time>
      </trkpt>
      <trkpt lat="48.461917" lon="10.380582">
        <ele>440.523936</ele>
        <time>2025-05-18T18:44:45.588Z</time>
      </trkpt>
      <trkpt lat="48.461821" lon="10.380429">
        <ele>440.571057</ele>
        <time>2025-05-18T18:44:48.957Z</time>
      </trkpt>
      <trkpt lat="48.461803" lon="10.379781">
        <ele>440.716150</ele>
        <time>2025-05-18T18:44:59.308Z</time>
      </trkpt>
      <trkpt lat="48.461778" lon="10.379518">
        <ele>440.775587</ele>
        <time>2025-05-18T18:45:03.553Z</time>
      </trkpt>
      <trkpt lat="48.461697" lon="10.379098">
        <ele>440.888474</ele>
        <time>2025-05-18T18:45:10.563Z</time>
      </trkpt>
      <trkpt lat="48.460089" lon="10.380196">
        <ele>441.672268</ele>
        <time>2025-05-18T18:45:52.775Z</time>
      </trkpt>
      <trkpt lat="48.459757" lon="10.380317">
        <ele>441.826304</ele>
        <time>2025-05-18T18:46:00.896Z</time>
      </trkpt>
      <trkpt lat="48.459423" lon="10.380313">
        <ele>441.976936</ele>
        <time>2025-05-18T18:46:08.876Z</time>
      </trkpt>
      <trkpt lat="48.459126" lon="10.380178">
        <ele>442.116830</ele>
        <time>2025-05-18T18:46:16.303Z</time>
      </trkpt>
      <trkpt lat="48.458314" lon="10.379728">
        <ele>442.526707</ele>
        <time>2025-05-18T18:46:37.159Z</time>
      </trkpt>
      <trkpt lat="48.458093" lon="10.379628">
        <ele>442.659171</ele>
        <time>2025-05-18T18:46:42.747Z</time>
      </trkpt>
      <trkpt lat="48.457784" lon="10.379563">
        <ele>442.838284</ele>
        <time>2025-05-18T18:46:50.284Z</time>
      </trkpt>
      <trkpt lat="48.457509" lon="10.379549">
        <ele>442.996249</ele>
        <time>2025-05-18T18:46:56.908Z</time>
      </trkpt>
      <trkpt lat="48.457214" lon="10.379588">
        <ele>443.166257</ele>
        <time>2025-05-18T18:47:04.052Z</time>
      </trkpt>
      <trkpt lat="48.456316" lon="10.379869">
        <ele>443.594805</ele>
        <time>2025-05-18T18:47:26.158Z</time>
      </trkpt>
      <trkpt lat="48.455175" lon="10.380043">
        <ele>443.967149</ele>
        <time>2025-05-18T18:47:53.479Z</time>
      </trkpt>
      <trkpt lat="48.455117" lon="10.380131">
        <ele>443.993864</ele>
        <time>2025-05-18T18:47:55.415Z</time>
      </trkpt>
      <trkpt lat="48.455114" lon="10.380375">
        <ele>444.046413</ele>
        <time>2025-05-18T18:47:59.229Z</time>
      </trkpt>
      <trkpt lat="48.454975" lon="10.380218">
        <ele>444.039519</ele>
        <time>2025-05-18T18:48:02.895Z</time>
      </trkpt>
      <trkpt lat="48.454909" lon="10.380105">
        <ele>444.032143</ele>
        <time>2025-05-18T18:48:05.091Z</time>
      </trkpt>
      <trkpt lat="48.454766" lon="10.379952">
        <ele>444.019192</ele>
        <time>2025-05-18T18:48:08.770Z</time>
      </trkpt>
      <trkpt lat="48.454100" lon="10.379834">
        <ele>443.969661</ele>
        <time>2025-05-18T18:48:22.684Z</time>
      </trkpt>
      <trkpt lat="48.452456" lon="10.379218">
        <ele>443.811564</ele>
        <time>2025-05-18T18:48:57.996Z</time>
      </trkpt>
      <trkpt lat="48.452330" lon="10.379200">
        <ele>443.798042</ele>
        <time>2025-05-18T18:49:00.627Z</time>
      </trkpt>
      <trkpt lat="48.451856" lon="10.379295">
        <ele>443.746955</ele>
        <time>2025-05-18T18:49:10.566Z</time>
      </trkpt>
      <trkpt lat="48.451612" lon="10.379323">
        <ele>443.728795</ele>
        <time>2025-05-18T18:49:15.683Z</time>
      </trkpt>
      <trkpt lat="48.451582" lon="10.379424">
        <ele>443.732505</ele>
        <time>2025-05-18T18:49:17.220Z</time>
      </trkpt>
      <trkpt lat="48.451522" lon="10.379625">
        <ele>443.739895</ele>
        <time>2025-05-18T18:49:20.276Z</time>
      </trkpt>
      <trkpt lat="48.451232" lon="10.380693">
        <ele>443.778585</ele>
        <time>2025-05-18T18:49:36.444Z</time>
      </trkpt>
      <trkpt lat="48.451180" lon="10.380972">
        <ele>443.788302</ele>
        <time>2025-05-18T18:49:40.568Z</time>
      </trkpt>
      <trkpt lat="48.447080" lon="10.380814">
        <ele>444.515515</ele>
        <time>2025-05-18T18:51:17.600Z</time>
      </trkpt>
      <trkpt lat="48.443582" lon="10.380751">
        <ele>445.348434</ele>
        <time>2025-05-18T18:52:40.638Z</time>
      </trkpt>
      <trkpt lat="48.442287" lon="10.380734">
        <ele>445.743007</ele>
        <time>2025-05-18T18:53:11.091Z</time>
      </trkpt>
      <trkpt lat="48.440220" lon="10.381299">
        <ele>446.830110</ele>
        <time>2025-05-18T18:54:01.913Z</time>
      </trkpt>
      <trkpt lat="48.440038" lon="10.381323">
        <ele>446.941842</ele>
        <time>2025-05-18T18:54:06.300Z</time>
      </trkpt>
      <trkpt lat="48.439334" lon="10.381321">
        <ele>447.501420</ele>
        <time>2025-05-18T18:54:23.096Z</time>
      </trkpt>
      <trkpt lat="48.438731" lon="10.381195">
        <ele>448.024927</ele>
        <time>2025-05-18T18:54:37.727Z</time>
      </trkpt>
      <trkpt lat="48.438133" lon="10.380904">
        <ele>448.565309</ele>
        <time>2025-05-18T18:54:53.230Z</time>
      </trkpt>
      <trkpt lat="48.438002" lon="10.380886">
        <ele>448.697577</ele>
        <time>2025-05-18T18:54:56.516Z</time>
      </trkpt>
      <trkpt lat="48.437932" lon="10.380886">
        <ele>448.772740</ele>
        <time>2025-05-18T18:54:58.126Z</time>
      </trkpt>
      <trkpt lat="48.437927" lon="10.381096">
        <ele>448.922432</ele>
        <time>2025-05-18T18:55:01.362Z</time>
      </trkpt>
      <trkpt lat="48.437902" lon="10.381175">
        <ele>448.984783</ele>
        <time>2025-05-18T18:55:02.730Z</time>
      </trkpt>
      <trkpt lat="48.437836" lon="10.381248">
        <ele>449.072684</ele>
        <time>2025-05-18T18:55:04.641Z</time>
      </trkpt>
      <trkpt lat="48.437797" lon="10.381281">
        <ele>449.120708</ele>
        <time>2025-05-18T18:55:05.683Z</time>
      </trkpt>
      <trkpt lat="48.437742" lon="10.381344">
        <ele>449.194882</ele>
        <time>2025-05-18T18:55:07.301Z</time>
      </trkpt>
      <trkpt lat="48.437738" lon="10.381415">
        <ele>449.245642</ele>
        <time>2025-05-18T18:55:08.402Z</time>
      </trkpt>
      <trkpt lat="48.437790" lon="10.381592">
        <ele>449.383540</ele>
        <time>2025-05-18T18:55:11.377Z</time>
      </trkpt>
      <trkpt lat="48.437696" lon="10.381670">
        <ele>449.498757</ele>
        <time>2025-05-18T18:55:13.860Z</time>
      </trkpt>
      <trkpt lat="48.437683" lon="10.381753">
        <ele>449.559509</ele>
        <time>2025-05-18T18:55:15.153Z</time>
      </trkpt>
      <trkpt lat="48.437537" lon="10.381801">
        <ele>449.719963</ele>
        <time>2025-05-18T18:55:18.531Z</time>
      </trkpt>
      <trkpt lat="48.437361" lon="10.381809">
        <ele>449.909030</ele>
        <time>2025-05-18T18:55:22.498Z</time>
      </trkpt>
      <trkpt lat="48.437239" lon="10.381770">
        <ele>450.042942</ele>
        <time>2025-05-18T18:55:25.285Z</time>
      </trkpt>
      <trkpt lat="48.437164" lon="10.381746">
        <ele>450.125269</ele>
        <time>2025-05-18T18:55:26.996Z</time>
      </trkpt>
      <trkpt lat="48.436795" lon="10.381453">
        <ele>450.531789</ele>
        <time>2025-05-18T18:55:36.045Z</time>
      </trkpt>
      <trkpt lat="48.436538" lon="10.381229">
        <ele>450.524425</ele>
        <time>2025-05-18T18:55:42.062Z</time>
      </trkpt>
      <trkpt lat="48.435716" lon="10.380531">
        <ele>450.501021</ele>
        <time>2025-05-18T18:56:01.603Z</time>
      </trkpt>
      <trkpt lat="48.435494" lon="10.380351">
        <ele>450.494767</ele>
        <time>2025-05-18T18:56:07.038Z</time>
      </trkpt>
      <trkpt lat="48.435471" lon="10.380333">
        <ele>450.494124</ele>
        <time>2025-05-18T18:56:07.610Z</time>
      </trkpt>
      <trkpt lat="48.434966" lon="10.379995">
        <ele>450.554165</ele>
        <time>2025-05-18T18:56:19.303Z</time>
      </trkpt>
      <trkpt lat="48.434909" lon="10.379965">
        <ele>450.567037</ele>
        <time>2025-05-18T18:56:20.565Z</time>
      </trkpt>
      <trkpt lat="48.434731" lon="10.379918">
        <ele>450.605564</ele>
        <time>2025-05-18T18:56:24.363Z</time>
      </trkpt>
      <trkpt lat="48.434738" lon="10.379261">
        <ele>450.698510</ele>
        <time>2025-05-18T18:56:33.685Z</time>
      </trkpt>
      <trkpt lat="48.434697" lon="10.378745">
        <ele>450.772020</ele>
        <time>2025-05-18T18:56:41.101Z</time>
      </trkpt>
      <trkpt lat="48.434690" lon="10.378659">
        <ele>450.784276</ele>
        <time>2025-05-18T18:56:42.314Z</time>
      </trkpt>
      <trkpt lat="48.434675" lon="10.378426">
        <ele>450.817389</ele>
        <time>2025-05-18T18:56:45.605Z</time>
      </trkpt>
      <trkpt lat="48.434623" lon="10.378433">
        <ele>450.828519</ele>
        <time>2025-05-18T18:56:46.717Z</time>
      </trkpt>
      <trkpt lat="48.434581" lon="10.378448">
        <ele>450.837721</ele>
        <time>2025-05-18T18:56:47.665Z</time>
      </trkpt>
      <trkpt lat="48.434219" lon="10.378624">
        <ele>451.035162</ele>
        <time>2025-05-18T18:56:56.224Z</time>
      </trkpt>
      <trkpt lat="48.434027" lon="10.378717">
        <ele>451.184044</ele>
        <time>2025-05-18T18:57:00.883Z</time>
      </trkpt>
      <trkpt lat="48.433903" lon="10.378777">
        <ele>451.280187</ele>
        <time>2025-05-18T18:57:03.933Z</time>
      </trkpt>
      <trkpt lat="48.433769" lon="10.378842">
        <ele>451.384108</ele>
        <time>2025-05-18T18:57:07.238Z</time>
      </trkpt>
      <trkpt lat="48.433677" lon="10.378886">
        <ele>451.455363</ele>
        <time>2025-05-18T18:57:09.511Z</time>
      </trkpt>
      <trkpt lat="48.433286" lon="10.379048">
        <ele>451.754721</ele>
        <time>2025-05-18T18:57:19.004Z</time>
      </trkpt>
      <trkpt lat="48.432675" lon="10.379138">
        <ele>452.198747</ele>
        <time>2025-05-18T18:57:33.023Z</time>
      </trkpt>
      <trkpt lat="48.432688" lon="10.378385">
        <ele>452.170703</ele>
        <time>2025-05-18T18:57:44.922Z</time>
      </trkpt>
      <trkpt lat="48.431411" lon="10.378156">
        <ele>452.098542</ele>
        <time>2025-05-18T18:58:11.324Z</time>
      </trkpt>
      <trkpt lat="48.431240" lon="10.378098">
        <ele>452.065909</ele>
        <time>2025-05-18T18:58:14.904Z</time>
      </trkpt>
      <trkpt lat="48.429555" lon="10.378081">
        <ele>451.773099</ele>
        <time>2025-05-18T18:58:49.783Z</time>
      </trkpt>
      <trkpt lat="48.429179" lon="10.378134">
        <ele>451.843328</ele>
        <time>2025-05-18T18:58:57.835Z</time>
      </trkpt>
      <trkpt lat="48.428892" lon="10.378397">
        <ele>451.905793</ele>
        <time>2025-05-18T18:59:04.991Z</time>
      </trkpt>
      <trkpt lat="48.428744" lon="10.378489">
        <ele>451.935566</ele>
        <time>2025-05-18T18:59:08.410Z</time>
      </trkpt>
      <trkpt lat="48.428584" lon="10.378504">
        <ele>451.965378</ele>
        <time>2025-05-18T18:59:11.820Z</time>
      </trkpt>
      <trkpt lat="48.428104" lon="10.378050">
        <ele>452.070767</ele>
        <time>2025-05-18T18:59:23.800Z</time>
      </trkpt>
      <trkpt lat="48.427841" lon="10.377850">
        <ele>452.588114</ele>
        <time>2025-05-18T18:59:30.082Z</time>
      </trkpt>
      <trkpt lat="48.427457" lon="10.377644">
        <ele>453.865038</ele>
        <time>2025-05-18T18:59:39.392Z</time>
      </trkpt>
      <trkpt lat="48.426997" lon="10.377434">
        <ele>455.370776</ele>
        <time>2025-05-18T18:59:51.069Z</time>
      </trkpt>
      <trkpt lat="48.426029" lon="10.379712">
        <ele>460.859153</ele>
        <time>2025-05-18T19:00:39.208Z</time>
      </trkpt>
      <trkpt lat="48.424902" lon="10.379401">
        <ele>463.133684</ele>
        <time>2025-05-18T19:01:04.128Z</time>
      </trkpt>
      <trkpt lat="48.424377" lon="10.379176">
        <ele>463.135021</ele>
        <time>2025-05-18T19:01:14.593Z</time>
      </trkpt>
      <trkpt lat="48.423136" lon="10.378393">
        <ele>463.420934</ele>
        <time>2025-05-18T19:01:43.875Z</time>
      </trkpt>
      <trkpt lat="48.422570" lon="10.378209">
        <ele>463.762384</ele>
        <time>2025-05-18T19:01:56.671Z</time>
      </trkpt>
      <trkpt lat="48.421140" lon="10.378027">
        <ele>463.919116</ele>
        <time>2025-05-18T19:02:28.518Z</time>
      </trkpt>
      <trkpt lat="48.419843" lon="10.377887">
        <ele>462.706806</ele>
        <time>2025-05-18T19:02:54.247Z</time>
      </trkpt>
      <trkpt lat="48.419830" lon="10.377401">
        <ele>461.451493</ele>
        <time>2025-05-18T19:02:59.519Z</time>
      </trkpt>
      <trkpt lat="48.419736" lon="10.376578">
        <ele>459.296225</ele>
        <time>2025-05-18T19:03:08.040Z</time>
      </trkpt>
      <trkpt lat="48.419754" lon="10.376198">
        <ele>458.313005</ele>
        <time>2025-05-18T19:03:11.783Z</time>
      </trkpt>
      <trkpt lat="48.419805" lon="10.375962">
        <ele>457.672447</ele>
        <time>2025-05-18T19:03:14.198Z</time>
      </trkpt>
      <trkpt lat="48.420183" lon="10.374679">
        <ele>454.757571</ele>
        <time>2025-05-18T19:03:28.399Z</time>
      </trkpt>
      <trkpt lat="48.420256" lon="10.374432">
        <ele>454.262703</ele>
        <time>2025-05-18T19:03:31.351Z</time>
      </trkpt>
      <trkpt lat="48.420446" lon="10.374235">
        <ele>453.626659</ele>
        <time>2025-05-18T19:03:35.274Z</time>
      </trkpt>
      <trkpt lat="48.420483" lon="10.374155">
        <ele>453.448194</ele>
        <time>2025-05-18T19:03:36.394Z</time>
      </trkpt>
      <trkpt lat="48.420573" lon="10.373917">
        <ele>452.946852</ele>
        <time>2025-05-18T19:03:39.617Z</time>
      </trkpt>
      <trkpt lat="48.420613" lon="10.373811">
        <ele>452.723680</ele>
        <time>2025-05-18T19:03:41.108Z</time>
      </trkpt>
      <trkpt lat="48.420861" lon="10.373181">
        <ele>451.525190</ele>
        <time>2025-05-18T19:03:50.625Z</time>
      </trkpt>
      <trkpt lat="48.421103" lon="10.373082">
        <ele>451.533108</ele>
        <time>2025-05-18T19:03:55.913Z</time>
      </trkpt>
      <trkpt lat="48.421207" lon="10.372982">
        <ele>451.537003</ele>
        <time>2025-05-18T19:03:58.537Z</time>
      </trkpt>
      <trkpt lat="48.421318" lon="10.372865">
        <ele>451.541280</ele>
        <time>2025-05-18T19:04:01.423Z</time>
      </trkpt>
      <trkpt lat="48.421385" lon="10.372641">
        <ele>451.546429</ele>
        <time>2025-05-18T19:04:04.868Z</time>
      </trkpt>
      <trkpt lat="48.421601" lon="10.370110">
        <ele>452.220460</ele>
        <time>2025-05-18T19:04:41.383Z</time>
      </trkpt>
      <trkpt lat="48.421836" lon="10.367736">
        <ele>454.197605</ele>
        <time>2025-05-18T19:05:17.891Z</time>
      </trkpt>
      <trkpt lat="48.421700" lon="10.367615">
        <ele>454.486788</ele>
        <time>2025-05-18T19:05:21.581Z</time>
      </trkpt>
      <trkpt lat="48.421414" lon="10.367261">
        <ele>455.164475</ele>
        <time>2025-05-18T19:05:30.270Z</time>
      </trkpt>
      <trkpt lat="48.420873" lon="10.366526">
        <ele>456.498233</ele>
        <time>2025-05-18T19:05:47.240Z</time>
      </trkpt>
      <trkpt lat="48.420648" lon="10.366205">
        <ele>456.785795</ele>
        <time>2025-05-18T19:05:54.493Z</time>
      </trkpt>
      <trkpt lat="48.420470" lon="10.365978">
        <ele>456.851221</ele>
        <time>2025-05-18T19:06:00.015Z</time>
      </trkpt>
      <trkpt lat="48.419874" lon="10.365551">
        <ele>457.036379</ele>
        <time>2025-05-18T19:06:14.785Z</time>
      </trkpt>
      <trkpt lat="48.419675" lon="10.365414">
        <ele>457.097763</ele>
        <time>2025-05-18T19:06:19.211Z</time>
      </trkpt>
      <trkpt lat="48.419558" lon="10.365339">
        <ele>457.133436</ele>
        <time>2025-05-18T19:06:21.698Z</time>
      </trkpt>
      <trkpt lat="48.419409" lon="10.365629">
        <ele>457.201726</ele>
        <time>2025-05-18T19:06:26.260Z</time>
      </trkpt>
      <trkpt lat="48.419083" lon="10.366114">
        <ele>456.678876</ele>
        <time>2025-05-18T19:06:34.377Z</time>
      </trkpt>
      <trkpt lat="48.418885" lon="10.366324">
        <ele>456.257611</ele>
        <time>2025-05-18T19:06:38.527Z</time>
      </trkpt>
      <trkpt lat="48.418688" lon="10.366475">
        <ele>455.873071</ele>
        <time>2025-05-18T19:06:42.196Z</time>
      </trkpt>
      <trkpt lat="48.418377" lon="10.366625">
        <ele>455.304947</ele>
        <time>2025-05-18T19:06:47.695Z</time>
      </trkpt>
      <trkpt lat="48.418137" lon="10.366682">
        <ele>454.882239</ele>
        <time>2025-05-18T19:06:51.983Z</time>
      </trkpt>
      <trkpt lat="48.417784" lon="10.366696">
        <ele>454.267876</ele>
        <time>2025-05-18T19:06:58.642Z</time>
      </trkpt>
      <trkpt lat="48.417275" lon="10.366563">
        <ele>454.320521</ele>
        <time>2025-05-18T19:07:09.250Z</time>
      </trkpt>
      <trkpt lat="48.417217" lon="10.366543">
        <ele>454.349841</ele>
        <time>2025-05-18T19:07:10.519Z</time>
      </trkpt>
      <trkpt lat="48.416057" lon="10.365697">
        <ele>454.984909</ele>
        <time>2025-05-18T19:07:39.644Z</time>
      </trkpt>
      <trkpt lat="48.416034" lon="10.365677">
        <ele>454.997694</ele>
        <time>2025-05-18T19:07:40.232Z</time>
      </trkpt>
      <trkpt lat="48.415945" lon="10.365604">
        <ele>455.034481</ele>
        <time>2025-05-18T19:07:42.486Z</time>
      </trkpt>
      <trkpt lat="48.415827" lon="10.365508">
        <ele>455.083164</ele>
        <time>2025-05-18T19:07:45.430Z</time>
      </trkpt>
      <trkpt lat="48.415549" lon="10.365384">
        <ele>455.188416</ele>
        <time>2025-05-18T19:07:51.755Z</time>
      </trkpt>
      <trkpt lat="48.415427" lon="10.365376">
        <ele>455.232747</ele>
        <time>2025-05-18T19:07:54.417Z</time>
      </trkpt>
      <trkpt lat="48.415354" lon="10.365372">
        <ele>455.259265</ele>
        <time>2025-05-18T19:07:55.993Z</time>
      </trkpt>
      <trkpt lat="48.415332" lon="10.365374">
        <ele>455.267267</ele>
        <time>2025-05-18T19:07:56.469Z</time>
      </trkpt>
      <trkpt lat="48.415131" lon="10.365385">
        <ele>455.340283</ele>
        <time>2025-05-18T19:08:00.778Z</time>
      </trkpt>
      <trkpt lat="48.415003" lon="10.365391">
        <ele>455.386773</ele>
        <time>2025-05-18T19:08:03.514Z</time>
      </trkpt>
      <trkpt lat="48.414973" lon="10.365393">
        <ele>455.397675</ele>
        <time>2025-05-18T19:08:04.160Z</time>
      </trkpt>
      <trkpt lat="48.414681" lon="10.365408">
        <ele>455.503740</ele>
        <time>2025-05-18T19:08:10.374Z</time>
      </trkpt>
      <trkpt lat="48.414439" lon="10.365428">
        <ele>455.591725</ele>
        <time>2025-05-18T19:08:15.474Z</time>
      </trkpt>
      <trkpt lat="48.414080" lon="10.365430">
        <ele>455.647966</ele>
        <time>2025-05-18T19:08:23.167Z</time>
      </trkpt>
      <trkpt lat="48.413988" lon="10.365377">
        <ele>455.647053</ele>
        <time>2025-05-18T19:08:25.328Z</time>
      </trkpt>
      <trkpt lat="48.413908" lon="10.365229">
        <ele>455.645880</ele>
        <time>2025-05-18T19:08:28.093Z</time>
      </trkpt>
      <trkpt lat="48.413869" lon="10.365061">
        <ele>455.644785</ele>
        <time>2025-05-18T19:08:30.684Z</time>
      </trkpt>
      <trkpt lat="48.413794" lon="10.364540">
        <ele>455.641507</ele>
        <time>2025-05-18T19:08:38.235Z</time>
      </trkpt>
      <trkpt lat="48.413558" lon="10.364269">
        <ele>455.638759</ele>
        <time>2025-05-18T19:08:44.315Z</time>
      </trkpt>
      <trkpt lat="48.413106" lon="10.363931">
        <ele>455.634084</ele>
        <time>2025-05-18T19:08:54.867Z</time>
      </trkpt>
      <trkpt lat="48.412806" lon="10.363782">
        <ele>455.647469</ele>
        <time>2025-05-18T19:09:01.341Z</time>
      </trkpt>
      <trkpt lat="48.412614" lon="10.363734">
        <ele>455.660449</ele>
        <time>2025-05-18T19:09:05.277Z</time>
      </trkpt>
      <trkpt lat="48.412373" lon="10.363698">
        <ele>455.676599</ele>
        <time>2025-05-18T19:09:10.112Z</time>
      </trkpt>
      <trkpt lat="48.411726" lon="10.363614">
        <ele>455.719907</ele>
        <time>2025-05-18T19:09:23.575Z</time>
      </trkpt>
      <trkpt lat="48.411304" lon="10.363461">
        <ele>455.748854</ele>
        <time>2025-05-18T19:09:33.267Z</time>
      </trkpt>
      <trkpt lat="48.410346" lon="10.362916">
        <ele>456.827003</ele>
        <time>2025-05-18T19:09:56.347Z</time>
      </trkpt>
      <trkpt lat="48.410077" lon="10.362762">
        <ele>457.148783</ele>
        <time>2025-05-18T19:10:02.981Z</time>
      </trkpt>
      <trkpt lat="48.409811" lon="10.362653">
        <ele>457.457028</ele>
        <time>2025-05-18T19:10:09.300Z</time>
      </trkpt>
      <trkpt lat="48.409544" lon="10.362569">
        <ele>457.762026</ele>
        <time>2025-05-18T19:10:15.519Z</time>
      </trkpt>
      <trkpt lat="48.409263" lon="10.362525">
        <ele>457.825611</ele>
        <time>2025-05-18T19:10:21.891Z</time>
      </trkpt>
      <trkpt lat="48.408774" lon="10.362559">
        <ele>457.932589</ele>
        <time>2025-05-18T19:10:32.736Z</time>
      </trkpt>
      <trkpt lat="48.408107" lon="10.362671">
        <ele>458.079255</ele>
        <time>2025-05-18T19:10:46.704Z</time>
      </trkpt>
      <trkpt lat="48.407723" lon="10.362722">
        <ele>458.149122</ele>
        <time>2025-05-18T19:10:54.363Z</time>
      </trkpt>
      <trkpt lat="48.407379" lon="10.362721">
        <ele>458.047422</ele>
        <time>2025-05-18T19:11:01.204Z</time>
      </trkpt>
      <trkpt lat="48.406991" lon="10.362661">
        <ele>457.932110</ele>
        <time>2025-05-18T19:11:09.128Z</time>
      </trkpt>
      <trkpt lat="48.406604" lon="10.362486">
        <ele>457.812654</ele>
        <time>2025-05-18T19:11:17.478Z</time>
      </trkpt>
      <trkpt lat="48.406282" lon="10.362272">
        <ele>457.708605</ele>
        <time>2025-05-18T19:11:24.726Z</time>
      </trkpt>
      <trkpt lat="48.405794" lon="10.361811">
        <ele>457.750845</ele>
        <time>2025-05-18T19:11:36.799Z</time>
      </trkpt>
      <trkpt lat="48.405283" lon="10.361170">
        <ele>458.032718</ele>
        <time>2025-05-18T19:11:51.318Z</time>
      </trkpt>
      <trkpt lat="48.405028" lon="10.360834">
        <ele>458.176326</ele>
        <time>2025-05-18T19:11:58.734Z</time>
      </trkpt>
      <trkpt lat="48.404717" lon="10.360520">
        <ele>458.335027</ele>
        <time>2025-05-18T19:12:06.970Z</time>
      </trkpt>
      <trkpt lat="48.404425" lon="10.360277">
        <ele>458.472780</ele>
        <time>2025-05-18T19:12:14.456Z</time>
      </trkpt>
      <trkpt lat="48.404110" lon="10.360122">
        <ele>458.607440</ele>
        <time>2025-05-18T19:12:21.913Z</time>
      </trkpt>
      <trkpt lat="48.403750" lon="10.360021">
        <ele>458.756246</ele>
        <time>2025-05-18T19:12:29.984Z</time>
      </trkpt>
      <trkpt lat="48.403430" lon="10.360003">
        <ele>458.886372</ele>
        <time>2025-05-18T19:12:36.921Z</time>
      </trkpt>
      <trkpt lat="48.401765" lon="10.360322">
        <ele>459.074398</ele>
        <time>2025-05-18T19:13:11.904Z</time>
      </trkpt>
      <trkpt lat="48.401299" lon="10.360300">
        <ele>459.055619</ele>
        <time>2025-05-18T19:13:21.576Z</time>
      </trkpt>
      <trkpt lat="48.400754" lon="10.360117">
        <ele>459.431675</ele>
        <time>2025-05-18T19:13:33.317Z</time>
      </trkpt>
      <trkpt lat="48.399828" lon="10.359714">
        <ele>460.549804</ele>
        <time>2025-05-18T19:13:55.344Z</time>
      </trkpt>
      <trkpt lat="48.399364" lon="10.359661">
        <ele>461.089604</ele>
        <time>2025-05-18T19:14:06.014Z</time>
      </trkpt>
      <trkpt lat="48.398941" lon="10.359666">
        <ele>461.997952</ele>
        <time>2025-05-18T19:14:15.873Z</time>
      </trkpt>
      <trkpt lat="48.398497" lon="10.359671">
        <ele>462.993903</ele>
        <time>2025-05-18T19:14:26.611Z</time>
      </trkpt>
      <trkpt lat="48.398116" lon="10.359568">
        <ele>463.862170</ele>
        <time>2025-05-18T19:14:35.881Z</time>
      </trkpt>
      <trkpt lat="48.397841" lon="10.359319">
        <ele>464.581902</ele>
        <time>2025-05-18T19:14:43.559Z</time>
      </trkpt>
      <trkpt lat="48.397806" lon="10.359287">
        <ele>464.673742</ele>
        <time>2025-05-18T19:14:44.534Z</time>
      </trkpt>
      <trkpt lat="48.397590" lon="10.358853">
        <ele>465.105011</ele>
        <time>2025-05-18T19:14:53.071Z</time>
      </trkpt>
      <trkpt lat="48.397261" lon="10.357722">
        <ele>464.739318</ele>
        <time>2025-05-18T19:15:11.162Z</time>
      </trkpt>
      <trkpt lat="48.397096" lon="10.357712">
        <ele>464.665660</ele>
        <time>2025-05-18T19:15:14.319Z</time>
      </trkpt>
      <trkpt lat="48.396918" lon="10.357735">
        <ele>464.585972</ele>
        <time>2025-05-18T19:15:17.511Z</time>
      </trkpt>
      <trkpt lat="48.396815" lon="10.357794">
        <ele>464.536818</ele>
        <time>2025-05-18T19:15:19.418Z</time>
      </trkpt>
      <trkpt lat="48.396593" lon="10.357944">
        <ele>464.428286</ele>
        <time>2025-05-18T19:15:23.500Z</time>
      </trkpt>
      <trkpt lat="48.396441" lon="10.358067">
        <ele>464.331340</ele>
        <time>2025-05-18T19:15:26.328Z</time>
      </trkpt>
      <trkpt lat="48.396240" lon="10.358228">
        <ele>464.083410</ele>
        <time>2025-05-18T19:15:30.022Z</time>
      </trkpt>
      <trkpt lat="48.396131" lon="10.358316">
        <ele>463.948724</ele>
        <time>2025-05-18T19:15:32.026Z</time>
      </trkpt>
      <trkpt lat="48.395962" lon="10.358491">
        <ele>463.725370</ele>
        <time>2025-05-18T19:15:35.459Z</time>
      </trkpt>
      <trkpt lat="48.395922" lon="10.358532">
        <ele>463.672677</ele>
        <time>2025-05-18T19:15:36.266Z</time>
      </trkpt>
      <trkpt lat="48.395693" lon="10.358778">
        <ele>463.366346</ele>
        <time>2025-05-18T19:15:41.265Z</time>
      </trkpt>
      <trkpt lat="48.395560" lon="10.358950">
        <ele>463.175432</ele>
        <time>2025-05-18T19:15:44.720Z</time>
      </trkpt>
      <trkpt lat="48.395385" lon="10.358695">
        <ele>462.910248</ele>
        <time>2025-05-18T19:15:49.857Z</time>
      </trkpt>
      <trkpt lat="48.395198" lon="10.358530">
        <ele>462.674219</ele>
        <time>2025-05-18T19:15:54.523Z</time>
      </trkpt>
      <trkpt lat="48.395108" lon="10.358451">
        <ele>462.560772</ele>
        <time>2025-05-18T19:15:56.827Z</time>
      </trkpt>
      <trkpt lat="48.395012" lon="10.358370">
        <ele>462.440935</ele>
        <time>2025-05-18T19:15:59.270Z</time>
      </trkpt>
      <trkpt lat="48.394944" lon="10.358311">
        <ele>462.480937</ele>
        <time>2025-05-18T19:16:01.038Z</time>
      </trkpt>
      <trkpt lat="48.394790" lon="10.358182">
        <ele>462.761995</ele>
        <time>2025-05-18T19:16:05.047Z</time>
      </trkpt>
      <trkpt lat="48.394697" lon="10.358094">
        <ele>462.937172</ele>
        <time>2025-05-18T19:16:07.586Z</time>
      </trkpt>
      <trkpt lat="48.394559" lon="10.357961">
        <ele>463.198486</ele>
        <time>2025-05-18T19:16:11.441Z</time>
      </trkpt>
      <trkpt lat="48.394420" lon="10.357969">
        <ele>463.420345</ele>
        <time>2025-05-18T19:16:14.697Z</time>
      </trkpt>
      <trkpt lat="48.394309" lon="10.357979">
        <ele>463.597701</ele>
        <time>2025-05-18T19:16:17.326Z</time>
      </trkpt>
      <trkpt lat="48.394283" lon="10.357985">
        <ele>463.639653</ele>
        <time>2025-05-18T19:16:17.945Z</time>
      </trkpt>
      <trkpt lat="48.394195" lon="10.358007">
        <ele>463.781929</ele>
        <time>2025-05-18T19:16:20.060Z</time>
      </trkpt>
      <trkpt lat="48.393958" lon="10.358059">
        <ele>464.163922</ele>
        <time>2025-05-18T19:16:25.695Z</time>
      </trkpt>
      <trkpt lat="48.393839" lon="10.358058">
        <ele>464.353724</ele>
        <time>2025-05-18T19:16:28.474Z</time>
      </trkpt>
      <trkpt lat="48.393560" lon="10.357977">
        <ele>464.806907</ele>
        <time>2025-05-18T19:16:34.981Z</time>
      </trkpt>
      <trkpt lat="48.393424" lon="10.357937">
        <ele>465.027918</ele>
        <time>2025-05-18T19:16:38.105Z</time>
      </trkpt>
      <trkpt lat="48.393010" lon="10.357874">
        <ele>465.361610</ele>
        <time>2025-05-18T19:16:47.655Z</time>
      </trkpt>
      <trkpt lat="48.392987" lon="10.357879">
        <ele>465.369308</ele>
        <time>2025-05-18T19:16:48.174Z</time>
      </trkpt>
      <trkpt lat="48.392804" lon="10.357942">
        <ele>465.431487</ele>
        <time>2025-05-18T19:16:52.499Z</time>
      </trkpt>
      <trkpt lat="48.392693" lon="10.357990">
        <ele>465.469740</ele>
        <time>2025-05-18T19:16:55.112Z</time>
      </trkpt>
      <trkpt lat="48.392568" lon="10.358007">
        <ele>465.511313</ele>
        <time>2025-05-18T19:16:57.915Z</time>
      </trkpt>
      <trkpt lat="48.392466" lon="10.357976">
        <ele>465.545780</ele>
        <time>2025-05-18T19:17:00.163Z</time>
      </trkpt>
      <trkpt lat="48.392443" lon="10.357969">
        <ele>465.553553</ele>
        <time>2025-05-18T19:17:00.665Z</time>
      </trkpt>
      <trkpt lat="48.392322" lon="10.357923">
        <ele>465.594889</ele>
        <time>2025-05-18T19:17:03.342Z</time>
      </trkpt>
      <trkpt lat="48.392166" lon="10.357876">
        <ele>465.647586</ele>
        <time>2025-05-18T19:17:06.661Z</time>
      </trkpt>
      <trkpt lat="48.391992" lon="10.357825">
        <ele>465.706303</ele>
        <time>2025-05-18T19:17:10.297Z</time>
      </trkpt>
      <trkpt lat="48.391912" lon="10.357818">
        <ele>465.732846</ele>
        <time>2025-05-18T19:17:11.936Z</time>
      </trkpt>
      <trkpt lat="48.391753" lon="10.357809">
        <ele>465.785550</ele>
        <time>2025-05-18T19:17:15.141Z</time>
      </trkpt>
      <trkpt lat="48.391370" lon="10.357850">
        <ele>465.680071</ele>
        <time>2025-05-18T19:17:22.989Z</time>
      </trkpt>
      <trkpt lat="48.390946" lon="10.357963">
        <ele>465.029587</ele>
        <time>2025-05-18T19:17:31.237Z</time>
      </trkpt>
      <trkpt lat="48.390155" lon="10.358162">
        <ele>463.818075</ele>
        <time>2025-05-18T19:17:45.188Z</time>
      </trkpt>
      <trkpt lat="48.389777" lon="10.358215">
        <ele>463.244567</ele>
        <time>2025-05-18T19:17:52.030Z</time>
      </trkpt>
      <trkpt lat="48.389521" lon="10.358186">
        <ele>463.028494</ele>
        <time>2025-05-18T19:17:56.742Z</time>
      </trkpt>
      <trkpt lat="48.389155" lon="10.358114">
        <ele>462.793380</ele>
        <time>2025-05-18T19:18:03.744Z</time>
      </trkpt>
      <trkpt lat="48.388651" lon="10.357868">
        <ele>462.455901</ele>
        <time>2025-05-18T19:18:14.201Z</time>
      </trkpt>
      <trkpt lat="48.387716" lon="10.357014">
        <ele>462.270470</ele>
        <time>2025-05-18T19:18:37.491Z</time>
      </trkpt>
      <trkpt lat="48.387054" lon="10.356682">
        <ele>462.739523</ele>
        <time>2025-05-18T19:18:52.824Z</time>
      </trkpt>
      <trkpt lat="48.386536" lon="10.356472">
        <ele>463.100141</ele>
        <time>2025-05-18T19:19:04.847Z</time>
      </trkpt>
      <trkpt lat="48.385992" lon="10.356112">
        <ele>464.028899</ele>
        <time>2025-05-18T19:19:18.451Z</time>
      </trkpt>
      <trkpt lat="48.385017" lon="10.355265">
        <ele>466.203539</ele>
        <time>2025-05-18T19:19:44.853Z</time>
      </trkpt>
      <trkpt lat="48.384594" lon="10.355032">
        <ele>467.230868</ele>
        <time>2025-05-18T19:19:55.529Z</time>
      </trkpt>
      <trkpt lat="48.383803" lon="10.354826">
        <ele>469.420217</ele>
        <time>2025-05-18T19:20:14.330Z</time>
      </trkpt>
      <trkpt lat="48.383450" lon="10.354646">
        <ele>470.436673</ele>
        <time>2025-05-18T19:20:23.342Z</time>
      </trkpt>
      <trkpt lat="48.382906" lon="10.354256">
        <ele>471.899826</ele>
        <time>2025-05-18T19:20:38.815Z</time>
      </trkpt>
      <trkpt lat="48.382572" lon="10.354084">
        <ele>472.503149</ele>
        <time>2025-05-18T19:20:47.506Z</time>
      </trkpt>
      <trkpt lat="48.382334" lon="10.354041">
        <ele>472.912845</ele>
        <time>2025-05-18T19:20:53.175Z</time>
      </trkpt>
      <trkpt lat="48.382062" lon="10.354082">
        <ele>473.380059</ele>
        <time>2025-05-18T19:20:59.541Z</time>
      </trkpt>
      <trkpt lat="48.381788" lon="10.354217">
        <ele>473.872803</ele>
        <time>2025-05-18T19:21:06.143Z</time>
      </trkpt>
      <trkpt lat="48.381397" lon="10.354501">
        <ele>474.614780</ele>
        <time>2025-05-18T19:21:15.685Z</time>
      </trkpt>
      <trkpt lat="48.381357" lon="10.354515">
        <ele>474.655748</ele>
        <time>2025-05-18T19:21:16.541Z</time>
      </trkpt>
      <trkpt lat="48.381235" lon="10.354556">
        <ele>474.400741</ele>
        <time>2025-05-18T19:21:18.915Z</time>
      </trkpt>
      <trkpt lat="48.381001" lon="10.354509">
        <ele>473.919148</ele>
        <time>2025-05-18T19:21:22.993Z</time>
      </trkpt>
      <trkpt lat="48.380832" lon="10.354436">
        <ele>473.560477</ele>
        <time>2025-05-18T19:21:25.862Z</time>
      </trkpt>
      <trkpt lat="48.380624" lon="10.354304">
        <ele>473.100001</ele>
        <time>2025-05-18T19:21:29.546Z</time>
      </trkpt>
      <trkpt lat="48.380364" lon="10.354184">
        <ele>472.545235</ele>
        <time>2025-05-18T19:21:34.028Z</time>
      </trkpt>
      <trkpt lat="48.380254" lon="10.354194">
        <ele>472.320424</ele>
        <time>2025-05-18T19:21:35.870Z</time>
      </trkpt>
      <trkpt lat="48.380217" lon="10.354197">
        <ele>472.244834</ele>
        <time>2025-05-18T19:21:36.513Z</time>
      </trkpt>
      <trkpt lat="48.380028" lon="10.354308">
        <ele>471.830975</ele>
        <time>2025-05-18T19:21:39.986Z</time>
      </trkpt>
      <trkpt lat="48.380002" lon="10.354327">
        <ele>471.772017</ele>
        <time>2025-05-18T19:21:40.475Z</time>
      </trkpt>
      <trkpt lat="48.379814" lon="10.354454">
        <ele>471.351658</ele>
        <time>2025-05-18T19:21:44.140Z</time>
      </trkpt>
      <trkpt lat="48.379786" lon="10.354473">
        <ele>471.289004</ele>
        <time>2025-05-18T19:21:44.687Z</time>
      </trkpt>
      <trkpt lat="48.379560" lon="10.354613">
        <ele>470.952739</ele>
        <time>2025-05-18T19:21:49.000Z</time>
      </trkpt>
      <trkpt lat="48.379274" lon="10.354722">
        <ele>470.811753</ele>
        <time>2025-05-18T19:21:54.247Z</time>
      </trkpt>
      <trkpt lat="48.379193" lon="10.354744">
        <ele>470.772419</ele>
        <time>2025-05-18T19:21:55.744Z</time>
      </trkpt>
      <trkpt lat="48.378887" lon="10.354720">
        <ele>470.625988</ele>
        <time>2025-05-18T19:22:01.517Z</time>
      </trkpt>
      <trkpt lat="48.378402" lon="10.354622">
        <ele>470.392136</ele>
        <time>2025-05-18T19:22:11.734Z</time>
      </trkpt>
      <trkpt lat="48.378108" lon="10.354600">
        <ele>470.251464</ele>
        <time>2025-05-18T19:22:18.312Z</time>
      </trkpt>
      <trkpt lat="48.377052" lon="10.354604">
        <ele>470.662234</ele>
        <time>2025-05-18T19:22:42.233Z</time>
      </trkpt>
      <trkpt lat="48.376677" lon="10.354538">
        <ele>470.898870</ele>
        <time>2025-05-18T19:22:50.753Z</time>
      </trkpt>
      <trkpt lat="48.376304" lon="10.354397">
        <ele>471.139909</ele>
        <time>2025-05-18T19:22:59.184Z</time>
      </trkpt>
      <trkpt lat="48.375850" lon="10.354118">
        <ele>470.807339</ele>
        <time>2025-05-18T19:23:09.059Z</time>
      </trkpt>
      <trkpt lat="48.375661" lon="10.353981">
        <ele>470.463744</ele>
        <time>2025-05-18T19:23:13.002Z</time>
      </trkpt>
      <trkpt lat="48.375403" lon="10.353854">
        <ele>470.019127</ele>
        <time>2025-05-18T19:23:17.840Z</time>
      </trkpt>
      <trkpt lat="48.375076" lon="10.353761">
        <ele>469.474032</ele>
        <time>2025-05-18T19:23:23.598Z</time>
      </trkpt>
      <trkpt lat="48.374562" lon="10.353736">
        <ele>468.631668</ele>
        <time>2025-05-18T19:23:32.439Z</time>
      </trkpt>
      <trkpt lat="48.374208" lon="10.353786">
        <ele>468.011665</ele>
        <time>2025-05-18T19:23:38.535Z</time>
      </trkpt>
      <trkpt lat="48.373461" lon="10.353895">
        <ele>466.614066</ele>
        <time>2025-05-18T19:23:51.749Z</time>
      </trkpt>
      <trkpt lat="48.372947" lon="10.355676">
        <ele>464.641053</ele>
        <time>2025-05-18T19:24:15.149Z</time>
      </trkpt>
      <trkpt lat="48.372879" lon="10.355908">
        <ele>464.503871</ele>
        <time>2025-05-18T19:24:18.236Z</time>
      </trkpt>
      <trkpt lat="48.372701" lon="10.356504">
        <ele>464.150359</ele>
        <time>2025-05-18T19:24:26.563Z</time>
      </trkpt>
      <trkpt lat="48.372384" lon="10.357574">
        <ele>463.516547</ele>
        <time>2025-05-18T19:24:42.693Z</time>
      </trkpt>
      <trkpt lat="48.372253" lon="10.358014">
        <ele>463.598713</ele>
        <time>2025-05-18T19:24:49.670Z</time>
      </trkpt>
      <trkpt lat="48.372182" lon="10.357978">
        <ele>463.620079</ele>
        <time>2025-05-18T19:24:51.294Z</time>
      </trkpt>
      <trkpt lat="48.371605" lon="10.357708">
        <ele>463.792397</ele>
        <time>2025-05-18T19:25:05.714Z</time>
      </trkpt>
      <trkpt lat="48.370776" lon="10.357104">
        <ele>464.026994</ele>
        <time>2025-05-18T19:25:27.709Z</time>
      </trkpt>
      <trkpt lat="48.370633" lon="10.357076">
        <ele>464.032458</ele>
        <time>2025-05-18T19:25:31.132Z</time>
      </trkpt>
      <trkpt lat="48.370529" lon="10.357093">
        <ele>464.036421</ele>
        <time>2025-05-18T19:25:33.590Z</time>
      </trkpt>
      <trkpt lat="48.370093" lon="10.357457">
        <ele>464.055311</ele>
        <time>2025-05-18T19:25:45.291Z</time>
      </trkpt>
      <trkpt lat="48.369847" lon="10.357602">
        <ele>464.065321</ele>
        <time>2025-05-18T19:25:51.487Z</time>
      </trkpt>
      <trkpt lat="48.369603" lon="10.357660">
        <ele>464.074680</ele>
        <time>2025-05-18T19:25:57.271Z</time>
      </trkpt>
      <trkpt lat="48.369357" lon="10.357610">
        <ele>464.084085</ele>
        <time>2025-05-18T19:26:03.039Z</time>
      </trkpt>
      <trkpt lat="48.368564" lon="10.357226">
        <ele>464.070142</ele>
        <time>2025-05-18T19:26:22.121Z</time>
      </trkpt>
      <trkpt lat="48.367153" lon="10.356704">
        <ele>464.205339</ele>
        <time>2025-05-18T19:26:56.067Z</time>
      </trkpt>
      <trkpt lat="48.366405" lon="10.356360">
        <ele>464.639095</ele>
        <time>2025-05-18T19:27:14.982Z</time>
      </trkpt>
      <trkpt lat="48.365347" lon="10.355879">
        <ele>465.650177</ele>
        <time>2025-05-18T19:27:41.824Z</time>
      </trkpt>
      <trkpt lat="48.365143" lon="10.355747">
        <ele>465.995623</ele>
        <time>2025-05-18T19:27:47.221Z</time>
      </trkpt>
      <trkpt lat="48.364866" lon="10.355455">
        <ele>466.521729</ele>
        <time>2025-05-18T19:27:55.513Z</time>
      </trkpt>
      <trkpt lat="48.364550" lon="10.354991">
        <ele>467.208514</ele>
        <time>2025-05-18T19:28:06.482Z</time>
      </trkpt>
      <trkpt lat="48.364734" lon="10.353963">
        <ele>468.657916</ele>
        <time>2025-05-18T19:28:23.493Z</time>
      </trkpt>
      <trkpt lat="48.364785" lon="10.353640">
        <ele>469.250908</ele>
        <time>2025-05-18T19:28:28.897Z</time>
      </trkpt>
      <trkpt lat="48.364803" lon="10.353528">
        <ele>469.456725</ele>
        <time>2025-05-18T19:28:30.799Z</time>
      </trkpt>
      <trkpt lat="48.364851" lon="10.353300">
        <ele>469.883921</ele>
        <time>2025-05-18T19:28:34.737Z</time>
      </trkpt>
      <trkpt lat="48.364899" lon="10.353068">
        <ele>470.317933</ele>
        <time>2025-05-18T19:28:38.764Z</time>
      </trkpt>
      <trkpt lat="48.365001" lon="10.352587">
        <ele>471.219765</ele>
        <time>2025-05-18T19:28:47.038Z</time>
      </trkpt>
      <trkpt lat="48.364820" lon="10.352465">
        <ele>471.752931</ele>
        <time>2025-05-18T19:28:51.824Z</time>
      </trkpt>
      <trkpt lat="48.364779" lon="10.352437">
        <ele>471.873971</ele>
        <time>2025-05-18T19:28:52.902Z</time>
      </trkpt>
      <trkpt lat="48.364573" lon="10.352298">
        <ele>472.480888</ele>
        <time>2025-05-18T19:28:58.259Z</time>
      </trkpt>
      <trkpt lat="48.364431" lon="10.352201">
        <ele>472.632274</ele>
        <time>2025-05-18T19:29:01.853Z</time>
      </trkpt>
      <trkpt lat="48.364311" lon="10.352158">
        <ele>472.585951</ele>
        <time>2025-05-18T19:29:04.585Z</time>
      </trkpt>
      <trkpt lat="48.364134" lon="10.352093">
        <ele>472.517534</ele>
        <time>2025-05-18T19:29:08.478Z</time>
      </trkpt>
      <trkpt lat="48.364005" lon="10.352058">
        <ele>472.468311</ele>
        <time>2025-05-18T19:29:11.195Z</time>
      </trkpt>
      <trkpt lat="48.363908" lon="10.352055">
        <ele>472.431877</ele>
        <time>2025-05-18T19:29:13.155Z</time>
      </trkpt>
      <trkpt lat="48.363750" lon="10.352050">
        <ele>472.372531</ele>
        <time>2025-05-18T19:29:16.311Z</time>
      </trkpt>
      <trkpt lat="48.363729" lon="10.352053">
        <ele>472.364610</ele>
        <time>2025-05-18T19:29:16.728Z</time>
      </trkpt>
      <trkpt lat="48.363525" lon="10.352082">
        <ele>472.287662</ele>
        <time>2025-05-18T19:29:20.776Z</time>
      </trkpt>
      <trkpt lat="48.363328" lon="10.352111">
        <ele>472.213331</ele>
        <time>2025-05-18T19:29:24.576Z</time>
      </trkpt>
      <trkpt lat="48.363245" lon="10.352122">
        <ele>472.182042</ele>
        <time>2025-05-18T19:29:26.131Z</time>
      </trkpt>
      <trkpt lat="48.363109" lon="10.352100">
        <ele>472.130676</ele>
        <time>2025-05-18T19:29:28.656Z</time>
      </trkpt>
      <trkpt lat="48.362954" lon="10.352075">
        <ele>472.072137</ele>
        <time>2025-05-18T19:29:31.507Z</time>
      </trkpt>
      <trkpt lat="48.362831" lon="10.352016">
        <ele>472.023659</ele>
        <time>2025-05-18T19:29:33.841Z</time>
      </trkpt>
      <trkpt lat="48.362440" lon="10.351828">
        <ele>471.839838</ele>
        <time>2025-05-18T19:29:41.340Z</time>
      </trkpt>
      <trkpt lat="48.362179" lon="10.351812">
        <ele>471.717513</ele>
        <time>2025-05-18T19:29:46.312Z</time>
      </trkpt>
      <trkpt lat="48.361968" lon="10.351851">
        <ele>471.617962</ele>
        <time>2025-05-18T19:29:50.599Z</time>
      </trkpt>
      <trkpt lat="48.361777" lon="10.351886">
        <ele>471.527858</ele>
        <time>2025-05-18T19:29:54.567Z</time>
      </trkpt>
      <trkpt lat="48.361638" lon="10.351902">
        <ele>471.462576</ele>
        <time>2025-05-18T19:29:57.469Z</time>
      </trkpt>
      <trkpt lat="48.361134" lon="10.351826">
        <ele>471.225376</ele>
        <time>2025-05-18T19:30:08.255Z</time>
      </trkpt>
      <trkpt lat="48.360884" lon="10.351717">
        <ele>471.180667</ele>
        <time>2025-05-18T19:30:13.886Z</time>
      </trkpt>
      <trkpt lat="48.360516" lon="10.351449">
        <ele>471.325839</ele>
        <time>2025-05-18T19:30:22.799Z</time>
      </trkpt>
      <trkpt lat="48.360101" lon="10.351150">
        <ele>471.489222</ele>
        <time>2025-05-18T19:30:33.336Z</time>
      </trkpt>
      <trkpt lat="48.359524" lon="10.350974">
        <ele>471.698282</ele>
        <time>2025-05-18T19:30:46.762Z</time>
      </trkpt>
      <trkpt lat="48.359233" lon="10.350924">
        <ele>471.765034</ele>
        <time>2025-05-18T19:30:53.253Z</time>
      </trkpt>
      <trkpt lat="48.358658" lon="10.350975">
        <ele>471.499318</ele>
        <time>2025-05-18T19:31:05.458Z</time>
      </trkpt>
      <trkpt lat="48.358081" lon="10.351079">
        <ele>471.231236</ele>
        <time>2025-05-18T19:31:17.481Z</time>
      </trkpt>
      <trkpt lat="48.357580" lon="10.351308">
        <ele>470.989692</ele>
        <time>2025-05-18T19:31:28.305Z</time>
      </trkpt>
      <trkpt lat="48.356154" lon="10.352051">
        <ele>470.545799</ele>
        <time>2025-05-18T19:32:00.582Z</time>
      </trkpt>
      <trkpt lat="48.355437" lon="10.352291">
        <ele>470.618759</ele>
        <time>2025-05-18T19:32:16.745Z</time>
      </trkpt>
      <trkpt lat="48.354951" lon="10.352410">
        <ele>470.851807</ele>
        <time>2025-05-18T19:32:27.738Z</time>
      </trkpt>
      <trkpt lat="48.354204" lon="10.352497">
        <ele>471.206418</ele>
        <time>2025-05-18T19:32:44.815Z</time>
      </trkpt>
      <trkpt lat="48.353924" lon="10.352439">
        <ele>471.418294</ele>
        <time>2025-05-18T19:32:51.395Z</time>
      </trkpt>
      <trkpt lat="48.353339" lon="10.352114">
        <ele>472.209127</ele>
        <time>2025-05-18T19:33:06.083Z</time>
      </trkpt>
      <trkpt lat="48.352962" lon="10.352017">
        <ele>472.694171</ele>
        <time>2025-05-18T19:33:15.156Z</time>
      </trkpt>
      <trkpt lat="48.352412" lon="10.352010">
        <ele>473.391697</ele>
        <time>2025-05-18T19:33:28.160Z</time>
      </trkpt>
      <trkpt lat="48.352258" lon="10.352065">
        <ele>473.574390</ele>
        <time>2025-05-18T19:33:31.889Z</time>
      </trkpt>
      <trkpt lat="48.352112" lon="10.352146">
        <ele>473.570954</ele>
        <time>2025-05-18T19:33:35.534Z</time>
      </trkpt>
      <trkpt lat="48.351405" lon="10.352765">
        <ele>473.552893</ele>
        <time>2025-05-18T19:33:53.859Z</time>
      </trkpt>
      <trkpt lat="48.350191" lon="10.353943">
        <ele>473.268265</ele>
        <time>2025-05-18T19:34:23.611Z</time>
      </trkpt>
      <trkpt lat="48.349235" lon="10.354861">
        <ele>472.790741</ele>
        <time>2025-05-18T19:34:47.842Z</time>
      </trkpt>
      <trkpt lat="48.348357" lon="10.355814">
        <ele>473.099685</ele>
        <time>2025-05-18T19:35:11.856Z</time>
      </trkpt>
      <trkpt lat="48.348051" lon="10.356102">
        <ele>473.210233</ele>
        <time>2025-05-18T19:35:20.125Z</time>
      </trkpt>
      <trkpt lat="48.347947" lon="10.356117">
        <ele>473.242232</ele>
        <time>2025-05-18T19:35:22.498Z</time>
      </trkpt>
      <trkpt lat="48.347797" lon="10.356063">
        <ele>473.289472</ele>
        <time>2025-05-18T19:35:26.039Z</time>
      </trkpt>
      <trkpt lat="48.347576" lon="10.355847">
        <ele>473.380628</ele>
        <time>2025-05-18T19:35:32.109Z</time>
      </trkpt>
      <trkpt lat="48.347427" lon="10.355905">
        <ele>473.439581</ele>
        <time>2025-05-18T19:35:35.534Z</time>
      </trkpt>
      <trkpt lat="48.347338" lon="10.355969">
        <ele>473.477366</ele>
        <time>2025-05-18T19:35:37.712Z</time>
      </trkpt>
      <trkpt lat="48.346854" lon="10.356305">
        <ele>473.681544</ele>
        <time>2025-05-18T19:35:49.552Z</time>
      </trkpt>
      <trkpt lat="48.346820" lon="10.356330">
        <ele>473.696040</ele>
        <time>2025-05-18T19:35:50.388Z</time>
      </trkpt>
      <trkpt lat="48.346388" lon="10.356637">
        <ele>473.879046</ele>
        <time>2025-05-18T19:36:00.678Z</time>
      </trkpt>
      <trkpt lat="48.346363" lon="10.356655">
        <ele>473.889662</ele>
        <time>2025-05-18T19:36:01.246Z</time>
      </trkpt>
      <trkpt lat="48.346197" lon="10.356773">
        <ele>473.959987</ele>
        <time>2025-05-18T19:36:05.079Z</time>
      </trkpt>
      <trkpt lat="48.346140" lon="10.356815">
        <ele>473.984299</ele>
        <time>2025-05-18T19:36:06.399Z</time>
      </trkpt>
      <trkpt lat="48.346052" lon="10.356880">
        <ele>474.018050</ele>
        <time>2025-05-18T19:36:08.465Z</time>
      </trkpt>
      <trkpt lat="48.345969" lon="10.356960">
        <ele>474.022821</ele>
        <time>2025-05-18T19:36:10.529Z</time>
      </trkpt>
      <trkpt lat="48.345784" lon="10.357136">
        <ele>474.033416</ele>
        <time>2025-05-18T19:36:15.047Z</time>
      </trkpt>
      <trkpt lat="48.345708" lon="10.357208">
        <ele>474.037763</ele>
        <time>2025-05-18T19:36:16.863Z</time>
      </trkpt>
      <trkpt lat="48.345541" lon="10.357366">
        <ele>474.047312</ele>
        <time>2025-05-18T19:36:20.815Z</time>
      </trkpt>
      <trkpt lat="48.345257" lon="10.357628">
        <ele>474.063437</ele>
        <time>2025-05-18T19:36:27.778Z</time>
      </trkpt>
      <trkpt lat="48.345163" lon="10.357714">
        <ele>474.068763</ele>
        <time>2025-05-18T19:36:30.113Z</time>
      </trkpt>
      <trkpt lat="48.345128" lon="10.357795">
        <ele>474.071871</ele>
        <time>2025-05-18T19:36:31.497Z</time>
      </trkpt>
      <trkpt lat="48.345077" lon="10.357801">
        <ele>474.074347</ele>
        <time>2025-05-18T19:36:32.612Z</time>
      </trkpt>
      <trkpt lat="48.344952" lon="10.357898">
        <ele>474.081155</ele>
        <time>2025-05-18T19:36:35.663Z</time>
      </trkpt>
      <trkpt lat="48.344882" lon="10.357952">
        <ele>474.084963</ele>
        <time>2025-05-18T19:36:37.367Z</time>
      </trkpt>
      <trkpt lat="48.344787" lon="10.358025">
        <ele>474.090126</ele>
        <time>2025-05-18T19:36:39.697Z</time>
      </trkpt>
      <trkpt lat="48.344637" lon="10.358073">
        <ele>474.097550</ele>
        <time>2025-05-18T19:36:43.063Z</time>
      </trkpt>
      <trkpt lat="48.344573" lon="10.358093">
        <ele>474.100714</ele>
        <time>2025-05-18T19:36:44.484Z</time>
      </trkpt>
      <trkpt lat="48.344364" lon="10.358017">
        <ele>474.151524</ele>
        <time>2025-05-18T19:36:49.175Z</time>
      </trkpt>
      <trkpt lat="48.344197" lon="10.357956">
        <ele>474.211089</ele>
        <time>2025-05-18T19:36:52.872Z</time>
      </trkpt>
      <trkpt lat="48.344175" lon="10.357948">
        <ele>474.218934</ele>
        <time>2025-05-18T19:36:53.336Z</time>
      </trkpt>
      <trkpt lat="48.343794" lon="10.357817">
        <ele>474.354395</ele>
        <time>2025-05-18T19:37:01.671Z</time>
      </trkpt>
      <trkpt lat="48.343571" lon="10.357781">
        <ele>474.432132</ele>
        <time>2025-05-18T19:37:06.543Z</time>
      </trkpt>
      <trkpt lat="48.343444" lon="10.357791">
        <ele>474.476211</ele>
        <time>2025-05-18T19:37:09.366Z</time>
      </trkpt>
      <trkpt lat="48.343406" lon="10.357793">
        <ele>474.489390</ele>
        <time>2025-05-18T19:37:10.205Z</time>
      </trkpt>
      <trkpt lat="48.343019" lon="10.357889">
        <ele>474.625338</ele>
        <time>2025-05-18T19:37:18.709Z</time>
      </trkpt>
      <trkpt lat="48.342833" lon="10.357964">
        <ele>474.692081</ele>
        <time>2025-05-18T19:37:22.847Z</time>
      </trkpt>
      <trkpt lat="48.342744" lon="10.358014">
        <ele>474.725010</ele>
        <time>2025-05-18T19:37:24.868Z</time>
      </trkpt>
      <trkpt lat="48.342580" lon="10.358113">
        <ele>474.869077</ele>
        <time>2025-05-18T19:37:28.653Z</time>
      </trkpt>
      <trkpt lat="48.342461" lon="10.358120">
        <ele>474.969017</ele>
        <time>2025-05-18T19:37:31.238Z</time>
      </trkpt>
      <trkpt lat="48.342390" lon="10.358220">
        <ele>475.050634</ele>
        <time>2025-05-18T19:37:33.385Z</time>
      </trkpt>
      <trkpt lat="48.342279" lon="10.358301">
        <ele>475.154164</ele>
        <time>2025-05-18T19:37:36.116Z</time>
      </trkpt>
      <trkpt lat="48.342238" lon="10.358325">
        <ele>475.191083</ele>
        <time>2025-05-18T19:37:37.102Z</time>
      </trkpt>
      <trkpt lat="48.342190" lon="10.358353">
        <ele>475.234286</ele>
        <time>2025-05-18T19:37:38.245Z</time>
      </trkpt>
      <trkpt lat="48.341856" lon="10.358453">
        <ele>475.520073</ele>
        <time>2025-05-18T19:37:45.869Z</time>
      </trkpt>
      <trkpt lat="48.341549" lon="10.358466">
        <ele>475.777807</ele>
        <time>2025-05-18T19:37:52.840Z</time>
      </trkpt>
      <trkpt lat="48.341424" lon="10.358471">
        <ele>475.882743</ele>
        <time>2025-05-18T19:37:55.663Z</time>
      </trkpt>
      <trkpt lat="48.341284" lon="10.358477">
        <ele>476.000278</ele>
        <time>2025-05-18T19:37:58.844Z</time>
      </trkpt>
      <trkpt lat="48.341237" lon="10.358479">
        <ele>476.039735</ele>
        <time>2025-05-18T19:37:59.919Z</time>
      </trkpt>
      <trkpt lat="48.340951" lon="10.358451">
        <ele>476.284451</ele>
        <time>2025-05-18T19:38:06.370Z</time>
      </trkpt>
      <trkpt lat="48.340830" lon="10.358391">
        <ele>476.401840</ele>
        <time>2025-05-18T19:38:09.253Z</time>
      </trkpt>
      <trkpt lat="48.340594" lon="10.358338">
        <ele>476.621700</ele>
        <time>2025-05-18T19:38:14.657Z</time>
      </trkpt>
      <trkpt lat="48.340472" lon="10.358311">
        <ele>476.735320</ele>
        <time>2025-05-18T19:38:17.466Z</time>
      </trkpt>
      <trkpt lat="48.340407" lon="10.358296">
        <ele>476.795912</ele>
        <time>2025-05-18T19:38:18.947Z</time>
      </trkpt>
      <trkpt lat="48.340150" lon="10.358197">
        <ele>477.040351</ele>
        <time>2025-05-18T19:38:24.932Z</time>
      </trkpt>
      <trkpt lat="48.339984" lon="10.358129">
        <ele>477.198872</ele>
        <time>2025-05-18T19:38:28.760Z</time>
      </trkpt>
      <trkpt lat="48.339925" lon="10.358106">
        <ele>477.255031</ele>
        <time>2025-05-18T19:38:30.112Z</time>
      </trkpt>
      <trkpt lat="48.339810" lon="10.358062">
        <ele>477.364365</ele>
        <time>2025-05-18T19:38:32.741Z</time>
      </trkpt>
      <trkpt lat="48.339603" lon="10.358009">
        <ele>477.557837</ele>
        <time>2025-05-18T19:38:37.372Z</time>
      </trkpt>
      <trkpt lat="48.339419" lon="10.357974">
        <ele>477.728725</ele>
        <time>2025-05-18T19:38:41.470Z</time>
      </trkpt>
      <trkpt lat="48.339345" lon="10.357969">
        <ele>477.796977</ele>
        <time>2025-05-18T19:38:43.109Z</time>
      </trkpt>
      <trkpt lat="48.339247" lon="10.357963">
        <ele>477.887349</ele>
        <time>2025-05-18T19:38:45.315Z</time>
      </trkpt>
      <trkpt lat="48.339232" lon="10.357962">
        <ele>477.896471</ele>
        <time>2025-05-18T19:38:45.653Z</time>
      </trkpt>
      <trkpt lat="48.338963" lon="10.357991">
        <ele>477.965421</ele>
        <time>2025-05-18T19:38:51.685Z</time>
      </trkpt>
      <trkpt lat="48.338735" lon="10.358039">
        <ele>478.024280</ele>
        <time>2025-05-18T19:38:56.851Z</time>
      </trkpt>
      <trkpt lat="48.338553" lon="10.358078">
        <ele>478.071280</ele>
        <time>2025-05-18T19:39:00.924Z</time>
      </trkpt>
      <trkpt lat="48.338470" lon="10.358095">
        <ele>478.092696</ele>
        <time>2025-05-18T19:39:02.774Z</time>
      </trkpt>
      <trkpt lat="48.338344" lon="10.358122">
        <ele>478.125235</ele>
        <time>2025-05-18T19:39:05.561Z</time>
      </trkpt>
      <trkpt lat="48.338200" lon="10.358153">
        <ele>478.162425</ele>
        <time>2025-05-18T19:39:08.694Z</time>
      </trkpt>
      <trkpt lat="48.338170" lon="10.358159">
        <ele>478.170163</ele>
        <time>2025-05-18T19:39:09.338Z</time>
      </trkpt>
      <trkpt lat="48.338132" lon="10.358167">
        <ele>478.179973</ele>
        <time>2025-05-18T19:39:10.154Z</time>
      </trkpt>
      <trkpt lat="48.337404" lon="10.358312">
        <ele>478.324644</ele>
        <time>2025-05-18T19:39:25.284Z</time>
      </trkpt>
      <trkpt lat="48.337219" lon="10.358347">
        <ele>478.216891</ele>
        <time>2025-05-18T19:39:29.073Z</time>
      </trkpt>
      <trkpt lat="48.337131" lon="10.358370">
        <ele>478.165274</ele>
        <time>2025-05-18T19:39:30.868Z</time>
      </trkpt>
      <trkpt lat="48.336902" lon="10.358601">
        <ele>478.005936</ele>
        <time>2025-05-18T19:39:36.321Z</time>
      </trkpt>
      <trkpt lat="48.336115" lon="10.359445">
        <ele>477.447388</ele>
        <time>2025-05-18T19:39:55.366Z</time>
      </trkpt>
      <trkpt lat="48.335472" lon="10.360086">
        <ele>477.238211</ele>
        <time>2025-05-18T19:40:11.184Z</time>
      </trkpt>
      <trkpt lat="48.334939" lon="10.360556">
        <ele>477.150663</ele>
        <time>2025-05-18T19:40:24.114Z</time>
      </trkpt>
      <trkpt lat="48.334655" lon="10.360757">
        <ele>477.106187</ele>
        <time>2025-05-18T19:40:30.756Z</time>
      </trkpt>
      <trkpt lat="48.334356" lon="10.360907">
        <ele>477.061524</ele>
        <time>2025-05-18T19:40:37.477Z</time>
      </trkpt>
      <trkpt lat="48.333816" lon="10.361079">
        <ele>476.953821</ele>
        <time>2025-05-18T19:40:49.116Z</time>
      </trkpt>
      <trkpt lat="48.333594" lon="10.361234">
        <ele>476.905839</ele>
        <time>2025-05-18T19:40:54.240Z</time>
      </trkpt>
      <trkpt lat="48.333465" lon="10.361387">
        <ele>476.873634</ele>
        <time>2025-05-18T19:40:57.645Z</time>
      </trkpt>
      <trkpt lat="48.333041" lon="10.362048">
        <ele>476.753923</ele>
        <time>2025-05-18T19:41:10.168Z</time>
      </trkpt>
      <trkpt lat="48.332736" lon="10.362301">
        <ele>476.722302</ele>
        <time>2025-05-18T19:41:17.224Z</time>
      </trkpt>
      <trkpt lat="48.332451" lon="10.362474">
        <ele>476.762704</ele>
        <time>2025-05-18T19:41:23.436Z</time>
      </trkpt>
      <trkpt lat="48.332278" lon="10.362538">
        <ele>476.786124</ele>
        <time>2025-05-18T19:41:27.087Z</time>
      </trkpt>
      <trkpt lat="48.331989" lon="10.362575">
        <ele>476.824253</ele>
        <time>2025-05-18T19:41:33.113Z</time>
      </trkpt>
      <trkpt lat="48.331830" lon="10.362633">
        <ele>476.845760</ele>
        <time>2025-05-18T19:41:36.586Z</time>
      </trkpt>
      <trkpt lat="48.331578" lon="10.362787">
        <ele>476.881517</ele>
        <time>2025-05-18T19:41:42.501Z</time>
      </trkpt>
      <trkpt lat="48.331143" lon="10.363153">
        <ele>476.968629</ele>
        <time>2025-05-18T19:41:53.511Z</time>
      </trkpt>
      <trkpt lat="48.330943" lon="10.363384">
        <ele>477.239745</ele>
        <time>2025-05-18T19:41:59.154Z</time>
      </trkpt>
      <trkpt lat="48.330736" lon="10.363551">
        <ele>477.492297</ele>
        <time>2025-05-18T19:42:04.459Z</time>
      </trkpt>
      <trkpt lat="48.329832" lon="10.363977">
        <ele>478.510835</ele>
        <time>2025-05-18T19:42:26.067Z</time>
      </trkpt>
      <trkpt lat="48.329584" lon="10.364169">
        <ele>478.810726</ele>
        <time>2025-05-18T19:42:32.357Z</time>
      </trkpt>
      <trkpt lat="48.329315" lon="10.364368">
        <ele>478.991043</ele>
        <time>2025-05-18T19:42:39.103Z</time>
      </trkpt>
      <trkpt lat="48.329211" lon="10.364420">
        <ele>479.043303</ele>
        <time>2025-05-18T19:42:41.534Z</time>
      </trkpt>
      <trkpt lat="48.329118" lon="10.364468">
        <ele>479.090188</ele>
        <time>2025-05-18T19:42:43.736Z</time>
      </trkpt>
      <trkpt lat="48.328880" lon="10.364589">
        <ele>479.209985</ele>
        <time>2025-05-18T19:42:49.277Z</time>
      </trkpt>
      <trkpt lat="48.328744" lon="10.364660">
        <ele>479.278631</ele>
        <time>2025-05-18T19:42:52.465Z</time>
      </trkpt>
      <trkpt lat="48.328670" lon="10.364699">
        <ele>479.316021</ele>
        <time>2025-05-18T19:42:54.176Z</time>
      </trkpt>
      <trkpt lat="48.328464" lon="10.364808">
        <ele>479.420151</ele>
        <time>2025-05-18T19:42:58.969Z</time>
      </trkpt>
      <trkpt lat="48.328436" lon="10.364826">
        <ele>479.434672</ele>
        <time>2025-05-18T19:42:59.635Z</time>
      </trkpt>
      <trkpt lat="48.328268" lon="10.364942">
        <ele>479.522819</ele>
        <time>2025-05-18T19:43:03.621Z</time>
      </trkpt>
      <trkpt lat="48.328216" lon="10.364976">
        <ele>479.549857</ele>
        <time>2025-05-18T19:43:04.813Z</time>
      </trkpt>
      <trkpt lat="48.328094" lon="10.365054">
        <ele>479.613069</ele>
        <time>2025-05-18T19:43:07.624Z</time>
      </trkpt>
      <trkpt lat="48.327719" lon="10.365303">
        <ele>479.693487</ele>
        <time>2025-05-18T19:43:16.302Z</time>
      </trkpt>
      <trkpt lat="48.327594" lon="10.365387">
        <ele>479.655859</ele>
        <time>2025-05-18T19:43:19.177Z</time>
      </trkpt>
      <trkpt lat="48.327083" lon="10.365709">
        <ele>479.503592</ele>
        <time>2025-05-18T19:43:30.506Z</time>
      </trkpt>
      <trkpt lat="48.326777" lon="10.365902">
        <ele>479.412398</ele>
        <time>2025-05-18T19:43:37.214Z</time>
      </trkpt>
      <trkpt lat="48.326041" lon="10.366219">
        <ele>479.201706</ele>
        <time>2025-05-18T19:43:52.752Z</time>
      </trkpt>
      <trkpt lat="48.325661" lon="10.366278">
        <ele>479.095956</ele>
        <time>2025-05-18T19:44:00.708Z</time>
      </trkpt>
      <trkpt lat="48.325338" lon="10.366173">
        <ele>479.004478</ele>
        <time>2025-05-18T19:44:07.518Z</time>
      </trkpt>
      <trkpt lat="48.325001" lon="10.365872">
        <ele>478.895980</ele>
        <time>2025-05-18T19:44:15.602Z</time>
      </trkpt>
      <trkpt lat="48.324841" lon="10.365803">
        <ele>478.849904</ele>
        <time>2025-05-18T19:44:19.016Z</time>
      </trkpt>
      <trkpt lat="48.324218" lon="10.365703">
        <ele>478.666252</ele>
        <time>2025-05-18T19:44:31.921Z</time>
      </trkpt>
      <trkpt lat="48.324123" lon="10.365712">
        <ele>478.635876</ele>
        <time>2025-05-18T19:44:33.871Z</time>
      </trkpt>
      <trkpt lat="48.323681" lon="10.365914">
        <ele>478.488461</ele>
        <time>2025-05-18T19:44:43.076Z</time>
      </trkpt>
      <trkpt lat="48.323538" lon="10.365950">
        <ele>478.442193</ele>
        <time>2025-05-18T19:44:45.974Z</time>
      </trkpt>
      <trkpt lat="48.323280" lon="10.365902">
        <ele>478.359235</ele>
        <time>2025-05-18T19:44:51.258Z</time>
      </trkpt>
      <trkpt lat="48.323181" lon="10.365826">
        <ele>478.323765</ele>
        <time>2025-05-18T19:44:53.551Z</time>
      </trkpt>
      <trkpt lat="48.322938" lon="10.365506">
        <ele>478.220695</ele>
        <time>2025-05-18T19:45:00.302Z</time>
      </trkpt>
      <trkpt lat="48.322418" lon="10.364534">
        <ele>478.312736</ele>
        <time>2025-05-18T19:45:17.986Z</time>
      </trkpt>
      <trkpt lat="48.322033" lon="10.364239">
        <ele>478.405385</ele>
        <time>2025-05-18T19:45:27.264Z</time>
      </trkpt>
      <trkpt lat="48.321345" lon="10.363639">
        <ele>478.618371</ele>
        <time>2025-05-18T19:45:44.443Z</time>
      </trkpt>
      <trkpt lat="48.320146" lon="10.362905">
        <ele>479.460075</ele>
        <time>2025-05-18T19:46:13.126Z</time>
      </trkpt>
      <trkpt lat="48.319702" lon="10.362664">
        <ele>479.723147</ele>
        <time>2025-05-18T19:46:23.704Z</time>
      </trkpt>
      <trkpt lat="48.319223" lon="10.362563">
        <ele>479.713131</ele>
        <time>2025-05-18T19:46:34.316Z</time>
      </trkpt>
      <trkpt lat="48.318806" lon="10.362622">
        <ele>479.704458</ele>
        <time>2025-05-18T19:46:43.252Z</time>
      </trkpt>
      <trkpt lat="48.318708" lon="10.365055">
        <ele>479.494827</ele>
        <time>2025-05-18T19:47:15.691Z</time>
      </trkpt>
      <trkpt lat="48.318584" lon="10.365465">
        <ele>479.421880</ele>
        <time>2025-05-18T19:47:21.810Z</time>
      </trkpt>
      <trkpt lat="48.318494" lon="10.365756">
        <ele>479.369903</ele>
        <time>2025-05-18T19:47:26.237Z</time>
      </trkpt>
      <trkpt lat="48.318436" lon="10.365929">
        <ele>479.338525</ele>
        <time>2025-05-18T19:47:28.944Z</time>
      </trkpt>
      <trkpt lat="48.317555" lon="10.368533">
        <ele>480.040059</ele>
        <time>2025-05-18T19:48:11.557Z</time>
      </trkpt>
      <trkpt lat="48.317008" lon="10.368091">
        <ele>480.397585</ele>
        <time>2025-05-18T19:48:25.242Z</time>
      </trkpt>
      <trkpt lat="48.316736" lon="10.367953">
        <ele>480.574724</ele>
        <time>2025-05-18T19:48:31.564Z</time>
      </trkpt>
      <trkpt lat="48.316703" lon="10.367950">
        <ele>480.595124</ele>
        <time>2025-05-18T19:48:32.284Z</time>
      </trkpt>
      <trkpt lat="48.316401" lon="10.367924">
        <ele>480.781785</ele>
        <time>2025-05-18T19:48:38.977Z</time>
      </trkpt>
      <trkpt lat="48.315772" lon="10.368077">
        <ele>481.174967</ele>
        <time>2025-05-18T19:48:53.022Z</time>
      </trkpt>
      <trkpt lat="48.315758" lon="10.368168">
        <ele>481.213297</ele>
        <time>2025-05-18T19:48:54.399Z</time>
      </trkpt>
      <trkpt lat="48.315733" lon="10.368324">
        <ele>481.286086</ele>
        <time>2025-05-18T19:48:56.755Z</time>
      </trkpt>
      <trkpt lat="48.315723" lon="10.368390">
        <ele>481.324854</ele>
        <time>2025-05-18T19:48:57.750Z</time>
      </trkpt>
      <trkpt lat="48.315644" lon="10.369275">
        <ele>481.836258</ele>
        <time>2025-05-18T19:49:10.944Z</time>
      </trkpt>
      <trkpt lat="48.315617" lon="10.370338">
        <ele>482.445504</ele>
        <time>2025-05-18T19:49:26.768Z</time>
      </trkpt>
      <trkpt lat="48.315589" lon="10.370865">
        <ele>482.748290</ele>
        <time>2025-05-18T19:49:34.657Z</time>
      </trkpt>
      <trkpt lat="48.315583" lon="10.370958">
        <ele>482.801803</ele>
        <time>2025-05-18T19:49:36.060Z</time>
      </trkpt>
      <trkpt lat="48.315545" lon="10.371377">
        <ele>483.161870</ele>
        <time>2025-05-18T19:49:42.460Z</time>
      </trkpt>
      <trkpt lat="48.315459" lon="10.371550">
        <ele>483.348047</ele>
        <time>2025-05-18T19:49:45.728Z</time>
      </trkpt>
      <trkpt lat="48.315384" lon="10.371656">
        <ele>483.481457</ele>
        <time>2025-05-18T19:49:48.073Z</time>
      </trkpt>
      <trkpt lat="48.315140" lon="10.371974">
        <ele>483.899971</ele>
        <time>2025-05-18T19:49:55.441Z</time>
      </trkpt>
      <trkpt lat="48.315123" lon="10.372010">
        <ele>483.938030</ele>
        <time>2025-05-18T19:49:56.117Z</time>
      </trkpt>
      <trkpt lat="48.315074" lon="10.372233">
        <ele>484.140471</ele>
        <time>2025-05-18T19:49:59.703Z</time>
      </trkpt>
      <trkpt lat="48.315056" lon="10.372521">
        <ele>484.389815</ele>
        <time>2025-05-18T19:50:04.119Z</time>
      </trkpt>
      <trkpt lat="48.315052" lon="10.372638">
        <ele>484.490799</ele>
        <time>2025-05-18T19:50:05.895Z</time>
      </trkpt>
      <trkpt lat="48.315060" lon="10.372726">
        <ele>484.567359</ele>
        <time>2025-05-18T19:50:07.244Z</time>
      </trkpt>
      <trkpt lat="48.315099" lon="10.373012">
        <ele>484.819013</ele>
        <time>2025-05-18T19:50:11.699Z</time>
      </trkpt>
      <trkpt lat="48.315123" lon="10.373117">
        <ele>484.914717</ele>
        <time>2025-05-18T19:50:13.375Z</time>
      </trkpt>
      <trkpt lat="48.315192" lon="10.373419">
        <ele>485.175376</ele>
        <time>2025-05-18T19:50:18.229Z</time>
      </trkpt>
      <trkpt lat="48.315206" lon="10.373481">
        <ele>485.214685</ele>
        <time>2025-05-18T19:50:19.218Z</time>
      </trkpt>
      <trkpt lat="48.315215" lon="10.373522">
        <ele>485.240606</ele>
        <time>2025-05-18T19:50:19.863Z</time>
      </trkpt>
      <trkpt lat="48.315253" lon="10.373695">
        <ele>485.349985</ele>
        <time>2025-05-18T19:50:22.616Z</time>
      </trkpt>
      <trkpt lat="48.315305" lon="10.373948">
        <ele>485.508963</ele>
        <time>2025-05-18T19:50:26.594Z</time>
      </trkpt>
      <trkpt lat="48.315325" lon="10.374063">
        <ele>485.580325</ele>
        <time>2025-05-18T19:50:28.374Z</time>
      </trkpt>
      <trkpt lat="48.315339" lon="10.374137">
        <ele>485.626514</ele>
        <time>2025-05-18T19:50:29.524Z</time>
      </trkpt>
      <trkpt lat="48.315396" lon="10.374721">
        <ele>485.980875</ele>
        <time>2025-05-18T19:50:38.337Z</time>
      </trkpt>
      <trkpt lat="48.315326" lon="10.374746">
        <ele>486.045825</ele>
        <time>2025-05-18T19:50:39.948Z</time>
      </trkpt>
      <trkpt lat="48.315098" lon="10.374818">
        <ele>486.256140</ele>
        <time>2025-05-18T19:50:45.157Z</time>
      </trkpt>
      <trkpt lat="48.314910" lon="10.374932">
        <ele>486.439136</ele>
        <time>2025-05-18T19:50:49.657Z</time>
      </trkpt>
      <trkpt lat="48.314813" lon="10.375036">
        <ele>486.546683</ele>
        <time>2025-05-18T19:50:52.281Z</time>
      </trkpt>
      <trkpt lat="48.314686" lon="10.375306">
        <ele>486.745226</ele>
        <time>2025-05-18T19:50:57.135Z</time>
      </trkpt>
      <trkpt lat="48.314642" lon="10.375398">
        <ele>486.766026</ele>
        <time>2025-05-18T19:50:58.797Z</time>
      </trkpt>
      <trkpt lat="48.314541" lon="10.375613">
        <ele>486.767428</ele>
        <time>2025-05-18T19:51:02.663Z</time>
      </trkpt>
      <trkpt lat="48.314448" lon="10.375776">
        <ele>486.768572</ele>
        <time>2025-05-18T19:51:05.828Z</time>
      </trkpt>
      <trkpt lat="48.314273" lon="10.375953">
        <ele>486.770261</ele>
        <time>2025-05-18T19:51:10.445Z</time>
      </trkpt>
      <trkpt lat="48.313932" lon="10.376334">
        <ele>486.773664</ele>
        <time>2025-05-18T19:51:19.462Z</time>
      </trkpt>
      <trkpt lat="48.313746" lon="10.376527">
        <ele>486.775475</ele>
        <time>2025-05-18T19:51:24.051Z</time>
      </trkpt>
      <trkpt lat="48.313555" lon="10.376527">
        <ele>486.777005</ele>
        <time>2025-05-18T19:51:27.855Z</time>
      </trkpt>
      <trkpt lat="48.313385" lon="10.376430">
        <ele>486.778461</ele>
        <time>2025-05-18T19:51:31.482Z</time>
      </trkpt>
      <trkpt lat="48.313208" lon="10.376254">
        <ele>486.788080</ele>
        <time>2025-05-18T19:51:35.791Z</time>
      </trkpt>
      <trkpt lat="48.313168" lon="10.376205">
        <ele>486.810235</ele>
        <time>2025-05-18T19:51:36.833Z</time>
      </trkpt>
      <trkpt lat="48.312911" lon="10.375896">
        <ele>486.951538</ele>
        <time>2025-05-18T19:51:43.580Z</time>
      </trkpt>
      <trkpt lat="48.312754" lon="10.375804">
        <ele>487.023895</ele>
        <time>2025-05-18T19:51:47.008Z</time>
      </trkpt>
      <trkpt lat="48.312723" lon="10.375798">
        <ele>487.037317</ele>
        <time>2025-05-18T19:51:47.625Z</time>
      </trkpt>
      <trkpt lat="48.312438" lon="10.375796">
        <ele>487.159701</ele>
        <time>2025-05-18T19:51:53.481Z</time>
      </trkpt>
      <trkpt lat="48.312368" lon="10.375801">
        <ele>487.189794</ele>
        <time>2025-05-18T19:51:54.959Z</time>
      </trkpt>
      <trkpt lat="48.311984" lon="10.375916">
        <ele>487.357928</ele>
        <time>2025-05-18T19:52:03.685Z</time>
      </trkpt>
      <trkpt lat="48.311772" lon="10.375984">
        <ele>487.451012</ele>
        <time>2025-05-18T19:52:08.654Z</time>
      </trkpt>
      <trkpt lat="48.311674" lon="10.376015">
        <ele>487.494015</ele>
        <time>2025-05-18T19:52:10.950Z</time>
      </trkpt>
      <trkpt lat="48.311477" lon="10.376074">
        <ele>487.644280</ele>
        <time>2025-05-18T19:52:15.599Z</time>
      </trkpt>
      <trkpt lat="48.311295" lon="10.376116">
        <ele>487.904750</ele>
        <time>2025-05-18T19:52:19.886Z</time>
      </trkpt>
      <trkpt lat="48.311269" lon="10.376114">
        <ele>487.941577</ele>
        <time>2025-05-18T19:52:20.504Z</time>
      </trkpt>
      <trkpt lat="48.311151" lon="10.376080">
        <ele>488.111536</ele>
        <time>2025-05-18T19:52:23.287Z</time>
      </trkpt>
      <trkpt lat="48.311112" lon="10.376204">
        <ele>488.240585</ele>
        <time>2025-05-18T19:52:25.412Z</time>
      </trkpt>
      <trkpt lat="48.310917" lon="10.376425">
        <ele>488.586016</ele>
        <time>2025-05-18T19:52:31.068Z</time>
      </trkpt>
      <trkpt lat="48.310887" lon="10.376462">
        <ele>488.640904</ele>
        <time>2025-05-18T19:52:31.963Z</time>
      </trkpt>
      <trkpt lat="48.310867" lon="10.376487">
        <ele>488.677696</ele>
        <time>2025-05-18T19:52:32.555Z</time>
      </trkpt>
      <trkpt lat="48.310736" lon="10.376648">
        <ele>488.917038</ele>
        <time>2025-05-18T19:52:36.452Z</time>
      </trkpt>
      <trkpt lat="48.310720" lon="10.376661">
        <ele>488.942764</ele>
        <time>2025-05-18T19:52:36.876Z</time>
      </trkpt>
      <trkpt lat="48.310637" lon="10.376725">
        <ele>489.074715</ele>
        <time>2025-05-18T19:52:39.030Z</time>
      </trkpt>
      <trkpt lat="48.310421" lon="10.377014">
        <ele>489.483728</ele>
        <time>2025-05-18T19:52:45.683Z</time>
      </trkpt>
      <trkpt lat="48.310256" lon="10.377235">
        <ele>489.796317</ele>
        <time>2025-05-18T19:52:50.683Z</time>
      </trkpt>
      <trkpt lat="48.310034" lon="10.377533">
        <ele>490.139522</ele>
        <time>2025-05-18T19:52:57.326Z</time>
      </trkpt>
      <trkpt lat="48.309386" lon="10.378410">
        <ele>490.577335</ele>
        <time>2025-05-18T19:53:16.427Z</time>
      </trkpt>
      <trkpt lat="48.309261" lon="10.378573">
        <ele>490.660424</ele>
        <time>2025-05-18T19:53:19.997Z</time>
      </trkpt>
      <trkpt lat="48.309071" lon="10.378694">
        <ele>490.764041</ele>
        <time>2025-05-18T19:53:24.496Z</time>
      </trkpt>
      <trkpt lat="48.307425" lon="10.379596">
        <ele>491.607490</ele>
        <time>2025-05-18T19:54:02.498Z</time>
      </trkpt>
      <trkpt lat="48.307231" lon="10.379735">
        <ele>491.709323</ele>
        <time>2025-05-18T19:54:07.224Z</time>
      </trkpt>
      <trkpt lat="48.306894" lon="10.380082">
        <ele>491.955658</ele>
        <time>2025-05-18T19:54:16.268Z</time>
      </trkpt>
      <trkpt lat="48.303769" lon="10.384193">
        <ele>495.900307</ele>
        <time>2025-05-18T19:55:49.931Z</time>
      </trkpt>
      <trkpt lat="48.303193" lon="10.385119">
        <ele>496.414414</ele>
        <time>2025-05-18T19:56:08.801Z</time>
      </trkpt>
      <trkpt lat="48.302539" lon="10.386344">
        <ele>495.657005</ele>
        <time>2025-05-18T19:56:29.502Z</time>
      </trkpt>
      <trkpt lat="48.302043" lon="10.387321">
        <ele>494.638716</ele>
        <time>2025-05-18T19:56:43.906Z</time>
      </trkpt>
      <trkpt lat="48.301873" lon="10.387559">
        <ele>494.350938</ele>
        <time>2025-05-18T19:56:47.977Z</time>
      </trkpt>
      <trkpt lat="48.300592" lon="10.388708">
        <ele>493.317707</ele>
        <time>2025-05-18T19:57:17.079Z</time>
      </trkpt>
      <trkpt lat="48.300244" lon="10.388895">
        <ele>493.176524</ele>
        <time>2025-05-18T19:57:25.209Z</time>
      </trkpt>
      <trkpt lat="48.299498" lon="10.389183">
        <ele>493.993976</ele>
        <time>2025-05-18T19:57:42.555Z</time>
      </trkpt>
      <trkpt lat="48.299199" lon="10.389336">
        <ele>494.329198</ele>
        <time>2025-05-18T19:57:49.792Z</time>
      </trkpt>
      <trkpt lat="48.299020" lon="10.389456">
        <ele>494.537214</ele>
        <time>2025-05-18T19:57:54.296Z</time>
      </trkpt>
      <trkpt lat="48.298774" lon="10.389621">
        <ele>494.823115</ele>
        <time>2025-05-18T19:58:00.500Z</time>
      </trkpt>
      <trkpt lat="48.298498" lon="10.389821">
        <ele>495.211233</ele>
        <time>2025-05-18T19:58:07.406Z</time>
      </trkpt>
      <trkpt lat="48.298358" lon="10.389947">
        <ele>495.466807</ele>
        <time>2025-05-18T19:58:11.074Z</time>
      </trkpt>
      <trkpt lat="48.298339" lon="10.389965">
        <ele>495.501983</ele>
        <time>2025-05-18T19:58:11.578Z</time>
      </trkpt>
      <trkpt lat="48.298269" lon="10.390037">
        <ele>495.634831</ele>
        <time>2025-05-18T19:58:13.476Z</time>
      </trkpt>
      <trkpt lat="48.298254" lon="10.390052">
        <ele>495.663049</ele>
        <time>2025-05-18T19:58:13.883Z</time>
      </trkpt>
      <trkpt lat="48.298029" lon="10.390284">
        <ele>496.090397</ele>
        <time>2025-05-18T19:58:20.022Z</time>
      </trkpt>
      <trkpt lat="48.297847" lon="10.390470">
        <ele>496.435099</ele>
        <time>2025-05-18T19:58:24.967Z</time>
      </trkpt>
      <trkpt lat="48.297817" lon="10.390505">
        <ele>496.494578</ele>
        <time>2025-05-18T19:58:25.828Z</time>
      </trkpt>
      <trkpt lat="48.297784" lon="10.390541">
        <ele>496.558442</ele>
        <time>2025-05-18T19:58:26.747Z</time>
      </trkpt>
      <trkpt lat="48.297640" lon="10.390707">
        <ele>496.842671</ele>
        <time>2025-05-18T19:58:30.885Z</time>
      </trkpt>
      <trkpt lat="48.297606" lon="10.390745">
        <ele>496.909030</ele>
        <time>2025-05-18T19:58:31.852Z</time>
      </trkpt>
      <trkpt lat="48.297455" lon="10.390943">
        <ele>497.222875</ele>
        <time>2025-05-18T19:58:36.500Z</time>
      </trkpt>
      <trkpt lat="48.297160" lon="10.391364">
        <ele>497.853652</ele>
        <time>2025-05-18T19:58:46.197Z</time>
      </trkpt>
      <trkpt lat="48.296977" lon="10.391636">
        <ele>498.161467</ele>
        <time>2025-05-18T19:58:52.425Z</time>
      </trkpt>
      <trkpt lat="48.296844" lon="10.391393">
        <ele>498.411849</ele>
        <time>2025-05-18T19:58:57.474Z</time>
      </trkpt>
      <trkpt lat="48.296499" lon="10.391209">
        <ele>498.849694</ele>
        <time>2025-05-18T19:59:06.125Z</time>
      </trkpt>
      <trkpt lat="48.296357" lon="10.391177">
        <ele>499.021432</ele>
        <time>2025-05-18T19:59:09.375Z</time>
      </trkpt>
      <trkpt lat="48.295990" lon="10.391380">
        <ele>499.489163</ele>
        <time>2025-05-18T19:59:18.117Z</time>
      </trkpt>
      <trkpt lat="48.295985" lon="10.391471">
        <ele>499.561819</ele>
        <time>2025-05-18T19:59:19.442Z</time>
      </trkpt>
      <trkpt lat="48.295840" lon="10.392009">
        <ele>499.948574</ele>
        <time>2025-05-18T19:59:27.552Z</time>
      </trkpt>
      <trkpt lat="48.295673" lon="10.392310">
        <ele>499.663647</ele>
        <time>2025-05-18T19:59:32.279Z</time>
      </trkpt>
      <trkpt lat="48.295487" lon="10.392443">
        <ele>499.438572</ele>
        <time>2025-05-18T19:59:35.834Z</time>
      </trkpt>
      <trkpt lat="48.295459" lon="10.392464">
        <ele>499.404378</ele>
        <time>2025-05-18T19:59:36.362Z</time>
      </trkpt>
      <trkpt lat="48.295286" lon="10.392596">
        <ele>499.192374</ele>
        <time>2025-05-18T19:59:39.569Z</time>
      </trkpt>
      <trkpt lat="48.295035" lon="10.392788">
        <ele>498.884624</ele>
        <time>2025-05-18T19:59:44.323Z</time>
      </trkpt>
      <trkpt lat="48.294869" lon="10.392915">
        <ele>498.681085</ele>
        <time>2025-05-18T19:59:47.590Z</time>
      </trkpt>
      <trkpt lat="48.294837" lon="10.392940">
        <ele>498.641676</ele>
        <time>2025-05-18T19:59:48.266Z</time>
      </trkpt>
      <trkpt lat="48.294376" lon="10.393318">
        <ele>498.067846</ele>
        <time>2025-05-18T19:59:59.117Z</time>
      </trkpt>
      <trkpt lat="48.294278" lon="10.393408">
        <ele>498.155933</ele>
        <time>2025-05-18T20:00:01.627Z</time>
      </trkpt>
      <trkpt lat="48.294236" lon="10.393527">
        <ele>498.330853</ele>
        <time>2025-05-18T20:00:03.601Z</time>
      </trkpt>
      <trkpt lat="48.294033" lon="10.393512">
        <ele>498.727535</ele>
        <time>2025-05-18T20:00:08.197Z</time>
      </trkpt>
      <trkpt lat="48.293796" lon="10.393475">
        <ele>499.192586</ele>
        <time>2025-05-18T20:00:13.696Z</time>
      </trkpt>
      <trkpt lat="48.293718" lon="10.393456">
        <ele>499.346809</ele>
        <time>2025-05-18T20:00:15.555Z</time>
      </trkpt>
      <trkpt lat="48.293696" lon="10.393450">
        <ele>499.390448</ele>
        <time>2025-05-18T20:00:16.069Z</time>
      </trkpt>
      <trkpt lat="48.293414" lon="10.393380">
        <ele>499.948295</ele>
        <time>2025-05-18T20:00:22.838Z</time>
      </trkpt>
      <trkpt lat="48.293241" lon="10.393337">
        <ele>500.290532</ele>
        <time>2025-05-18T20:00:27.039Z</time>
      </trkpt>
      <trkpt lat="48.293078" lon="10.393296">
        <ele>500.613090</ele>
        <time>2025-05-18T20:00:31.020Z</time>
      </trkpt>
      <trkpt lat="48.293050" lon="10.393289">
        <ele>500.668490</ele>
        <time>2025-05-18T20:00:31.699Z</time>
      </trkpt>
      <trkpt lat="48.292805" lon="10.393228">
        <ele>501.153183</ele>
        <time>2025-05-18T20:00:37.736Z</time>
      </trkpt>
      <trkpt lat="48.292552" lon="10.393229">
        <ele>501.725796</ele>
        <time>2025-05-18T20:00:43.827Z</time>
      </trkpt>
      <trkpt lat="48.292457" lon="10.393242">
        <ele>502.036899</ele>
        <time>2025-05-18T20:00:46.098Z</time>
      </trkpt>
      <trkpt lat="48.292397" lon="10.393257">
        <ele>502.235264</ele>
        <time>2025-05-18T20:00:47.573Z</time>
      </trkpt>
      <trkpt lat="48.292230" lon="10.393312">
        <ele>502.792818</ele>
        <time>2025-05-18T20:00:51.650Z</time>
      </trkpt>
      <trkpt lat="48.291770" lon="10.393448">
        <ele>504.321753</ele>
        <time>2025-05-18T20:01:02.930Z</time>
      </trkpt>
      <trkpt lat="48.291701" lon="10.393445">
        <ele>504.546875</ele>
        <time>2025-05-18T20:01:04.601Z</time>
      </trkpt>
      <trkpt lat="48.291606" lon="10.393429">
        <ele>504.858635</ele>
        <time>2025-05-18T20:01:06.932Z</time>
      </trkpt>
      <trkpt lat="48.291216" lon="10.393359">
        <ele>506.139570</ele>
        <time>2025-05-18T20:01:16.672Z</time>
      </trkpt>
      <trkpt lat="48.290998" lon="10.393316">
        <ele>506.856624</ele>
        <time>2025-05-18T20:01:22.262Z</time>
      </trkpt>
      <trkpt lat="48.290801" lon="10.393291">
        <ele>507.486698</ele>
        <time>2025-05-18T20:01:27.362Z</time>
      </trkpt>
      <trkpt lat="48.290672" lon="10.393289">
        <ele>507.849151</ele>
        <time>2025-05-18T20:01:30.675Z</time>
      </trkpt>
      <trkpt lat="48.290607" lon="10.393287">
        <ele>508.031812</ele>
        <time>2025-05-18T20:01:32.317Z</time>
      </trkpt>
      <trkpt lat="48.290560" lon="10.393287">
        <ele>508.163861</ele>
        <time>2025-05-18T20:01:33.521Z</time>
      </trkpt>
      <trkpt lat="48.290467" lon="10.393285">
        <ele>508.425178</ele>
        <time>2025-05-18T20:01:35.886Z</time>
      </trkpt>
      <trkpt lat="48.290335" lon="10.393297">
        <ele>508.796719</ele>
        <time>2025-05-18T20:01:39.225Z</time>
      </trkpt>
      <trkpt lat="48.289959" lon="10.393429">
        <ele>509.881553</ele>
        <time>2025-05-18T20:01:48.768Z</time>
      </trkpt>
      <trkpt lat="48.289781" lon="10.393533">
        <ele>510.418117</ele>
        <time>2025-05-18T20:01:53.407Z</time>
      </trkpt>
      <trkpt lat="48.289388" lon="10.393899">
        <ele>511.717077</ele>
        <time>2025-05-18T20:02:04.410Z</time>
      </trkpt>
      <trkpt lat="48.289246" lon="10.394071">
        <ele>512.229477</ele>
        <time>2025-05-18T20:02:08.610Z</time>
      </trkpt>
      <trkpt lat="48.288079" lon="10.395775">
        <ele>512.832172</ele>
        <time>2025-05-18T20:02:43.688Z</time>
      </trkpt>
      <trkpt lat="48.287220" lon="10.397016">
        <ele>511.942837</ele>
        <time>2025-05-18T20:03:07.227Z</time>
      </trkpt>
      <trkpt lat="48.286484" lon="10.397934">
        <ele>510.954772</ele>
        <time>2025-05-18T20:03:24.910Z</time>
      </trkpt>
      <trkpt lat="48.285862" lon="10.398640">
        <ele>509.993714</ele>
        <time>2025-05-18T20:03:39.461Z</time>
      </trkpt>
      <trkpt lat="48.284997" lon="10.399511">
        <ele>508.821754</ele>
        <time>2025-05-18T20:03:59.292Z</time>
      </trkpt>
      <trkpt lat="48.284597" lon="10.399855">
        <ele>508.676694</ele>
        <time>2025-05-18T20:04:08.422Z</time>
      </trkpt>
      <trkpt lat="48.284114" lon="10.400183">
        <ele>508.509867</ele>
        <time>2025-05-18T20:04:19.229Z</time>
      </trkpt>
      <trkpt lat="48.283606" lon="10.400496">
        <ele>508.337055</ele>
        <time>2025-05-18T20:04:30.868Z</time>
      </trkpt>
      <trkpt lat="48.282714" lon="10.400968">
        <ele>508.714632</ele>
        <time>2025-05-18T20:04:51.728Z</time>
      </trkpt>
      <trkpt lat="48.281320" lon="10.401533">
        <ele>509.398063</ele>
        <time>2025-05-18T20:05:23.477Z</time>
      </trkpt>
      <trkpt lat="48.280861" lon="10.401715">
        <ele>509.574323</ele>
        <time>2025-05-18T20:05:33.660Z</time>
      </trkpt>
      <trkpt lat="48.280371" lon="10.401907">
        <ele>509.762343</ele>
        <time>2025-05-18T20:05:44.377Z</time>
      </trkpt>
      <trkpt lat="48.280128" lon="10.402011">
        <ele>509.856157</ele>
        <time>2025-05-18T20:05:49.690Z</time>
      </trkpt>
      <trkpt lat="48.279862" lon="10.402125">
        <ele>510.270088</ele>
        <time>2025-05-18T20:05:55.586Z</time>
      </trkpt>
      <trkpt lat="48.278752" lon="10.402616">
        <ele>512.873653</ele>
        <time>2025-05-18T20:06:22.599Z</time>
      </trkpt>
      <trkpt lat="48.277838" lon="10.403154">
        <ele>515.187767</ele>
        <time>2025-05-18T20:06:47.680Z</time>
      </trkpt>
      <trkpt lat="48.277043" lon="10.403713">
        <ele>517.345633</ele>
        <time>2025-05-18T20:07:08.954Z</time>
      </trkpt>
      <trkpt lat="48.274905" lon="10.405223">
        <ele>518.595151</ele>
        <time>2025-05-18T20:07:58.295Z</time>
      </trkpt>
      <trkpt lat="48.273445" lon="10.406231">
        <ele>519.160913</ele>
        <time>2025-05-18T20:08:34.068Z</time>
      </trkpt>
      <trkpt lat="48.271936" lon="10.407182">
        <ele>517.955703</ele>
        <time>2025-05-18T20:09:05.398Z</time>
      </trkpt>
      <trkpt lat="48.271126" lon="10.407661">
        <ele>517.645278</ele>
        <time>2025-05-18T20:09:23.051Z</time>
      </trkpt>
      <trkpt lat="48.270701" lon="10.407761">
        <ele>517.546319</ele>
        <time>2025-05-18T20:09:32.108Z</time>
      </trkpt>
      <trkpt lat="48.270315" lon="10.407763">
        <ele>517.457522</ele>
        <time>2025-05-18T20:09:40.097Z</time>
      </trkpt>
      <trkpt lat="48.270025" lon="10.407729">
        <ele>517.390607</ele>
        <time>2025-05-18T20:09:46.067Z</time>
      </trkpt>
      <trkpt lat="48.269976" lon="10.407723">
        <ele>517.401712</ele>
        <time>2025-05-18T20:09:47.081Z</time>
      </trkpt>
      <trkpt lat="48.269289" lon="10.407661">
        <ele>517.927947</ele>
        <time>2025-05-18T20:10:02.234Z</time>
      </trkpt>
      <trkpt lat="48.269248" lon="10.407685">
        <ele>517.961592</ele>
        <time>2025-05-18T20:10:03.179Z</time>
      </trkpt>
      <trkpt lat="48.269113" lon="10.407766">
        <ele>518.072742</ele>
        <time>2025-05-18T20:10:06.370Z</time>
      </trkpt>
      <trkpt lat="48.268950" lon="10.407863">
        <ele>518.206796</ele>
        <time>2025-05-18T20:10:10.272Z</time>
      </trkpt>
      <trkpt lat="48.268849" lon="10.407923">
        <ele>518.289840</ele>
        <time>2025-05-18T20:10:12.753Z</time>
      </trkpt>
      <trkpt lat="48.268732" lon="10.407983">
        <ele>518.384368</ele>
        <time>2025-05-18T20:10:15.575Z</time>
      </trkpt>
      <trkpt lat="48.268199" lon="10.408185">
        <ele>518.752268</ele>
        <time>2025-05-18T20:10:28.181Z</time>
      </trkpt>
      <trkpt lat="48.268083" lon="10.408224">
        <ele>518.737140</ele>
        <time>2025-05-18T20:10:30.890Z</time>
      </trkpt>
      <trkpt lat="48.268007" lon="10.408250">
        <ele>518.727220</ele>
        <time>2025-05-18T20:10:32.681Z</time>
      </trkpt>
      <trkpt lat="48.267784" lon="10.408288">
        <ele>518.698659</ele>
        <time>2025-05-18T20:10:37.746Z</time>
      </trkpt>
      <trkpt lat="48.267637" lon="10.408269">
        <ele>518.679882</ele>
        <time>2025-05-18T20:10:40.992Z</time>
      </trkpt>
      <trkpt lat="48.267345" lon="10.408178">
        <ele>518.641929</ele>
        <time>2025-05-18T20:10:47.270Z</time>
      </trkpt>
      <trkpt lat="48.267112" lon="10.408147">
        <ele>518.612161</ele>
        <time>2025-05-18T20:10:52.085Z</time>
      </trkpt>
      <trkpt lat="48.267024" lon="10.408144">
        <ele>518.600959</ele>
        <time>2025-05-18T20:10:53.898Z</time>
      </trkpt>
      <trkpt lat="48.266844" lon="10.408166">
        <ele>518.577975</ele>
        <time>2025-05-18T20:10:57.540Z</time>
      </trkpt>
      <trkpt lat="48.266709" lon="10.408188">
        <ele>518.560694</ele>
        <time>2025-05-18T20:11:00.224Z</time>
      </trkpt>
      <trkpt lat="48.266221" lon="10.408368">
        <ele>517.730541</ele>
        <time>2025-05-18T20:11:09.127Z</time>
      </trkpt>
      <trkpt lat="48.266173" lon="10.408369">
        <ele>517.587156</ele>
        <time>2025-05-18T20:11:09.928Z</time>
      </trkpt>
      <trkpt lat="48.265915" lon="10.408339">
        <ele>516.814229</ele>
        <time>2025-05-18T20:11:14.205Z</time>
      </trkpt>
      <trkpt lat="48.265954" lon="10.408689">
        <ele>516.108640</ele>
        <time>2025-05-18T20:11:18.044Z</time>
      </trkpt>
      <trkpt lat="48.265982" lon="10.409073">
        <ele>515.340564</ele>
        <time>2025-05-18T20:11:22.098Z</time>
      </trkpt>
      <trkpt lat="48.265982" lon="10.409105">
        <ele>515.276938</ele>
        <time>2025-05-18T20:11:22.426Z</time>
      </trkpt>
      <trkpt lat="48.265979" lon="10.409725">
        <ele>514.044158</ele>
        <time>2025-05-18T20:11:28.974Z</time>
      </trkpt>
      <trkpt lat="48.265971" lon="10.409795">
        <ele>513.902940</ele>
        <time>2025-05-18T20:11:29.736Z</time>
      </trkpt>
      <trkpt lat="48.265874" lon="10.410571">
        <ele>512.829173</ele>
        <time>2025-05-18T20:11:38.211Z</time>
      </trkpt>
      <trkpt lat="48.265785" lon="10.410937">
        <ele>512.520092</ele>
        <time>2025-05-18T20:11:42.621Z</time>
      </trkpt>
      <trkpt lat="48.265442" lon="10.411953">
        <ele>511.616462</ele>
        <time>2025-05-18T20:11:57.110Z</time>
      </trkpt>
      <trkpt lat="48.265351" lon="10.412208">
        <ele>511.386958</ele>
        <time>2025-05-18T20:12:01.207Z</time>
      </trkpt>
      <trkpt lat="48.265296" lon="10.412358">
        <ele>511.251118</ele>
        <time>2025-05-18T20:12:03.690Z</time>
      </trkpt>
      <trkpt lat="48.265184" lon="10.412685">
        <ele>511.155991</ele>
        <time>2025-05-18T20:12:09.102Z</time>
      </trkpt>
      <trkpt lat="48.264958" lon="10.413450">
        <ele>512.831204</ele>
        <time>2025-05-18T20:12:21.791Z</time>
      </trkpt>
      <trkpt lat="48.264904" lon="10.413752">
        <ele>513.457106</ele>
        <time>2025-05-18T20:12:26.718Z</time>
      </trkpt>
      <trkpt lat="48.264843" lon="10.414361">
        <ele>514.689788</ele>
        <time>2025-05-18T20:12:36.706Z</time>
      </trkpt>
      <trkpt lat="48.264835" lon="10.414692">
        <ele>515.352747</ele>
        <time>2025-05-18T20:12:42.292Z</time>
      </trkpt>
      <trkpt lat="48.264920" lon="10.416395">
        <ele>521.432329</ele>
        <time>2025-05-18T20:13:14.411Z</time>
      </trkpt>
      <trkpt lat="48.264979" lon="10.417812">
        <ele>527.495548</ele>
        <time>2025-05-18T20:13:43.013Z</time>
      </trkpt>
      <trkpt lat="48.264981" lon="10.418126">
        <ele>528.853454</ele>
        <time>2025-05-18T20:13:49.189Z</time>
      </trkpt>
      <trkpt lat="48.264945" lon="10.418560">
        <ele>530.757282</ele>
        <time>2025-05-18T20:13:57.655Z</time>
      </trkpt>
      <trkpt lat="48.264886" lon="10.418988">
        <ele>532.659912</ele>
        <time>2025-05-18T20:14:05.976Z</time>
      </trkpt>
      <trkpt lat="48.264750" lon="10.419581">
        <ele>535.390171</ele>
        <time>2025-05-18T20:14:17.867Z</time>
      </trkpt>
      <trkpt lat="48.264523" lon="10.420570">
        <ele>539.974241</ele>
        <time>2025-05-18T20:14:38.199Z</time>
      </trkpt>
      <trkpt lat="48.264377" lon="10.421358">
        <ele>544.022426</ele>
        <time>2025-05-18T20:14:54.799Z</time>
      </trkpt>
      <trkpt lat="48.264230" lon="10.423519">
        <ele>553.836572</ele>
        <time>2025-05-18T20:15:40.765Z</time>
      </trkpt>
      <trkpt lat="48.264242" lon="10.423822">
        <ele>554.499869</ele>
        <time>2025-05-18T20:15:46.723Z</time>
      </trkpt>
      <trkpt lat="48.264303" lon="10.424250">
        <ele>555.456343</ele>
        <time>2025-05-18T20:15:54.786Z</time>
      </trkpt>
      <trkpt lat="48.264480" lon="10.425013">
        <ele>557.222008</ele>
        <time>2025-05-18T20:16:08.185Z</time>
      </trkpt>
      <trkpt lat="48.264492" lon="10.425069">
        <ele>557.350564</ele>
        <time>2025-05-18T20:16:09.089Z</time>
      </trkpt>
      <trkpt lat="48.265169" lon="10.428038">
        <ele>555.160537</ele>
        <time>2025-05-18T20:16:46.439Z</time>
      </trkpt>
      <trkpt lat="48.265760" lon="10.431108">
        <ele>544.113620</ele>
        <time>2025-05-18T20:17:17.835Z</time>
      </trkpt>
      <trkpt lat="48.265888" lon="10.431628">
        <ele>542.135351</ele>
        <time>2025-05-18T20:17:23.249Z</time>
      </trkpt>
      <trkpt lat="48.266067" lon="10.432213">
        <ele>539.837986</ele>
        <time>2025-05-18T20:17:29.535Z</time>
      </trkpt>
      <trkpt lat="48.266557" lon="10.433567">
        <ele>534.569569</ele>
        <time>2025-05-18T20:17:44.982Z</time>
      </trkpt>
      <trkpt lat="48.267437" lon="10.435996">
        <ele>527.391889</ele>
        <time>2025-05-18T20:18:14.794Z</time>
      </trkpt>
      <trkpt lat="48.267833" lon="10.437317">
        <ele>522.170652</ele>
        <time>2025-05-18T20:18:29.414Z</time>
      </trkpt>
      <trkpt lat="48.268062" lon="10.438112">
        <ele>519.048820</ele>
        <time>2025-05-18T20:18:37.690Z</time>
      </trkpt>
      <trkpt lat="48.268227" lon="10.438695">
        <ele>516.677809</ele>
        <time>2025-05-18T20:18:43.634Z</time>
      </trkpt>
      <trkpt lat="48.268604" lon="10.439995">
        <ele>511.328896</ele>
        <time>2025-05-18T20:18:57.226Z</time>
      </trkpt>
      <trkpt lat="48.268924" lon="10.441232">
        <ele>508.266997</ele>
        <time>2025-05-18T20:19:11.696Z</time>
      </trkpt>
      <trkpt lat="48.268961" lon="10.441456">
        <ele>508.189707</ele>
        <time>2025-05-18T20:19:14.671Z</time>
      </trkpt>
      <trkpt lat="48.268477" lon="10.441657">
        <ele>507.937070</ele>
        <time>2025-05-18T20:19:25.009Z</time>
      </trkpt>
      <trkpt lat="48.268179" lon="10.441796">
        <ele>507.780084</ele>
        <time>2025-05-18T20:19:31.801Z</time>
      </trkpt>
      <trkpt lat="48.267603" lon="10.442144">
        <ele>507.808460</ele>
        <time>2025-05-18T20:19:46.057Z</time>
      </trkpt>
      <trkpt lat="48.267434" lon="10.442249">
        <ele>508.090698</ele>
        <time>2025-05-18T20:19:50.269Z</time>
      </trkpt>
      <trkpt lat="48.267260" lon="10.442351">
        <ele>508.378947</ele>
        <time>2025-05-18T20:19:54.583Z</time>
      </trkpt>
      <trkpt lat="48.267088" lon="10.442452">
        <ele>508.663948</ele>
        <time>2025-05-18T20:19:58.823Z</time>
      </trkpt>
      <trkpt lat="48.266836" lon="10.442604">
        <ele>509.083029</ele>
        <time>2025-05-18T20:20:05.118Z</time>
      </trkpt>
      <trkpt lat="48.266785" lon="10.442634">
        <ele>509.167555</ele>
        <time>2025-05-18T20:20:06.397Z</time>
      </trkpt>
      <trkpt lat="48.266685" lon="10.442754">
        <ele>509.365074</ele>
        <time>2025-05-18T20:20:09.372Z</time>
      </trkpt>
      <trkpt lat="48.266551" lon="10.442931">
        <ele>509.640444</ele>
        <time>2025-05-18T20:20:13.532Z</time>
      </trkpt>
      <trkpt lat="48.266254" lon="10.443311">
        <ele>510.242507</ele>
        <time>2025-05-18T20:20:22.707Z</time>
      </trkpt>
      <trkpt lat="48.266044" lon="10.443604">
        <ele>510.327300</ele>
        <time>2025-05-18T20:20:29.205Z</time>
      </trkpt>
      <trkpt lat="48.265922" lon="10.443772">
        <ele>510.327300</ele>
        <time>2025-05-18T20:20:32.740Z</time>
      </trkpt>
      <trkpt lat="48.265831" lon="10.443897">
        <ele>510.327300</ele>
        <time>2025-05-18T20:20:35.239Z</time>
      </trkpt>
      <trkpt lat="48.265761" lon="10.443995">
        <ele>510.327300</ele>
        <time>2025-05-18T20:20:37.178Z</time>
      </trkpt>
      <trkpt lat="48.265471" lon="10.444397">
        <ele>510.327300</ele>
        <time>2025-05-18T20:20:45.189Z</time>
      </trkpt>
      <trkpt lat="48.265677" lon="10.444877">
        <ele>510.327300</ele>
        <time>2025-05-18T20:20:52.617Z</time>
      </trkpt>
      <trkpt lat="48.265677" lon="10.444877">
        <ele>510.327300</ele>
        <time>2025-05-18T20:20:52.623Z</time>
      </trkpt>
      <trkpt lat="48.265682" lon="10.444872">
        <ele>510.327300</ele>
        <time>2025-05-18T20:20:52.778Z</time>
      </trkpt>
      <trkpt lat="48.265694" lon="10.444915">
        <ele>510.327300</ele>
        <time>2025-05-18T20:20:53.581Z</time>
      </trkpt>
      <trkpt lat="48.265713" lon="10.444957">
        <ele>510.327300</ele>
        <time>2025-05-18T20:20:54.455Z</time>
      </trkpt>
      <trkpt lat="48.265736" lon="10.444992">
        <ele>510.327300</ele>
        <time>2025-05-18T20:20:55.302Z</time>
      </trkpt>
      <trkpt lat="48.265755" lon="10.445023">
        <ele>510.327300</ele>
        <time>2025-05-18T20:20:56.027Z</time>
      </trkpt>
      <trkpt lat="48.265770" lon="10.445051">
        <ele>510.327300</ele>
        <time>2025-05-18T20:20:56.646Z</time>
      </trkpt>
      <trkpt lat="48.265781" lon="10.445082">
        <ele>510.327300</ele>
        <time>2025-05-18T20:20:57.251Z</time>
      </trkpt>
      <trkpt lat="48.265781" lon="10.445115">
        <ele>510.327300</ele>
        <time>2025-05-18T20:20:57.819Z</time>
      </trkpt>
      <trkpt lat="48.265778" lon="10.445150">
        <ele>510.327300</ele>
        <time>2025-05-18T20:20:58.426Z</time>
      </trkpt>
      <trkpt lat="48.265762" lon="10.445180">
        <ele>510.327300</ele>
        <time>2025-05-18T20:20:59.088Z</time>
      </trkpt>
      <trkpt lat="48.265739" lon="10.445200">
        <ele>510.327300</ele>
        <time>2025-05-18T20:20:59.775Z</time>
      </trkpt>
      <trkpt lat="48.265717" lon="10.445207">
        <ele>510.327300</ele>
        <time>2025-05-18T20:21:00.357Z</time>
      </trkpt>
      <trkpt lat="48.265694" lon="10.445205">
        <ele>510.327300</ele>
        <time>2025-05-18T20:21:00.953Z</time>
      </trkpt>
      <trkpt lat="48.265671" lon="10.445178">
        <ele>510.327300</ele>
        <time>2025-05-18T20:21:01.707Z</time>
      </trkpt>
      <trkpt lat="48.265652" lon="10.445157">
        <ele>510.327300</ele>
        <time>2025-05-18T20:21:02.317Z</time>
      </trkpt>
      <trkpt lat="48.265636" lon="10.445147">
        <ele>510.327300</ele>
        <time>2025-05-18T20:21:02.766Z</time>
      </trkpt>
      <trkpt lat="48.265625" lon="10.445144">
        <ele>510.327300</ele>
        <time>2025-05-18T20:21:03.055Z</time>
      </trkpt>
      <trkpt lat="48.265625" lon="10.445147">
        <ele>510.327300</ele>
        <time>2025-05-18T20:21:03.106Z</time>
      </trkpt>
      <trkpt lat="48.265625" lon="10.445142">
        <ele>510.327300</ele>
        <time>2025-05-18T20:21:03.192Z</time>
      </trkpt>
      <trkpt lat="48.265621" lon="10.445138">
        <ele>510.327300</ele>
        <time>2025-05-18T20:21:03.317Z</time>
      </trkpt>
      <trkpt lat="48.265617" lon="10.445137">
        <ele>510.327300</ele>
        <time>2025-05-18T20:21:03.422Z</time>
      </trkpt>
      <trkpt lat="48.265617" lon="10.445135">
        <ele>510.327300</ele>
        <time>2025-05-18T20:21:03.456Z</time>
      </trkpt>
      <trkpt lat="48.265614" lon="10.445133">
        <ele>510.327300</ele>
        <time>2025-05-18T20:21:03.541Z</time>
      </trkpt>
      <trkpt lat="48.265610" lon="10.445130">
        <ele>510.327300</ele>
        <time>2025-05-18T20:21:03.657Z</time>
      </trkpt>
      <trkpt lat="48.265610" lon="10.445126">
        <ele>510.327300</ele>
        <time>2025-05-18T20:21:03.725Z</time>
      </trkpt>
      <trkpt lat="48.265610" lon="10.445124">
        <ele>510.327300</ele>
        <time>2025-05-18T20:21:03.760Z</time>
      </trkpt>
      <trkpt lat="48.265606" lon="10.445118">
        <ele>510.327300</ele>
        <time>2025-05-18T20:21:03.906Z</time>
      </trkpt>
      <trkpt lat="48.265606" lon="10.445113">
        <ele>510.327300</ele>
        <time>2025-05-18T20:21:03.992Z</time>
      </trkpt>
      <trkpt lat="48.265606" lon="10.445108">
        <ele>510.327300</ele>
        <time>2025-05-18T20:21:04.078Z</time>
      </trkpt>
      <trkpt lat="48.265602" lon="10.445102">
        <ele>510.327300</ele>
        <time>2025-05-18T20:21:04.224Z</time>
      </trkpt>
      <trkpt lat="48.265598" lon="10.445095">
        <ele>510.327300</ele>
        <time>2025-05-18T20:21:04.383Z</time>
      </trkpt>
      <trkpt lat="48.265598" lon="10.445090">
        <ele>510.327300</ele>
        <time>2025-05-18T20:21:04.469Z</time>
      </trkpt>
      <trkpt lat="48.265598" lon="10.445093">
        <ele>510.327300</ele>
        <time>2025-05-18T20:21:04.521Z</time>
      </trkpt>
      <trkpt lat="48.265598" lon="10.445095">
        <ele>510.327300</ele>
        <time>2025-05-18T20:21:04.555Z</time>
      </trkpt>
      <trkpt lat="48.265598" lon="10.445091">
        <ele>510.327300</ele>
        <time>2025-05-18T20:21:04.624Z</time>
      </trkpt>
      <trkpt lat="48.265598" lon="10.445093">
        <ele>510.327300</ele>
        <time>2025-05-18T20:21:04.659Z</time>
      </trkpt>
      <trkpt lat="48.265598" lon="10.445095">
        <ele>510.327300</ele>
        <time>2025-05-18T20:21:04.693Z</time>
      </trkpt>
      <trkpt lat="48.265602" lon="10.445093">
        <ele>510.327300</ele>
        <time>2025-05-18T20:21:04.802Z</time>
      </trkpt>
      <trkpt lat="48.265606" lon="10.445093">
        <ele>510.327300</ele>
        <time>2025-05-18T20:21:04.905Z</time>
      </trkpt>
    </trkseg>
  </trk>
</gpx>